<?xml version="1.0" encoding="UTF-8" standalone="no" ?>
<gpx xmlns="http://www.topografix.com/GPX/1/1" xmlns:xsi="http://www.w3.org/2001/XMLSchema-instance" xsi:schemaLocation="http://www.topografix.com/GPX/1/1 http://www.topografix.com/GPX/1/1/gpx.xsd" version="1.1" creator="VisuGPX - https://www.visugpx.com">
  <metadata>
    <name>Transterritoire 2011 - 40 km</name>
    <desc><![CDATA[Parcours 40 km de la transterritoire 2011
Chemin des forts / lion / Garre TGV]]></desc>
  </metadata>
  <trk>
    <name><![CDATA[Transterritoire 2011 40 km]]></name>
    <trkseg>
      <trkpt lat="47.64265" lon="6.84471">
        <ele>369</ele>
        <time>2011-10-02T08:50:58Z</time>
      </trkpt>
      <trkpt lat="47.64265" lon="6.84471">
        <ele>369</ele>
        <time>2011-10-02T08:50:59Z</time>
      </trkpt>
      <trkpt lat="47.64265" lon="6.84471">
        <ele>369</ele>
        <time>2011-10-02T08:51:05Z</time>
      </trkpt>
      <trkpt lat="47.64258" lon="6.84473">
        <ele>369</ele>
        <time>2011-10-02T08:51:09Z</time>
      </trkpt>
      <trkpt lat="47.64256" lon="6.84482">
        <ele>369</ele>
        <time>2011-10-02T08:51:13Z</time>
      </trkpt>
      <trkpt lat="47.64255" lon="6.84484">
        <ele>369</ele>
        <time>2011-10-02T08:51:14Z</time>
      </trkpt>
      <trkpt lat="47.64245" lon="6.84491">
        <ele>369.013641</ele>
        <time>2011-10-02T08:51:21Z</time>
      </trkpt>
      <trkpt lat="47.64241" lon="6.84485">
        <ele>369.045837</ele>
        <time>2011-10-02T08:51:25Z</time>
      </trkpt>
      <trkpt lat="47.64237" lon="6.8446">
        <ele>369.197906</ele>
        <time>2011-10-02T08:51:32Z</time>
      </trkpt>
      <trkpt lat="47.64231" lon="6.84439">
        <ele>369.442902</ele>
        <time>2011-10-02T08:51:38Z</time>
      </trkpt>
      <trkpt lat="47.64213" lon="6.84442">
        <ele>369.717743</ele>
        <time>2011-10-02T08:51:44Z</time>
      </trkpt>
      <trkpt lat="47.64189" lon="6.84452">
        <ele>370.644104</ele>
        <time>2011-10-02T08:51:53Z</time>
      </trkpt>
      <trkpt lat="47.64187" lon="6.84453">
        <ele>370.737366</ele>
        <time>2011-10-02T08:51:54Z</time>
      </trkpt>
      <trkpt lat="47.64184" lon="6.8447">
        <ele>370.738861</ele>
        <time>2011-10-02T08:51:59Z</time>
      </trkpt>
      <trkpt lat="47.64188" lon="6.84495">
        <ele>370.244995</ele>
        <time>2011-10-02T08:52:04Z</time>
      </trkpt>
      <trkpt lat="47.64195" lon="6.8454">
        <ele>369.660004</ele>
        <time>2011-10-02T08:52:11Z</time>
      </trkpt>
      <trkpt lat="47.64204" lon="6.84582">
        <ele>368.98999</ele>
        <time>2011-10-02T08:52:18Z</time>
      </trkpt>
      <trkpt lat="47.64206" lon="6.84596">
        <ele>368.934998</ele>
        <time>2011-10-02T08:52:21Z</time>
      </trkpt>
      <trkpt lat="47.64195" lon="6.84619">
        <ele>369.184875</ele>
        <time>2011-10-02T08:52:27Z</time>
      </trkpt>
      <trkpt lat="47.64186" lon="6.84638">
        <ele>369.152496</ele>
        <time>2011-10-02T08:52:32Z</time>
      </trkpt>
      <trkpt lat="47.64172" lon="6.84666">
        <ele>368.994995</ele>
        <time>2011-10-02T08:52:37Z</time>
      </trkpt>
      <trkpt lat="47.64146" lon="6.84714">
        <ele>368.792511</ele>
        <time>2011-10-02T08:52:47Z</time>
      </trkpt>
      <trkpt lat="47.64122" lon="6.84755">
        <ele>368.636261</ele>
        <time>2011-10-02T08:52:56Z</time>
      </trkpt>
      <trkpt lat="47.64107" lon="6.84777">
        <ele>368.602509</ele>
        <time>2011-10-02T08:53:02Z</time>
      </trkpt>
      <trkpt lat="47.641" lon="6.84773">
        <ele>368.911255</ele>
        <time>2011-10-02T08:53:06Z</time>
      </trkpt>
      <trkpt lat="47.64097" lon="6.84731">
        <ele>369.768738</ele>
        <time>2011-10-02T08:53:15Z</time>
      </trkpt>
      <trkpt lat="47.64092" lon="6.8467">
        <ele>371.217499</ele>
        <time>2011-10-02T08:53:28Z</time>
      </trkpt>
      <trkpt lat="47.6409" lon="6.84632">
        <ele>372.51001</ele>
        <time>2011-10-02T08:53:36Z</time>
      </trkpt>
      <trkpt lat="47.64088" lon="6.84594">
        <ele>374.203735</ele>
        <time>2011-10-02T08:53:44Z</time>
      </trkpt>
      <trkpt lat="47.64085" lon="6.84549">
        <ele>376.337494</ele>
        <time>2011-10-02T08:53:53Z</time>
      </trkpt>
      <trkpt lat="47.64081" lon="6.84498">
        <ele>377.350006</ele>
        <time>2011-10-02T08:54:02Z</time>
      </trkpt>
      <trkpt lat="47.64078" lon="6.84452">
        <ele>376.86499</ele>
        <time>2011-10-02T08:54:09Z</time>
      </trkpt>
      <trkpt lat="47.64074" lon="6.84398">
        <ele>375.776245</ele>
        <time>2011-10-02T08:54:17Z</time>
      </trkpt>
      <trkpt lat="47.64069" lon="6.84333">
        <ele>375.069305</ele>
        <time>2011-10-02T08:54:26Z</time>
      </trkpt>
      <trkpt lat="47.64065" lon="6.84266">
        <ele>374.339996</ele>
        <time>2011-10-02T08:54:35Z</time>
      </trkpt>
      <trkpt lat="47.64061" lon="6.84222">
        <ele>374.470001</ele>
        <time>2011-10-02T08:54:42Z</time>
      </trkpt>
      <trkpt lat="47.64058" lon="6.84199">
        <ele>374.554993</ele>
        <time>2011-10-02T08:54:46Z</time>
      </trkpt>
      <trkpt lat="47.64054" lon="6.84172">
        <ele>374.665009</ele>
        <time>2011-10-02T08:54:51Z</time>
      </trkpt>
      <trkpt lat="47.64054" lon="6.8416">
        <ele>374.679993</ele>
        <time>2011-10-02T08:54:53Z</time>
      </trkpt>
      <trkpt lat="47.64047" lon="6.84116">
        <ele>374.869995</ele>
        <time>2011-10-02T08:55:02Z</time>
      </trkpt>
      <trkpt lat="47.64039" lon="6.84086">
        <ele>375.079987</ele>
        <time>2011-10-02T08:55:09Z</time>
      </trkpt>
      <trkpt lat="47.64029" lon="6.84047">
        <ele>375.339996</ele>
        <time>2011-10-02T08:55:17Z</time>
      </trkpt>
      <trkpt lat="47.64018" lon="6.84014">
        <ele>375.595001</ele>
        <time>2011-10-02T08:55:24Z</time>
      </trkpt>
      <trkpt lat="47.64005" lon="6.83979">
        <ele>375.438751</ele>
        <time>2011-10-02T08:55:31Z</time>
      </trkpt>
      <trkpt lat="47.63988" lon="6.83942">
        <ele>376.009796</ele>
        <time>2011-10-02T08:55:39Z</time>
      </trkpt>
      <trkpt lat="47.63963" lon="6.83907">
        <ele>376.850006</ele>
        <time>2011-10-02T08:55:47Z</time>
      </trkpt>
      <trkpt lat="47.63937" lon="6.83882">
        <ele>377.317505</ele>
        <time>2011-10-02T08:55:54Z</time>
      </trkpt>
      <trkpt lat="47.63903" lon="6.83861">
        <ele>378.027496</ele>
        <time>2011-10-02T08:56:02Z</time>
      </trkpt>
      <trkpt lat="47.63868" lon="6.83847">
        <ele>378.347198</ele>
        <time>2011-10-02T08:56:10Z</time>
      </trkpt>
      <trkpt lat="47.63829" lon="6.83838">
        <ele>377.420319</ele>
        <time>2011-10-02T08:56:18Z</time>
      </trkpt>
      <trkpt lat="47.63782" lon="6.83827">
        <ele>376.439209</ele>
        <time>2011-10-02T08:56:27Z</time>
      </trkpt>
      <trkpt lat="47.63742" lon="6.8382">
        <ele>376.539337</ele>
        <time>2011-10-02T08:56:35Z</time>
      </trkpt>
      <trkpt lat="47.63702" lon="6.83812">
        <ele>376.596252</ele>
        <time>2011-10-02T08:56:43Z</time>
      </trkpt>
      <trkpt lat="47.63667" lon="6.83806">
        <ele>376.078735</ele>
        <time>2011-10-02T08:56:50Z</time>
      </trkpt>
      <trkpt lat="47.63652" lon="6.83804">
        <ele>375.738739</ele>
        <time>2011-10-02T08:56:54Z</time>
      </trkpt>
      <trkpt lat="47.63641" lon="6.83798">
        <ele>375.612152</ele>
        <time>2011-10-02T08:56:59Z</time>
      </trkpt>
      <trkpt lat="47.6363" lon="6.83797">
        <ele>375.443024</ele>
        <time>2011-10-02T08:57:02Z</time>
      </trkpt>
      <trkpt lat="47.63617" lon="6.838">
        <ele>375.212402</ele>
        <time>2011-10-02T08:57:05Z</time>
      </trkpt>
      <trkpt lat="47.63578" lon="6.83802">
        <ele>374.768982</ele>
        <time>2011-10-02T08:57:12Z</time>
      </trkpt>
      <trkpt lat="47.63521" lon="6.83811">
        <ele>374.073364</ele>
        <time>2011-10-02T08:57:21Z</time>
      </trkpt>
      <trkpt lat="47.63474" lon="6.83823">
        <ele>374.834991</ele>
        <time>2011-10-02T08:57:29Z</time>
      </trkpt>
      <trkpt lat="47.63466" lon="6.83825">
        <ele>375</ele>
        <time>2011-10-02T08:57:31Z</time>
      </trkpt>
      <trkpt lat="47.63443" lon="6.83836">
        <ele>375</ele>
        <time>2011-10-02T08:57:36Z</time>
      </trkpt>
      <trkpt lat="47.63407" lon="6.83853">
        <ele>375.12207</ele>
        <time>2011-10-02T08:57:43Z</time>
      </trkpt>
      <trkpt lat="47.63369" lon="6.83877">
        <ele>375.711304</ele>
        <time>2011-10-02T08:57:51Z</time>
      </trkpt>
      <trkpt lat="47.63366" lon="6.83879">
        <ele>375.670166</ele>
        <time>2011-10-02T08:57:52Z</time>
      </trkpt>
      <trkpt lat="47.63357" lon="6.83858">
        <ele>375.309753</ele>
        <time>2011-10-02T08:57:56Z</time>
      </trkpt>
      <trkpt lat="47.63354" lon="6.83806">
        <ele>375</ele>
        <time>2011-10-02T08:58:05Z</time>
      </trkpt>
      <trkpt lat="47.63355" lon="6.83743">
        <ele>374.893738</ele>
        <time>2011-10-02T08:58:14Z</time>
      </trkpt>
      <trkpt lat="47.63355" lon="6.83728">
        <ele>374.758484</ele>
        <time>2011-10-02T08:58:16Z</time>
      </trkpt>
      <trkpt lat="47.63349" lon="6.83699">
        <ele>374.392242</ele>
        <time>2011-10-02T08:58:20Z</time>
      </trkpt>
      <trkpt lat="47.63348" lon="6.83652">
        <ele>374.225006</ele>
        <time>2011-10-02T08:58:26Z</time>
      </trkpt>
      <trkpt lat="47.63345" lon="6.83635">
        <ele>374.130005</ele>
        <time>2011-10-02T08:58:30Z</time>
      </trkpt>
      <trkpt lat="47.63343" lon="6.83632">
        <ele>374.089996</ele>
        <time>2011-10-02T08:58:32Z</time>
      </trkpt>
      <trkpt lat="47.63329" lon="6.83619">
        <ele>373.994415</ele>
        <time>2011-10-02T08:58:37Z</time>
      </trkpt>
      <trkpt lat="47.63328" lon="6.83596">
        <ele>373.895264</ele>
        <time>2011-10-02T08:58:41Z</time>
      </trkpt>
      <trkpt lat="47.63328" lon="6.8358">
        <ele>373.822632</ele>
        <time>2011-10-02T08:58:44Z</time>
      </trkpt>
      <trkpt lat="47.6331" lon="6.83561">
        <ele>373.391876</ele>
        <time>2011-10-02T08:58:49Z</time>
      </trkpt>
      <trkpt lat="47.63293" lon="6.83559">
        <ele>373.121246</ele>
        <time>2011-10-02T08:58:53Z</time>
      </trkpt>
      <trkpt lat="47.63284" lon="6.83563">
        <ele>373.193756</ele>
        <time>2011-10-02T08:58:55Z</time>
      </trkpt>
      <trkpt lat="47.63267" lon="6.83577">
        <ele>373.423737</ele>
        <time>2011-10-02T08:59:00Z</time>
      </trkpt>
      <trkpt lat="47.63264" lon="6.83578">
        <ele>373.454987</ele>
        <time>2011-10-02T08:59:01Z</time>
      </trkpt>
      <trkpt lat="47.63249" lon="6.83571">
        <ele>373.435883</ele>
        <time>2011-10-02T08:59:07Z</time>
      </trkpt>
      <trkpt lat="47.63234" lon="6.83548">
        <ele>373.46817</ele>
        <time>2011-10-02T08:59:13Z</time>
      </trkpt>
      <trkpt lat="47.63215" lon="6.83512">
        <ele>372.964874</ele>
        <time>2011-10-02T08:59:21Z</time>
      </trkpt>
      <trkpt lat="47.63195" lon="6.83472">
        <ele>372.245728</ele>
        <time>2011-10-02T08:59:29Z</time>
      </trkpt>
      <trkpt lat="47.6318" lon="6.8346">
        <ele>372.166565</ele>
        <time>2011-10-02T08:59:34Z</time>
      </trkpt>
      <trkpt lat="47.63157" lon="6.83445">
        <ele>372.167511</ele>
        <time>2011-10-02T08:59:40Z</time>
      </trkpt>
      <trkpt lat="47.63154" lon="6.83442">
        <ele>372.188751</ele>
        <time>2011-10-02T08:59:41Z</time>
      </trkpt>
      <trkpt lat="47.63139" lon="6.83444">
        <ele>372.980011</ele>
        <time>2011-10-02T08:59:45Z</time>
      </trkpt>
      <trkpt lat="47.63111" lon="6.83459">
        <ele>374.60733</ele>
        <time>2011-10-02T08:59:52Z</time>
      </trkpt>
      <trkpt lat="47.63095" lon="6.83466">
        <ele>374.945099</ele>
        <time>2011-10-02T08:59:57Z</time>
      </trkpt>
      <trkpt lat="47.63071" lon="6.83477">
        <ele>375.0112</ele>
        <time>2011-10-02T09:00:03Z</time>
      </trkpt>
      <trkpt lat="47.63042" lon="6.83482">
        <ele>374.054474</ele>
        <time>2011-10-02T09:00:08Z</time>
      </trkpt>
      <trkpt lat="47.63014" lon="6.83481">
        <ele>372.684387</ele>
        <time>2011-10-02T09:00:12Z</time>
      </trkpt>
      <trkpt lat="47.62972" lon="6.8347">
        <ele>370.813812</ele>
        <time>2011-10-02T09:00:19Z</time>
      </trkpt>
      <trkpt lat="47.62935" lon="6.83449">
        <ele>371.283752</ele>
        <time>2011-10-02T09:00:26Z</time>
      </trkpt>
      <trkpt lat="47.62917" lon="6.83434">
        <ele>372.357513</ele>
        <time>2011-10-02T09:00:30Z</time>
      </trkpt>
      <trkpt lat="47.62902" lon="6.8342">
        <ele>373.182495</ele>
        <time>2011-10-02T09:00:34Z</time>
      </trkpt>
      <trkpt lat="47.62896" lon="6.83413">
        <ele>373.506256</ele>
        <time>2011-10-02T09:00:36Z</time>
      </trkpt>
      <trkpt lat="47.62883" lon="6.83396">
        <ele>373.877502</ele>
        <time>2011-10-02T09:00:40Z</time>
      </trkpt>
      <trkpt lat="47.62875" lon="6.83384">
        <ele>374.068756</ele>
        <time>2011-10-02T09:00:43Z</time>
      </trkpt>
      <trkpt lat="47.62858" lon="6.83355">
        <ele>373.74295</ele>
        <time>2011-10-02T09:00:50Z</time>
      </trkpt>
      <trkpt lat="47.62848" lon="6.83336">
        <ele>372.865601</ele>
        <time>2011-10-02T09:00:57Z</time>
      </trkpt>
      <trkpt lat="47.62841" lon="6.83318">
        <ele>371.623596</ele>
        <time>2011-10-02T09:01:05Z</time>
      </trkpt>
      <trkpt lat="47.62847" lon="6.83305">
        <ele>371.41925</ele>
        <time>2011-10-02T09:01:10Z</time>
      </trkpt>
      <trkpt lat="47.62869" lon="6.83275">
        <ele>370.405609</ele>
        <time>2011-10-02T09:01:18Z</time>
      </trkpt>
      <trkpt lat="47.62897" lon="6.83236">
        <ele>367.789276</ele>
        <time>2011-10-02T09:01:26Z</time>
      </trkpt>
      <trkpt lat="47.6293" lon="6.83192">
        <ele>365.580383</ele>
        <time>2011-10-02T09:01:35Z</time>
      </trkpt>
      <trkpt lat="47.62951" lon="6.83163">
        <ele>365.753754</ele>
        <time>2011-10-02T09:01:41Z</time>
      </trkpt>
      <trkpt lat="47.6299" lon="6.8311">
        <ele>366.474335</ele>
        <time>2011-10-02T09:01:52Z</time>
      </trkpt>
      <trkpt lat="47.63015" lon="6.83076">
        <ele>366.11377</ele>
        <time>2011-10-02T09:01:59Z</time>
      </trkpt>
      <trkpt lat="47.63045" lon="6.83036">
        <ele>365.894989</ele>
        <time>2011-10-02T09:02:08Z</time>
      </trkpt>
      <trkpt lat="47.63062" lon="6.8301">
        <ele>366.176697</ele>
        <time>2011-10-02T09:02:13Z</time>
      </trkpt>
      <trkpt lat="47.63093" lon="6.82967">
        <ele>366.618988</ele>
        <time>2011-10-02T09:02:21Z</time>
      </trkpt>
      <trkpt lat="47.63118" lon="6.82935">
        <ele>368.01062</ele>
        <time>2011-10-02T09:02:27Z</time>
      </trkpt>
      <trkpt lat="47.63152" lon="6.82887">
        <ele>368.299774</ele>
        <time>2011-10-02T09:02:36Z</time>
      </trkpt>
      <trkpt lat="47.63169" lon="6.82863">
        <ele>368.540802</ele>
        <time>2011-10-02T09:02:42Z</time>
      </trkpt>
      <trkpt lat="47.63182" lon="6.82843">
        <ele>368.512177</ele>
        <time>2011-10-02T09:02:47Z</time>
      </trkpt>
      <trkpt lat="47.63184" lon="6.82826">
        <ele>368.325714</ele>
        <time>2011-10-02T09:02:51Z</time>
      </trkpt>
      <trkpt lat="47.63189" lon="6.8282">
        <ele>368.192444</ele>
        <time>2011-10-02T09:02:54Z</time>
      </trkpt>
      <trkpt lat="47.63191" lon="6.82822">
        <ele>368.226196</ele>
        <time>2011-10-02T09:02:56Z</time>
      </trkpt>
      <trkpt lat="47.632" lon="6.82813">
        <ele>368.444794</ele>
        <time>2011-10-02T09:03:00Z</time>
      </trkpt>
      <trkpt lat="47.63207" lon="6.82804">
        <ele>368.773682</ele>
        <time>2011-10-02T09:03:02Z</time>
      </trkpt>
      <trkpt lat="47.63242" lon="6.82752">
        <ele>370.179993</ele>
        <time>2011-10-02T09:03:12Z</time>
      </trkpt>
      <trkpt lat="47.63256" lon="6.82729">
        <ele>370.65979</ele>
        <time>2011-10-02T09:03:17Z</time>
      </trkpt>
      <trkpt lat="47.63276" lon="6.82684">
        <ele>370.79776</ele>
        <time>2011-10-02T09:03:24Z</time>
      </trkpt>
      <trkpt lat="47.63279" lon="6.82678">
        <ele>370.792236</ele>
        <time>2011-10-02T09:03:25Z</time>
      </trkpt>
      <trkpt lat="47.63296" lon="6.82623">
        <ele>370.943054</ele>
        <time>2011-10-02T09:03:33Z</time>
      </trkpt>
      <trkpt lat="47.63305" lon="6.82575">
        <ele>371.892334</ele>
        <time>2011-10-02T09:03:40Z</time>
      </trkpt>
      <trkpt lat="47.63308" lon="6.82549">
        <ele>372.337341</ele>
        <time>2011-10-02T09:03:44Z</time>
      </trkpt>
      <trkpt lat="47.63307" lon="6.82522">
        <ele>372.637299</ele>
        <time>2011-10-02T09:03:48Z</time>
      </trkpt>
      <trkpt lat="47.63305" lon="6.82478">
        <ele>373.174591</ele>
        <time>2011-10-02T09:03:55Z</time>
      </trkpt>
      <trkpt lat="47.63305" lon="6.82455">
        <ele>373.614929</ele>
        <time>2011-10-02T09:04:00Z</time>
      </trkpt>
      <trkpt lat="47.63306" lon="6.82446">
        <ele>373.862488</ele>
        <time>2011-10-02T09:04:02Z</time>
      </trkpt>
      <trkpt lat="47.63317" lon="6.82426">
        <ele>374.846313</ele>
        <time>2011-10-02T09:04:07Z</time>
      </trkpt>
      <trkpt lat="47.63325" lon="6.82408">
        <ele>375.050476</ele>
        <time>2011-10-02T09:04:12Z</time>
      </trkpt>
      <trkpt lat="47.6333" lon="6.8239">
        <ele>375.099335</ele>
        <time>2011-10-02T09:04:16Z</time>
      </trkpt>
      <trkpt lat="47.63333" lon="6.82363">
        <ele>374.933655</ele>
        <time>2011-10-02T09:04:20Z</time>
      </trkpt>
      <trkpt lat="47.63339" lon="6.8231">
        <ele>373.170074</ele>
        <time>2011-10-02T09:04:27Z</time>
      </trkpt>
      <trkpt lat="47.63346" lon="6.8224">
        <ele>370.639801</ele>
        <time>2011-10-02T09:04:36Z</time>
      </trkpt>
      <trkpt lat="47.63354" lon="6.82177">
        <ele>370.024506</ele>
        <time>2011-10-02T09:04:43Z</time>
      </trkpt>
      <trkpt lat="47.6336" lon="6.82109">
        <ele>370</ele>
        <time>2011-10-02T09:04:50Z</time>
      </trkpt>
      <trkpt lat="47.63366" lon="6.82055">
        <ele>369.871307</ele>
        <time>2011-10-02T09:04:56Z</time>
      </trkpt>
      <trkpt lat="47.63368" lon="6.81978">
        <ele>369.774994</ele>
        <time>2011-10-02T09:05:05Z</time>
      </trkpt>
      <trkpt lat="47.6336" lon="6.81894">
        <ele>369.998474</ele>
        <time>2011-10-02T09:05:15Z</time>
      </trkpt>
      <trkpt lat="47.63356" lon="6.81878">
        <ele>370.181244</ele>
        <time>2011-10-02T09:05:17Z</time>
      </trkpt>
      <trkpt lat="47.63353" lon="6.81818">
        <ele>371</ele>
        <time>2011-10-02T09:05:24Z</time>
      </trkpt>
      <trkpt lat="47.63354" lon="6.81767">
        <ele>371</ele>
        <time>2011-10-02T09:05:31Z</time>
      </trkpt>
      <trkpt lat="47.63355" lon="6.81694">
        <ele>372.242462</ele>
        <time>2011-10-02T09:05:41Z</time>
      </trkpt>
      <trkpt lat="47.63357" lon="6.81659">
        <ele>374.517517</ele>
        <time>2011-10-02T09:05:46Z</time>
      </trkpt>
      <trkpt lat="47.63353" lon="6.81615">
        <ele>377.352509</ele>
        <time>2011-10-02T09:05:52Z</time>
      </trkpt>
      <trkpt lat="47.63352" lon="6.81586">
        <ele>378.676239</ele>
        <time>2011-10-02T09:05:56Z</time>
      </trkpt>
      <trkpt lat="47.63351" lon="6.81571">
        <ele>379.321259</ele>
        <time>2011-10-02T09:05:58Z</time>
      </trkpt>
      <trkpt lat="47.63348" lon="6.81522">
        <ele>379.687683</ele>
        <time>2011-10-02T09:06:05Z</time>
      </trkpt>
      <trkpt lat="47.63346" lon="6.81463">
        <ele>377.446136</ele>
        <time>2011-10-02T09:06:13Z</time>
      </trkpt>
      <trkpt lat="47.6335" lon="6.81419">
        <ele>374.520081</ele>
        <time>2011-10-02T09:06:19Z</time>
      </trkpt>
      <trkpt lat="47.63343" lon="6.81405">
        <ele>373.603546</ele>
        <time>2011-10-02T09:06:23Z</time>
      </trkpt>
      <trkpt lat="47.63344" lon="6.81393">
        <ele>373.099945</ele>
        <time>2011-10-02T09:06:25Z</time>
      </trkpt>
      <trkpt lat="47.63344" lon="6.81338">
        <ele>371.299713</ele>
        <time>2011-10-02T09:06:31Z</time>
      </trkpt>
      <trkpt lat="47.63342" lon="6.81281">
        <ele>370.992737</ele>
        <time>2011-10-02T09:06:36Z</time>
      </trkpt>
      <trkpt lat="47.63345" lon="6.81196">
        <ele>370.970001</ele>
        <time>2011-10-02T09:06:43Z</time>
      </trkpt>
      <trkpt lat="47.63347" lon="6.8115">
        <ele>370.956238</ele>
        <time>2011-10-02T09:06:48Z</time>
      </trkpt>
      <trkpt lat="47.63349" lon="6.81104">
        <ele>370.902039</ele>
        <time>2011-10-02T09:06:54Z</time>
      </trkpt>
      <trkpt lat="47.63352" lon="6.81047">
        <ele>370.260315</ele>
        <time>2011-10-02T09:07:01Z</time>
      </trkpt>
      <trkpt lat="47.63354" lon="6.81013">
        <ele>369.784271</ele>
        <time>2011-10-02T09:07:05Z</time>
      </trkpt>
      <trkpt lat="47.63344" lon="6.80992">
        <ele>368.648743</ele>
        <time>2011-10-02T09:07:09Z</time>
      </trkpt>
      <trkpt lat="47.63302" lon="6.80973">
        <ele>362.514374</ele>
        <time>2011-10-02T09:07:16Z</time>
      </trkpt>
      <trkpt lat="47.63266" lon="6.80956">
        <ele>359.279877</ele>
        <time>2011-10-02T09:07:22Z</time>
      </trkpt>
      <trkpt lat="47.63236" lon="6.80941">
        <ele>359.637634</ele>
        <time>2011-10-02T09:07:28Z</time>
      </trkpt>
      <trkpt lat="47.63222" lon="6.80922">
        <ele>360.268097</ele>
        <time>2011-10-02T09:07:33Z</time>
      </trkpt>
      <trkpt lat="47.63223" lon="6.80899">
        <ele>360.577118</ele>
        <time>2011-10-02T09:07:37Z</time>
      </trkpt>
      <trkpt lat="47.63224" lon="6.80887">
        <ele>360.706238</ele>
        <time>2011-10-02T09:07:39Z</time>
      </trkpt>
      <trkpt lat="47.6323" lon="6.80843">
        <ele>360.609985</ele>
        <time>2011-10-02T09:07:46Z</time>
      </trkpt>
      <trkpt lat="47.63233" lon="6.80824">
        <ele>360.51001</ele>
        <time>2011-10-02T09:07:49Z</time>
      </trkpt>
      <trkpt lat="47.63237" lon="6.80805">
        <ele>360.469696</ele>
        <time>2011-10-02T09:07:52Z</time>
      </trkpt>
      <trkpt lat="47.63249" lon="6.80755">
        <ele>360.345001</ele>
        <time>2011-10-02T09:08:00Z</time>
      </trkpt>
      <trkpt lat="47.63265" lon="6.80698">
        <ele>360.387695</ele>
        <time>2011-10-02T09:08:09Z</time>
      </trkpt>
      <trkpt lat="47.63274" lon="6.80658">
        <ele>360.377106</ele>
        <time>2011-10-02T09:08:15Z</time>
      </trkpt>
      <trkpt lat="47.63276" lon="6.8065">
        <ele>360.459564</ele>
        <time>2011-10-02T09:08:16Z</time>
      </trkpt>
      <trkpt lat="47.63282" lon="6.80602">
        <ele>360.517914</ele>
        <time>2011-10-02T09:08:22Z</time>
      </trkpt>
      <trkpt lat="47.63283" lon="6.8057">
        <ele>360.105103</ele>
        <time>2011-10-02T09:08:26Z</time>
      </trkpt>
      <trkpt lat="47.63281" lon="6.8051">
        <ele>360.59375</ele>
        <time>2011-10-02T09:08:34Z</time>
      </trkpt>
      <trkpt lat="47.63276" lon="6.8049">
        <ele>360.928986</ele>
        <time>2011-10-02T09:08:37Z</time>
      </trkpt>
      <trkpt lat="47.63263" lon="6.8045">
        <ele>362.197906</ele>
        <time>2011-10-02T09:08:44Z</time>
      </trkpt>
      <trkpt lat="47.63244" lon="6.80396">
        <ele>364.661194</ele>
        <time>2011-10-02T09:08:54Z</time>
      </trkpt>
      <trkpt lat="47.63231" lon="6.80353">
        <ele>366.703735</ele>
        <time>2011-10-02T09:09:02Z</time>
      </trkpt>
      <trkpt lat="47.63221" lon="6.80311">
        <ele>368.539185</ele>
        <time>2011-10-02T09:09:10Z</time>
      </trkpt>
      <trkpt lat="47.63212" lon="6.80268">
        <ele>370.591248</ele>
        <time>2011-10-02T09:09:19Z</time>
      </trkpt>
      <trkpt lat="47.63205" lon="6.80239">
        <ele>371.359985</ele>
        <time>2011-10-02T09:09:25Z</time>
      </trkpt>
      <trkpt lat="47.63197" lon="6.80191">
        <ele>372.253082</ele>
        <time>2011-10-02T09:09:35Z</time>
      </trkpt>
      <trkpt lat="47.63195" lon="6.80164">
        <ele>372.764923</ele>
        <time>2011-10-02T09:09:41Z</time>
      </trkpt>
      <trkpt lat="47.63191" lon="6.80126">
        <ele>373.436768</ele>
        <time>2011-10-02T09:09:49Z</time>
      </trkpt>
      <trkpt lat="47.63185" lon="6.80086">
        <ele>374.240845</ele>
        <time>2011-10-02T09:09:57Z</time>
      </trkpt>
      <trkpt lat="47.63178" lon="6.80062">
        <ele>374.774841</ele>
        <time>2011-10-02T09:10:02Z</time>
      </trkpt>
      <trkpt lat="47.6317" lon="6.80037">
        <ele>375.04541</ele>
        <time>2011-10-02T09:10:07Z</time>
      </trkpt>
      <trkpt lat="47.63154" lon="6.80008">
        <ele>374.80304</ele>
        <time>2011-10-02T09:10:13Z</time>
      </trkpt>
      <trkpt lat="47.6312" lon="6.79964">
        <ele>373.979065</ele>
        <time>2011-10-02T09:10:22Z</time>
      </trkpt>
      <trkpt lat="47.63088" lon="6.79924">
        <ele>373.167511</ele>
        <time>2011-10-02T09:10:30Z</time>
      </trkpt>
      <trkpt lat="47.6308" lon="6.79915">
        <ele>373.02536</ele>
        <time>2011-10-02T09:10:32Z</time>
      </trkpt>
      <trkpt lat="47.63064" lon="6.79898">
        <ele>372.851166</ele>
        <time>2011-10-02T09:10:36Z</time>
      </trkpt>
      <trkpt lat="47.63045" lon="6.79875">
        <ele>372.887512</ele>
        <time>2011-10-02T09:10:41Z</time>
      </trkpt>
      <trkpt lat="47.63012" lon="6.79821">
        <ele>374.752502</ele>
        <time>2011-10-02T09:10:52Z</time>
      </trkpt>
      <trkpt lat="47.62984" lon="6.79774">
        <ele>376.051514</ele>
        <time>2011-10-02T09:11:02Z</time>
      </trkpt>
      <trkpt lat="47.62955" lon="6.79725">
        <ele>376.856415</ele>
        <time>2011-10-02T09:11:13Z</time>
      </trkpt>
      <trkpt lat="47.62927" lon="6.79687">
        <ele>378.562988</ele>
        <time>2011-10-02T09:11:23Z</time>
      </trkpt>
      <trkpt lat="47.62897" lon="6.79654">
        <ele>381.365692</ele>
        <time>2011-10-02T09:11:34Z</time>
      </trkpt>
      <trkpt lat="47.62876" lon="6.79631">
        <ele>382.895111</ele>
        <time>2011-10-02T09:11:42Z</time>
      </trkpt>
      <trkpt lat="47.6285" lon="6.79603">
        <ele>384.756531</ele>
        <time>2011-10-02T09:11:52Z</time>
      </trkpt>
      <trkpt lat="47.62838" lon="6.79593">
        <ele>385.323212</ele>
        <time>2011-10-02T09:11:58Z</time>
      </trkpt>
      <trkpt lat="47.62821" lon="6.79582">
        <ele>385.921021</ele>
        <time>2011-10-02T09:12:06Z</time>
      </trkpt>
      <trkpt lat="47.62817" lon="6.79579">
        <ele>386.045288</ele>
        <time>2011-10-02T09:12:08Z</time>
      </trkpt>
      <trkpt lat="47.6281" lon="6.79573">
        <ele>386.288727</ele>
        <time>2011-10-02T09:12:13Z</time>
      </trkpt>
      <trkpt lat="47.62797" lon="6.79563">
        <ele>386.622375</ele>
        <time>2011-10-02T09:12:20Z</time>
      </trkpt>
      <trkpt lat="47.6279" lon="6.79561">
        <ele>386.748383</ele>
        <time>2011-10-02T09:12:23Z</time>
      </trkpt>
      <trkpt lat="47.62778" lon="6.79548">
        <ele>386.97641</ele>
        <time>2011-10-02T09:12:29Z</time>
      </trkpt>
      <trkpt lat="47.62756" lon="6.79531">
        <ele>387.285767</ele>
        <time>2011-10-02T09:12:39Z</time>
      </trkpt>
      <trkpt lat="47.62737" lon="6.79514">
        <ele>387.763397</ele>
        <time>2011-10-02T09:12:46Z</time>
      </trkpt>
      <trkpt lat="47.62713" lon="6.7949">
        <ele>388.779694</ele>
        <time>2011-10-02T09:12:54Z</time>
      </trkpt>
      <trkpt lat="47.62689" lon="6.79465">
        <ele>389.987274</ele>
        <time>2011-10-02T09:13:02Z</time>
      </trkpt>
      <trkpt lat="47.6266" lon="6.7942">
        <ele>391.064362</ele>
        <time>2011-10-02T09:13:14Z</time>
      </trkpt>
      <trkpt lat="47.62652" lon="6.7941">
        <ele>391.345306</ele>
        <time>2011-10-02T09:13:17Z</time>
      </trkpt>
      <trkpt lat="47.62633" lon="6.79387">
        <ele>390.748749</ele>
        <time>2011-10-02T09:13:22Z</time>
      </trkpt>
      <trkpt lat="47.62592" lon="6.79337">
        <ele>386.962006</ele>
        <time>2011-10-02T09:13:29Z</time>
      </trkpt>
      <trkpt lat="47.62565" lon="6.79297">
        <ele>385.833313</ele>
        <time>2011-10-02T09:13:34Z</time>
      </trkpt>
      <trkpt lat="47.62547" lon="6.79268">
        <ele>385.006836</ele>
        <time>2011-10-02T09:13:38Z</time>
      </trkpt>
      <trkpt lat="47.62523" lon="6.7924">
        <ele>384.859894</ele>
        <time>2011-10-02T09:13:44Z</time>
      </trkpt>
      <trkpt lat="47.6252" lon="6.79237">
        <ele>384.942566</ele>
        <time>2011-10-02T09:13:45Z</time>
      </trkpt>
      <trkpt lat="47.62497" lon="6.79238">
        <ele>384.676575</ele>
        <time>2011-10-02T09:13:50Z</time>
      </trkpt>
      <trkpt lat="47.62473" lon="6.79247">
        <ele>384.453033</ele>
        <time>2011-10-02T09:13:56Z</time>
      </trkpt>
      <trkpt lat="47.62463" lon="6.79254">
        <ele>384.483368</ele>
        <time>2011-10-02T09:14:01Z</time>
      </trkpt>
      <trkpt lat="47.62453" lon="6.79265">
        <ele>384.649261</ele>
        <time>2011-10-02T09:14:06Z</time>
      </trkpt>
      <trkpt lat="47.62443" lon="6.79279">
        <ele>384.957489</ele>
        <time>2011-10-02T09:14:11Z</time>
      </trkpt>
      <trkpt lat="47.62434" lon="6.79291">
        <ele>384.902344</ele>
        <time>2011-10-02T09:14:16Z</time>
      </trkpt>
      <trkpt lat="47.62432" lon="6.79293">
        <ele>384.865112</ele>
        <time>2011-10-02T09:14:17Z</time>
      </trkpt>
      <trkpt lat="47.62418" lon="6.79309">
        <ele>384.13501</ele>
        <time>2011-10-02T09:14:22Z</time>
      </trkpt>
      <trkpt lat="47.62396" lon="6.79331">
        <ele>382.33374</ele>
        <time>2011-10-02T09:14:28Z</time>
      </trkpt>
      <trkpt lat="47.62386" lon="6.79342">
        <ele>381.494995</ele>
        <time>2011-10-02T09:14:30Z</time>
      </trkpt>
      <trkpt lat="47.62365" lon="6.79366">
        <ele>380.248016</ele>
        <time>2011-10-02T09:14:34Z</time>
      </trkpt>
      <trkpt lat="47.62343" lon="6.79375">
        <ele>379.312653</ele>
        <time>2011-10-02T09:14:38Z</time>
      </trkpt>
      <trkpt lat="47.62338" lon="6.79374">
        <ele>379.121246</ele>
        <time>2011-10-02T09:14:39Z</time>
      </trkpt>
      <trkpt lat="47.623" lon="6.79362">
        <ele>378.770081</ele>
        <time>2011-10-02T09:14:46Z</time>
      </trkpt>
      <trkpt lat="47.62276" lon="6.79349">
        <ele>378.77124</ele>
        <time>2011-10-02T09:14:51Z</time>
      </trkpt>
      <trkpt lat="47.62251" lon="6.79334">
        <ele>378.964996</ele>
        <time>2011-10-02T09:14:56Z</time>
      </trkpt>
      <trkpt lat="47.62234" lon="6.79323">
        <ele>379</ele>
        <time>2011-10-02T09:14:59Z</time>
      </trkpt>
      <trkpt lat="47.62198" lon="6.79297">
        <ele>379</ele>
        <time>2011-10-02T09:15:06Z</time>
      </trkpt>
      <trkpt lat="47.62175" lon="6.79279">
        <ele>379</ele>
        <time>2011-10-02T09:15:11Z</time>
      </trkpt>
      <trkpt lat="47.62148" lon="6.7926">
        <ele>379</ele>
        <time>2011-10-02T09:15:17Z</time>
      </trkpt>
      <trkpt lat="47.62142" lon="6.79257">
        <ele>379</ele>
        <time>2011-10-02T09:15:18Z</time>
      </trkpt>
      <trkpt lat="47.62115" lon="6.7924">
        <ele>379</ele>
        <time>2011-10-02T09:15:24Z</time>
      </trkpt>
      <trkpt lat="47.62093" lon="6.79232">
        <ele>379</ele>
        <time>2011-10-02T09:15:29Z</time>
      </trkpt>
      <trkpt lat="47.62051" lon="6.7922">
        <ele>379.154205</ele>
        <time>2011-10-02T09:15:37Z</time>
      </trkpt>
      <trkpt lat="47.62013" lon="6.79201">
        <ele>379.881256</ele>
        <time>2011-10-02T09:15:45Z</time>
      </trkpt>
      <trkpt lat="47.62" lon="6.79193">
        <ele>380.28125</ele>
        <time>2011-10-02T09:15:48Z</time>
      </trkpt>
      <trkpt lat="47.61959" lon="6.79171">
        <ele>380.560699</ele>
        <time>2011-10-02T09:15:57Z</time>
      </trkpt>
      <trkpt lat="47.6193" lon="6.79156">
        <ele>380.116241</ele>
        <time>2011-10-02T09:16:02Z</time>
      </trkpt>
      <trkpt lat="47.61901" lon="6.79141">
        <ele>379.642487</ele>
        <time>2011-10-02T09:16:07Z</time>
      </trkpt>
      <trkpt lat="47.6186" lon="6.7912">
        <ele>379.210785</ele>
        <time>2011-10-02T09:16:14Z</time>
      </trkpt>
      <trkpt lat="47.61827" lon="6.79104">
        <ele>379.052307</ele>
        <time>2011-10-02T09:16:20Z</time>
      </trkpt>
      <trkpt lat="47.6178" lon="6.79078">
        <ele>379.404816</ele>
        <time>2011-10-02T09:16:30Z</time>
      </trkpt>
      <trkpt lat="47.61746" lon="6.7906">
        <ele>379.847504</ele>
        <time>2011-10-02T09:16:38Z</time>
      </trkpt>
      <trkpt lat="47.61722" lon="6.79047">
        <ele>380.223755</ele>
        <time>2011-10-02T09:16:45Z</time>
      </trkpt>
      <trkpt lat="47.6169" lon="6.79029">
        <ele>380.700012</ele>
        <time>2011-10-02T09:16:55Z</time>
      </trkpt>
      <trkpt lat="47.6166" lon="6.7901">
        <ele>381.539856</ele>
        <time>2011-10-02T09:17:05Z</time>
      </trkpt>
      <trkpt lat="47.61637" lon="6.79">
        <ele>382.541321</ele>
        <time>2011-10-02T09:17:13Z</time>
      </trkpt>
      <trkpt lat="47.61618" lon="6.78986">
        <ele>383.289124</ele>
        <time>2011-10-02T09:17:20Z</time>
      </trkpt>
      <trkpt lat="47.61601" lon="6.78954">
        <ele>383.67923</ele>
        <time>2011-10-02T09:17:27Z</time>
      </trkpt>
      <trkpt lat="47.61573" lon="6.78903">
        <ele>383.382965</ele>
        <time>2011-10-02T09:17:36Z</time>
      </trkpt>
      <trkpt lat="47.61552" lon="6.78865">
        <ele>381.917023</ele>
        <time>2011-10-02T09:17:42Z</time>
      </trkpt>
      <trkpt lat="47.61538" lon="6.78822">
        <ele>379.706879</ele>
        <time>2011-10-02T09:17:47Z</time>
      </trkpt>
      <trkpt lat="47.61524" lon="6.78801">
        <ele>378.942993</ele>
        <time>2011-10-02T09:17:51Z</time>
      </trkpt>
      <trkpt lat="47.6152" lon="6.78812">
        <ele>379.298187</ele>
        <time>2011-10-02T09:17:53Z</time>
      </trkpt>
      <trkpt lat="47.61519" lon="6.78825">
        <ele>379.790405</ele>
        <time>2011-10-02T09:17:55Z</time>
      </trkpt>
      <trkpt lat="47.61509" lon="6.78881">
        <ele>381.817505</ele>
        <time>2011-10-02T09:18:04Z</time>
      </trkpt>
      <trkpt lat="47.61499" lon="6.78928">
        <ele>383.788757</ele>
        <time>2011-10-02T09:18:12Z</time>
      </trkpt>
      <trkpt lat="47.61495" lon="6.78954">
        <ele>384.647491</ele>
        <time>2011-10-02T09:18:17Z</time>
      </trkpt>
      <trkpt lat="47.61487" lon="6.78992">
        <ele>385.557495</ele>
        <time>2011-10-02T09:18:24Z</time>
      </trkpt>
      <trkpt lat="47.61479" lon="6.7903">
        <ele>387.383118</ele>
        <time>2011-10-02T09:18:32Z</time>
      </trkpt>
      <trkpt lat="47.61471" lon="6.79058">
        <ele>389.116302</ele>
        <time>2011-10-02T09:18:40Z</time>
      </trkpt>
      <trkpt lat="47.61466" lon="6.79078">
        <ele>390.181519</ele>
        <time>2011-10-02T09:18:46Z</time>
      </trkpt>
      <trkpt lat="47.61459" lon="6.79104">
        <ele>391.508423</ele>
        <time>2011-10-02T09:18:53Z</time>
      </trkpt>
      <trkpt lat="47.61452" lon="6.79138">
        <ele>393.271576</ele>
        <time>2011-10-02T09:19:02Z</time>
      </trkpt>
      <trkpt lat="47.61444" lon="6.79176">
        <ele>394.987061</ele>
        <time>2011-10-02T09:19:12Z</time>
      </trkpt>
      <trkpt lat="47.6144" lon="6.79197">
        <ele>395.970764</ele>
        <time>2011-10-02T09:19:18Z</time>
      </trkpt>
      <trkpt lat="47.61436" lon="6.7924">
        <ele>397.975464</ele>
        <time>2011-10-02T09:19:29Z</time>
      </trkpt>
      <trkpt lat="47.61436" lon="6.79269">
        <ele>399.255646</ele>
        <time>2011-10-02T09:19:37Z</time>
      </trkpt>
      <trkpt lat="47.61442" lon="6.79295">
        <ele>399.912048</ele>
        <time>2011-10-02T09:19:45Z</time>
      </trkpt>
      <trkpt lat="47.61448" lon="6.7932">
        <ele>400.330597</ele>
        <time>2011-10-02T09:19:52Z</time>
      </trkpt>
      <trkpt lat="47.61454" lon="6.79355">
        <ele>400.262665</ele>
        <time>2011-10-02T09:20:01Z</time>
      </trkpt>
      <trkpt lat="47.61452" lon="6.79388">
        <ele>400.548218</ele>
        <time>2011-10-02T09:20:09Z</time>
      </trkpt>
      <trkpt lat="47.61448" lon="6.79431">
        <ele>401.454987</ele>
        <time>2011-10-02T09:20:18Z</time>
      </trkpt>
      <trkpt lat="47.61444" lon="6.7947">
        <ele>402.34964</ele>
        <time>2011-10-02T09:20:26Z</time>
      </trkpt>
      <trkpt lat="47.61438" lon="6.79527">
        <ele>404.272369</ele>
        <time>2011-10-02T09:20:38Z</time>
      </trkpt>
      <trkpt lat="47.61435" lon="6.79567">
        <ele>406.296875</ele>
        <time>2011-10-02T09:20:47Z</time>
      </trkpt>
      <trkpt lat="47.61433" lon="6.79612">
        <ele>408.470001</ele>
        <time>2011-10-02T09:20:57Z</time>
      </trkpt>
      <trkpt lat="47.61431" lon="6.79646">
        <ele>410.111267</ele>
        <time>2011-10-02T09:21:05Z</time>
      </trkpt>
      <trkpt lat="47.61429" lon="6.79678">
        <ele>411.049011</ele>
        <time>2011-10-02T09:21:13Z</time>
      </trkpt>
      <trkpt lat="47.61421" lon="6.79711">
        <ele>411.765839</ele>
        <time>2011-10-02T09:21:21Z</time>
      </trkpt>
      <trkpt lat="47.61409" lon="6.79744">
        <ele>413.191254</ele>
        <time>2011-10-02T09:21:30Z</time>
      </trkpt>
      <trkpt lat="47.61399" lon="6.79765">
        <ele>414.537506</ele>
        <time>2011-10-02T09:21:38Z</time>
      </trkpt>
      <trkpt lat="47.61389" lon="6.79788">
        <ele>415.737488</ele>
        <time>2011-10-02T09:21:46Z</time>
      </trkpt>
      <trkpt lat="47.61381" lon="6.79822">
        <ele>416.125824</ele>
        <time>2011-10-02T09:21:54Z</time>
      </trkpt>
      <trkpt lat="47.61374" lon="6.79849">
        <ele>416.909363</ele>
        <time>2011-10-02T09:22:00Z</time>
      </trkpt>
      <trkpt lat="47.61368" lon="6.7987">
        <ele>417.036621</ele>
        <time>2011-10-02T09:22:05Z</time>
      </trkpt>
      <trkpt lat="47.61363" lon="6.79888">
        <ele>416.529236</ele>
        <time>2011-10-02T09:22:10Z</time>
      </trkpt>
      <trkpt lat="47.61351" lon="6.79909">
        <ele>416.190613</ele>
        <time>2011-10-02T09:22:15Z</time>
      </trkpt>
      <trkpt lat="47.61345" lon="6.79925">
        <ele>415.754517</ele>
        <time>2011-10-02T09:22:18Z</time>
      </trkpt>
      <trkpt lat="47.61324" lon="6.79968">
        <ele>416.140625</ele>
        <time>2011-10-02T09:22:23Z</time>
      </trkpt>
      <trkpt lat="47.61299" lon="6.80006">
        <ele>416.872498</ele>
        <time>2011-10-02T09:22:29Z</time>
      </trkpt>
      <trkpt lat="47.61292" lon="6.80014">
        <ele>417.206238</ele>
        <time>2011-10-02T09:22:31Z</time>
      </trkpt>
      <trkpt lat="47.61275" lon="6.80028">
        <ele>418.019989</ele>
        <time>2011-10-02T09:22:35Z</time>
      </trkpt>
      <trkpt lat="47.61265" lon="6.8004">
        <ele>418.295074</ele>
        <time>2011-10-02T09:22:38Z</time>
      </trkpt>
      <trkpt lat="47.61241" lon="6.80063">
        <ele>417.866241</ele>
        <time>2011-10-02T09:22:44Z</time>
      </trkpt>
      <trkpt lat="47.61209" lon="6.80102">
        <ele>416.938782</ele>
        <time>2011-10-02T09:22:52Z</time>
      </trkpt>
      <trkpt lat="47.61202" lon="6.80111">
        <ele>416.829987</ele>
        <time>2011-10-02T09:22:54Z</time>
      </trkpt>
      <trkpt lat="47.61187" lon="6.80134">
        <ele>416.394989</ele>
        <time>2011-10-02T09:23:00Z</time>
      </trkpt>
      <trkpt lat="47.61176" lon="6.80152">
        <ele>415.96875</ele>
        <time>2011-10-02T09:23:05Z</time>
      </trkpt>
      <trkpt lat="47.61161" lon="6.80176">
        <ele>415.771454</ele>
        <time>2011-10-02T09:23:11Z</time>
      </trkpt>
      <trkpt lat="47.6115" lon="6.80196">
        <ele>415.510406</ele>
        <time>2011-10-02T09:23:16Z</time>
      </trkpt>
      <trkpt lat="47.61143" lon="6.8021">
        <ele>415.067352</ele>
        <time>2011-10-02T09:23:20Z</time>
      </trkpt>
      <trkpt lat="47.61129" lon="6.8023">
        <ele>414.356201</ele>
        <time>2011-10-02T09:23:26Z</time>
      </trkpt>
      <trkpt lat="47.61114" lon="6.80244">
        <ele>414.25</ele>
        <time>2011-10-02T09:23:31Z</time>
      </trkpt>
      <trkpt lat="47.61097" lon="6.80262">
        <ele>413.848755</ele>
        <time>2011-10-02T09:23:36Z</time>
      </trkpt>
      <trkpt lat="47.61084" lon="6.80277">
        <ele>413.528748</ele>
        <time>2011-10-02T09:23:39Z</time>
      </trkpt>
      <trkpt lat="47.61053" lon="6.80313">
        <ele>412.116974</ele>
        <time>2011-10-02T09:23:47Z</time>
      </trkpt>
      <trkpt lat="47.61034" lon="6.80337">
        <ele>410.595642</ele>
        <time>2011-10-02T09:23:52Z</time>
      </trkpt>
      <trkpt lat="47.60994" lon="6.80374">
        <ele>407.169189</ele>
        <time>2011-10-02T09:23:58Z</time>
      </trkpt>
      <trkpt lat="47.6095" lon="6.80413">
        <ele>404.381134</ele>
        <time>2011-10-02T09:24:05Z</time>
      </trkpt>
      <trkpt lat="47.60911" lon="6.80449">
        <ele>400.86969</ele>
        <time>2011-10-02T09:24:11Z</time>
      </trkpt>
      <trkpt lat="47.60885" lon="6.80482">
        <ele>396.712769</ele>
        <time>2011-10-02T09:24:16Z</time>
      </trkpt>
      <trkpt lat="47.60865" lon="6.80503">
        <ele>393.585571</ele>
        <time>2011-10-02T09:24:21Z</time>
      </trkpt>
      <trkpt lat="47.60837" lon="6.80532">
        <ele>389.340027</ele>
        <time>2011-10-02T09:24:28Z</time>
      </trkpt>
      <trkpt lat="47.60828" lon="6.80544">
        <ele>387.992981</ele>
        <time>2011-10-02T09:24:31Z</time>
      </trkpt>
      <trkpt lat="47.60824" lon="6.80577">
        <ele>385.199768</ele>
        <time>2011-10-02T09:24:35Z</time>
      </trkpt>
      <trkpt lat="47.60802" lon="6.80622">
        <ele>381.921997</ele>
        <time>2011-10-02T09:24:40Z</time>
      </trkpt>
      <trkpt lat="47.60795" lon="6.80628">
        <ele>381.391602</ele>
        <time>2011-10-02T09:24:41Z</time>
      </trkpt>
      <trkpt lat="47.60757" lon="6.80649">
        <ele>379.096191</ele>
        <time>2011-10-02T09:24:45Z</time>
      </trkpt>
      <trkpt lat="47.60735" lon="6.8067">
        <ele>377.987091</ele>
        <time>2011-10-02T09:24:48Z</time>
      </trkpt>
      <trkpt lat="47.60726" lon="6.807">
        <ele>377.547607</ele>
        <time>2011-10-02T09:24:52Z</time>
      </trkpt>
      <trkpt lat="47.60715" lon="6.80708">
        <ele>377.711395</ele>
        <time>2011-10-02T09:24:55Z</time>
      </trkpt>
      <trkpt lat="47.60679" lon="6.8072">
        <ele>380.014374</ele>
        <time>2011-10-02T09:25:04Z</time>
      </trkpt>
      <trkpt lat="47.60667" lon="6.80739">
        <ele>381.215302</ele>
        <time>2011-10-02T09:25:09Z</time>
      </trkpt>
      <trkpt lat="47.60655" lon="6.80773">
        <ele>382.23999</ele>
        <time>2011-10-02T09:25:16Z</time>
      </trkpt>
      <trkpt lat="47.60645" lon="6.80794">
        <ele>383.470001</ele>
        <time>2011-10-02T09:25:22Z</time>
      </trkpt>
      <trkpt lat="47.60632" lon="6.80816">
        <ele>385.089996</ele>
        <time>2011-10-02T09:25:29Z</time>
      </trkpt>
      <trkpt lat="47.60618" lon="6.80837">
        <ele>386.890015</ele>
        <time>2011-10-02T09:25:36Z</time>
      </trkpt>
      <trkpt lat="47.60593" lon="6.80856">
        <ele>389.427551</ele>
        <time>2011-10-02T09:25:45Z</time>
      </trkpt>
      <trkpt lat="47.60568" lon="6.80874">
        <ele>391.265015</ele>
        <time>2011-10-02T09:25:54Z</time>
      </trkpt>
      <trkpt lat="47.6055" lon="6.80882">
        <ele>392.068237</ele>
        <time>2011-10-02T09:26:01Z</time>
      </trkpt>
      <trkpt lat="47.60541" lon="6.80881">
        <ele>392.394775</ele>
        <time>2011-10-02T09:26:06Z</time>
      </trkpt>
      <trkpt lat="47.6054" lon="6.80881">
        <ele>392.444397</ele>
        <time>2011-10-02T09:26:07Z</time>
      </trkpt>
      <trkpt lat="47.60536" lon="6.80885">
        <ele>392.433472</ele>
        <time>2011-10-02T09:26:12Z</time>
      </trkpt>
      <trkpt lat="47.60532" lon="6.80883">
        <ele>392.637299</ele>
        <time>2011-10-02T09:26:44Z</time>
      </trkpt>
      <trkpt lat="47.60532" lon="6.80882">
        <ele>392.703857</ele>
        <time>2011-10-02T09:27:02Z</time>
      </trkpt>
      <trkpt lat="47.60531" lon="6.80888">
        <ele>392.416046</ele>
        <time>2011-10-02T09:27:36Z</time>
      </trkpt>
      <trkpt lat="47.60532" lon="6.80885">
        <ele>392.523712</ele>
        <time>2011-10-02T09:27:58Z</time>
      </trkpt>
      <trkpt lat="47.60533" lon="6.80886">
        <ele>392.482391</ele>
        <time>2011-10-02T09:28:24Z</time>
      </trkpt>
      <trkpt lat="47.60533" lon="6.80885">
        <ele>392.522949</ele>
        <time>2011-10-02T09:28:45Z</time>
      </trkpt>
      <trkpt lat="47.60533" lon="6.80885">
        <ele>392.507843</ele>
        <time>2011-10-02T09:28:58Z</time>
      </trkpt>
      <trkpt lat="47.60528" lon="6.80884">
        <ele>392.733612</ele>
        <time>2011-10-02T09:29:53Z</time>
      </trkpt>
      <trkpt lat="47.60529" lon="6.80884">
        <ele>392.706238</ele>
        <time>2011-10-02T09:30:33Z</time>
      </trkpt>
      <trkpt lat="47.60528" lon="6.80887">
        <ele>392.559052</ele>
        <time>2011-10-02T09:30:51Z</time>
      </trkpt>
      <trkpt lat="47.60533" lon="6.80886">
        <ele>392.452759</ele>
        <time>2011-10-02T09:31:02Z</time>
      </trkpt>
      <trkpt lat="47.6053" lon="6.80895">
        <ele>392.136139</ele>
        <time>2011-10-02T09:31:07Z</time>
      </trkpt>
      <trkpt lat="47.60525" lon="6.80906">
        <ele>391.628723</ele>
        <time>2011-10-02T09:31:13Z</time>
      </trkpt>
      <trkpt lat="47.60517" lon="6.8092">
        <ele>390.731537</ele>
        <time>2011-10-02T09:31:19Z</time>
      </trkpt>
      <trkpt lat="47.60508" lon="6.80934">
        <ele>389.399506</ele>
        <time>2011-10-02T09:31:26Z</time>
      </trkpt>
      <trkpt lat="47.60504" lon="6.8094">
        <ele>388.827057</ele>
        <time>2011-10-02T09:31:30Z</time>
      </trkpt>
      <trkpt lat="47.60502" lon="6.80943">
        <ele>388.522919</ele>
        <time>2011-10-02T09:31:32Z</time>
      </trkpt>
      <trkpt lat="47.60487" lon="6.80955">
        <ele>387.674744</ele>
        <time>2011-10-02T09:31:41Z</time>
      </trkpt>
      <trkpt lat="47.60475" lon="6.80965">
        <ele>386.791107</ele>
        <time>2011-10-02T09:31:47Z</time>
      </trkpt>
      <trkpt lat="47.60463" lon="6.80976">
        <ele>385.944366</ele>
        <time>2011-10-02T09:31:52Z</time>
      </trkpt>
      <trkpt lat="47.60446" lon="6.80987">
        <ele>385.779755</ele>
        <time>2011-10-02T09:31:56Z</time>
      </trkpt>
      <trkpt lat="47.6044" lon="6.80991">
        <ele>385.943695</ele>
        <time>2011-10-02T09:31:57Z</time>
      </trkpt>
      <trkpt lat="47.60419" lon="6.81006">
        <ele>386.645386</ele>
        <time>2011-10-02T09:32:02Z</time>
      </trkpt>
      <trkpt lat="47.60401" lon="6.81029">
        <ele>387.769135</ele>
        <time>2011-10-02T09:32:07Z</time>
      </trkpt>
      <trkpt lat="47.60398" lon="6.81059">
        <ele>387.125153</ele>
        <time>2011-10-02T09:32:11Z</time>
      </trkpt>
      <trkpt lat="47.60398" lon="6.81116">
        <ele>385.415863</ele>
        <time>2011-10-02T09:32:18Z</time>
      </trkpt>
      <trkpt lat="47.60391" lon="6.81155">
        <ele>383.928009</ele>
        <time>2011-10-02T09:32:23Z</time>
      </trkpt>
      <trkpt lat="47.60379" lon="6.81179">
        <ele>384.655426</ele>
        <time>2011-10-02T09:32:27Z</time>
      </trkpt>
      <trkpt lat="47.60357" lon="6.81207">
        <ele>384.934753</ele>
        <time>2011-10-02T09:32:32Z</time>
      </trkpt>
      <trkpt lat="47.60339" lon="6.81224">
        <ele>384.78714</ele>
        <time>2011-10-02T09:32:36Z</time>
      </trkpt>
      <trkpt lat="47.60334" lon="6.81227">
        <ele>384.836639</ele>
        <time>2011-10-02T09:32:37Z</time>
      </trkpt>
      <trkpt lat="47.60301" lon="6.8124">
        <ele>385.672485</ele>
        <time>2011-10-02T09:32:43Z</time>
      </trkpt>
      <trkpt lat="47.60261" lon="6.81255">
        <ele>385.8703</ele>
        <time>2011-10-02T09:32:50Z</time>
      </trkpt>
      <trkpt lat="47.60219" lon="6.81271">
        <ele>384.298645</ele>
        <time>2011-10-02T09:32:57Z</time>
      </trkpt>
      <trkpt lat="47.60197" lon="6.8128">
        <ele>382.905701</ele>
        <time>2011-10-02T09:33:01Z</time>
      </trkpt>
      <trkpt lat="47.60164" lon="6.81291">
        <ele>381.380005</ele>
        <time>2011-10-02T09:33:08Z</time>
      </trkpt>
      <trkpt lat="47.60139" lon="6.81301">
        <ele>380.850006</ele>
        <time>2011-10-02T09:33:14Z</time>
      </trkpt>
      <trkpt lat="47.60114" lon="6.81309">
        <ele>381.783752</ele>
        <time>2011-10-02T09:33:20Z</time>
      </trkpt>
      <trkpt lat="47.60085" lon="6.81318">
        <ele>382.643433</ele>
        <time>2011-10-02T09:33:26Z</time>
      </trkpt>
      <trkpt lat="47.60067" lon="6.81313">
        <ele>383.125763</ele>
        <time>2011-10-02T09:33:30Z</time>
      </trkpt>
      <trkpt lat="47.60047" lon="6.81295">
        <ele>384.091156</ele>
        <time>2011-10-02T09:33:34Z</time>
      </trkpt>
      <trkpt lat="47.60035" lon="6.81272">
        <ele>384.668488</ele>
        <time>2011-10-02T09:33:38Z</time>
      </trkpt>
      <trkpt lat="47.60034" lon="6.81258">
        <ele>384.819397</ele>
        <time>2011-10-02T09:33:40Z</time>
      </trkpt>
      <trkpt lat="47.60034" lon="6.81243">
        <ele>384.996857</ele>
        <time>2011-10-02T09:33:42Z</time>
      </trkpt>
      <trkpt lat="47.60027" lon="6.81206">
        <ele>385.609985</ele>
        <time>2011-10-02T09:33:48Z</time>
      </trkpt>
      <trkpt lat="47.60021" lon="6.81188">
        <ele>385.755005</ele>
        <time>2011-10-02T09:33:52Z</time>
      </trkpt>
      <trkpt lat="47.60018" lon="6.81182">
        <ele>385.820007</ele>
        <time>2011-10-02T09:33:54Z</time>
      </trkpt>
      <trkpt lat="47.60016" lon="6.81169">
        <ele>385.880005</ele>
        <time>2011-10-02T09:33:58Z</time>
      </trkpt>
      <trkpt lat="47.6001" lon="6.81147">
        <ele>385.991486</ele>
        <time>2011-10-02T09:34:05Z</time>
      </trkpt>
      <trkpt lat="47.60005" lon="6.81128">
        <ele>386.032928</ele>
        <time>2011-10-02T09:34:09Z</time>
      </trkpt>
      <trkpt lat="47.59993" lon="6.81076">
        <ele>386.462585</ele>
        <time>2011-10-02T09:34:18Z</time>
      </trkpt>
      <trkpt lat="47.59984" lon="6.81032">
        <ele>387.169067</ele>
        <time>2011-10-02T09:34:26Z</time>
      </trkpt>
      <trkpt lat="47.59973" lon="6.80975">
        <ele>388.014587</ele>
        <time>2011-10-02T09:34:36Z</time>
      </trkpt>
      <trkpt lat="47.59969" lon="6.80924">
        <ele>388.125763</ele>
        <time>2011-10-02T09:34:44Z</time>
      </trkpt>
      <trkpt lat="47.59959" lon="6.80883">
        <ele>388.2836</ele>
        <time>2011-10-02T09:34:51Z</time>
      </trkpt>
      <trkpt lat="47.59949" lon="6.80836">
        <ele>389.01001</ele>
        <time>2011-10-02T09:34:59Z</time>
      </trkpt>
      <trkpt lat="47.59946" lon="6.80823">
        <ele>389.174988</ele>
        <time>2011-10-02T09:35:01Z</time>
      </trkpt>
      <trkpt lat="47.59946" lon="6.80797">
        <ele>389.373932</ele>
        <time>2011-10-02T09:35:05Z</time>
      </trkpt>
      <trkpt lat="47.59955" lon="6.80776">
        <ele>389.320435</ele>
        <time>2011-10-02T09:35:09Z</time>
      </trkpt>
      <trkpt lat="47.59969" lon="6.80745">
        <ele>389.421631</ele>
        <time>2011-10-02T09:35:16Z</time>
      </trkpt>
      <trkpt lat="47.59968" lon="6.80733">
        <ele>390.311615</ele>
        <time>2011-10-02T09:35:19Z</time>
      </trkpt>
      <trkpt lat="47.5997" lon="6.80708">
        <ele>393.3237</ele>
        <time>2011-10-02T09:35:27Z</time>
      </trkpt>
      <trkpt lat="47.5997" lon="6.8069">
        <ele>395.570587</ele>
        <time>2011-10-02T09:35:33Z</time>
      </trkpt>
      <trkpt lat="47.59963" lon="6.8067">
        <ele>397.245239</ele>
        <time>2011-10-02T09:35:39Z</time>
      </trkpt>
      <trkpt lat="47.59948" lon="6.8066">
        <ele>396.856812</ele>
        <time>2011-10-02T09:35:44Z</time>
      </trkpt>
      <trkpt lat="47.59934" lon="6.80664">
        <ele>395.219238</ele>
        <time>2011-10-02T09:35:48Z</time>
      </trkpt>
      <trkpt lat="47.5993" lon="6.8068">
        <ele>393.979675</ele>
        <time>2011-10-02T09:35:52Z</time>
      </trkpt>
      <trkpt lat="47.59925" lon="6.80688">
        <ele>393.46283</ele>
        <time>2011-10-02T09:35:54Z</time>
      </trkpt>
      <trkpt lat="47.59907" lon="6.8071">
        <ele>392.365509</ele>
        <time>2011-10-02T09:36:00Z</time>
      </trkpt>
      <trkpt lat="47.59902" lon="6.80719">
        <ele>392.118042</ele>
        <time>2011-10-02T09:36:02Z</time>
      </trkpt>
      <trkpt lat="47.59882" lon="6.80737">
        <ele>391.678741</ele>
        <time>2011-10-02T09:36:07Z</time>
      </trkpt>
      <trkpt lat="47.59848" lon="6.80746">
        <ele>390.758759</ele>
        <time>2011-10-02T09:36:14Z</time>
      </trkpt>
      <trkpt lat="47.59795" lon="6.80759">
        <ele>388.135468</ele>
        <time>2011-10-02T09:36:24Z</time>
      </trkpt>
      <trkpt lat="47.59752" lon="6.80767">
        <ele>385.910004</ele>
        <time>2011-10-02T09:36:31Z</time>
      </trkpt>
      <trkpt lat="47.59745" lon="6.80767">
        <ele>385.75</ele>
        <time>2011-10-02T09:36:32Z</time>
      </trkpt>
      <trkpt lat="47.59712" lon="6.80747">
        <ele>385</ele>
        <time>2011-10-02T09:36:37Z</time>
      </trkpt>
      <trkpt lat="47.59704" lon="6.8073">
        <ele>384.809998</ele>
        <time>2011-10-02T09:36:39Z</time>
      </trkpt>
      <trkpt lat="47.59687" lon="6.80667">
        <ele>384.38501</ele>
        <time>2011-10-02T09:36:46Z</time>
      </trkpt>
      <trkpt lat="47.59677" lon="6.80608">
        <ele>384.105011</ele>
        <time>2011-10-02T09:36:52Z</time>
      </trkpt>
      <trkpt lat="47.59675" lon="6.80577">
        <ele>384.045013</ele>
        <time>2011-10-02T09:36:55Z</time>
      </trkpt>
      <trkpt lat="47.59667" lon="6.80552">
        <ele>383.839996</ele>
        <time>2011-10-02T09:36:58Z</time>
      </trkpt>
      <trkpt lat="47.59649" lon="6.80543">
        <ele>383.420013</ele>
        <time>2011-10-02T09:37:01Z</time>
      </trkpt>
      <trkpt lat="47.59636" lon="6.8055">
        <ele>383.144989</ele>
        <time>2011-10-02T09:37:03Z</time>
      </trkpt>
      <trkpt lat="47.59586" lon="6.80598">
        <ele>383</ele>
        <time>2011-10-02T09:37:12Z</time>
      </trkpt>
      <trkpt lat="47.5955" lon="6.80642">
        <ele>382.946899</ele>
        <time>2011-10-02T09:37:19Z</time>
      </trkpt>
      <trkpt lat="47.59521" lon="6.80695">
        <ele>381.53125</ele>
        <time>2011-10-02T09:37:25Z</time>
      </trkpt>
      <trkpt lat="47.59508" lon="6.80711">
        <ele>380.527252</ele>
        <time>2011-10-02T09:37:27Z</time>
      </trkpt>
      <trkpt lat="47.59478" lon="6.80734">
        <ele>377.723755</ele>
        <time>2011-10-02T09:37:31Z</time>
      </trkpt>
      <trkpt lat="47.59455" lon="6.80745">
        <ele>375.676239</ele>
        <time>2011-10-02T09:37:34Z</time>
      </trkpt>
      <trkpt lat="47.59432" lon="6.80773">
        <ele>372.277008</ele>
        <time>2011-10-02T09:37:38Z</time>
      </trkpt>
      <trkpt lat="47.59424" lon="6.80796">
        <ele>370.036224</ele>
        <time>2011-10-02T09:37:40Z</time>
      </trkpt>
      <trkpt lat="47.59409" lon="6.80882">
        <ele>365.989014</ele>
        <time>2011-10-02T09:37:46Z</time>
      </trkpt>
      <trkpt lat="47.59402" lon="6.80959">
        <ele>363.222382</ele>
        <time>2011-10-02T09:37:51Z</time>
      </trkpt>
      <trkpt lat="47.59389" lon="6.81067">
        <ele>359.475159</ele>
        <time>2011-10-02T09:37:58Z</time>
      </trkpt>
      <trkpt lat="47.59374" lon="6.81152">
        <ele>357.057648</ele>
        <time>2011-10-02T09:38:04Z</time>
      </trkpt>
      <trkpt lat="47.59347" lon="6.81218">
        <ele>356.008759</ele>
        <time>2011-10-02T09:38:10Z</time>
      </trkpt>
      <trkpt lat="47.59318" lon="6.81273">
        <ele>355.4375</ele>
        <time>2011-10-02T09:38:16Z</time>
      </trkpt>
      <trkpt lat="47.59284" lon="6.8134">
        <ele>355.98999</ele>
        <time>2011-10-02T09:38:24Z</time>
      </trkpt>
      <trkpt lat="47.5928" lon="6.81348">
        <ele>356.149994</ele>
        <time>2011-10-02T09:38:25Z</time>
      </trkpt>
      <trkpt lat="47.59266" lon="6.81393">
        <ele>356.690002</ele>
        <time>2011-10-02T09:38:31Z</time>
      </trkpt>
      <trkpt lat="47.59257" lon="6.8142">
        <ele>357.229523</ele>
        <time>2011-10-02T09:38:35Z</time>
      </trkpt>
      <trkpt lat="47.59241" lon="6.81429">
        <ele>358.266357</ele>
        <time>2011-10-02T09:38:39Z</time>
      </trkpt>
      <trkpt lat="47.59236" lon="6.81427">
        <ele>358.469452</ele>
        <time>2011-10-02T09:38:40Z</time>
      </trkpt>
      <trkpt lat="47.59216" lon="6.81421">
        <ele>359.784241</ele>
        <time>2011-10-02T09:38:44Z</time>
      </trkpt>
      <trkpt lat="47.59198" lon="6.81433">
        <ele>361.63678</ele>
        <time>2011-10-02T09:38:48Z</time>
      </trkpt>
      <trkpt lat="47.59192" lon="6.81455">
        <ele>362.987915</ele>
        <time>2011-10-02T09:38:51Z</time>
      </trkpt>
      <trkpt lat="47.59197" lon="6.81483">
        <ele>363.587677</ele>
        <time>2011-10-02T09:38:55Z</time>
      </trkpt>
      <trkpt lat="47.59201" lon="6.81496">
        <ele>363.610748</ele>
        <time>2011-10-02T09:38:57Z</time>
      </trkpt>
      <trkpt lat="47.59205" lon="6.81509">
        <ele>363.725281</ele>
        <time>2011-10-02T09:38:59Z</time>
      </trkpt>
      <trkpt lat="47.59201" lon="6.81542">
        <ele>364.980682</ele>
        <time>2011-10-02T09:39:05Z</time>
      </trkpt>
      <trkpt lat="47.59192" lon="6.81541">
        <ele>365.550812</ele>
        <time>2011-10-02T09:39:08Z</time>
      </trkpt>
      <trkpt lat="47.59185" lon="6.81531">
        <ele>365.778992</ele>
        <time>2011-10-02T09:39:13Z</time>
      </trkpt>
      <trkpt lat="47.59184" lon="6.8153">
        <ele>365.715637</ele>
        <time>2011-10-02T09:39:14Z</time>
      </trkpt>
      <trkpt lat="47.5918" lon="6.81521">
        <ele>365.458282</ele>
        <time>2011-10-02T09:39:20Z</time>
      </trkpt>
      <trkpt lat="47.59175" lon="6.81518">
        <ele>365.395355</ele>
        <time>2011-10-02T09:39:25Z</time>
      </trkpt>
      <trkpt lat="47.59172" lon="6.81514">
        <ele>365.32901</ele>
        <time>2011-10-02T09:39:29Z</time>
      </trkpt>
      <trkpt lat="47.59168" lon="6.81514">
        <ele>365.333923</ele>
        <time>2011-10-02T09:39:36Z</time>
      </trkpt>
      <trkpt lat="47.59168" lon="6.81514">
        <ele>365.334869</ele>
        <time>2011-10-02T09:39:38Z</time>
      </trkpt>
      <trkpt lat="47.59166" lon="6.81515">
        <ele>365.344971</ele>
        <time>2011-10-02T09:39:44Z</time>
      </trkpt>
      <trkpt lat="47.59168" lon="6.81516">
        <ele>365.351898</ele>
        <time>2011-10-02T09:40:04Z</time>
      </trkpt>
      <trkpt lat="47.59169" lon="6.81517">
        <ele>365.359467</ele>
        <time>2011-10-02T09:40:22Z</time>
      </trkpt>
      <trkpt lat="47.59168" lon="6.81515">
        <ele>365.346222</ele>
        <time>2011-10-02T09:41:09Z</time>
      </trkpt>
      <trkpt lat="47.59167" lon="6.81515">
        <ele>365.34433</ele>
        <time>2011-10-02T09:41:29Z</time>
      </trkpt>
      <trkpt lat="47.59169" lon="6.81515">
        <ele>365.346008</ele>
        <time>2011-10-02T09:42:15Z</time>
      </trkpt>
      <trkpt lat="47.59168" lon="6.81517">
        <ele>365.36441</ele>
        <time>2011-10-02T09:42:42Z</time>
      </trkpt>
      <trkpt lat="47.5917" lon="6.81517">
        <ele>365.366302</ele>
        <time>2011-10-02T09:43:03Z</time>
      </trkpt>
      <trkpt lat="47.59171" lon="6.81516">
        <ele>365.353424</ele>
        <time>2011-10-02T09:43:17Z</time>
      </trkpt>
      <trkpt lat="47.5917" lon="6.81518">
        <ele>365.385864</ele>
        <time>2011-10-02T09:46:36Z</time>
      </trkpt>
      <trkpt lat="47.5917" lon="6.81518">
        <ele>365.378204</ele>
        <time>2011-10-02T09:47:08Z</time>
      </trkpt>
      <trkpt lat="47.59169" lon="6.81516">
        <ele>365.358002</ele>
        <time>2011-10-02T09:47:53Z</time>
      </trkpt>
      <trkpt lat="47.59167" lon="6.81515">
        <ele>365.337463</ele>
        <time>2011-10-02T09:47:58Z</time>
      </trkpt>
      <trkpt lat="47.59167" lon="6.81515">
        <ele>365.336517</ele>
        <time>2011-10-02T09:48:01Z</time>
      </trkpt>
      <trkpt lat="47.59167" lon="6.81515">
        <ele>365.337402</ele>
        <time>2011-10-02T09:48:02Z</time>
      </trkpt>
      <trkpt lat="47.59167" lon="6.81514">
        <ele>365.336365</ele>
        <time>2011-10-02T09:48:07Z</time>
      </trkpt>
      <trkpt lat="47.59167" lon="6.81514">
        <ele>365.334747</ele>
        <time>2011-10-02T09:48:17Z</time>
      </trkpt>
      <trkpt lat="47.59168" lon="6.81516">
        <ele>365.347839</ele>
        <time>2011-10-02T09:48:35Z</time>
      </trkpt>
      <trkpt lat="47.59169" lon="6.81517">
        <ele>365.364136</ele>
        <time>2011-10-02T09:48:41Z</time>
      </trkpt>
      <trkpt lat="47.5917" lon="6.81517">
        <ele>365.360107</ele>
        <time>2011-10-02T09:49:03Z</time>
      </trkpt>
      <trkpt lat="47.5917" lon="6.81516">
        <ele>365.355225</ele>
        <time>2011-10-02T09:49:20Z</time>
      </trkpt>
      <trkpt lat="47.59172" lon="6.81517">
        <ele>365.365265</ele>
        <time>2011-10-02T09:49:33Z</time>
      </trkpt>
      <trkpt lat="47.59175" lon="6.81518">
        <ele>365.38855</ele>
        <time>2011-10-02T09:49:36Z</time>
      </trkpt>
      <trkpt lat="47.59185" lon="6.81532">
        <ele>365.794525</ele>
        <time>2011-10-02T09:49:44Z</time>
      </trkpt>
      <trkpt lat="47.59192" lon="6.81546">
        <ele>365.55661</ele>
        <time>2011-10-02T09:49:49Z</time>
      </trkpt>
      <trkpt lat="47.59189" lon="6.81553">
        <ele>365.605286</ele>
        <time>2011-10-02T09:49:51Z</time>
      </trkpt>
      <trkpt lat="47.59176" lon="6.81577">
        <ele>364.910004</ele>
        <time>2011-10-02T09:49:58Z</time>
      </trkpt>
      <trkpt lat="47.5917" lon="6.81602">
        <ele>363.872711</ele>
        <time>2011-10-02T09:50:05Z</time>
      </trkpt>
      <trkpt lat="47.59171" lon="6.81633">
        <ele>362.915436</ele>
        <time>2011-10-02T09:50:11Z</time>
      </trkpt>
      <trkpt lat="47.59163" lon="6.81665">
        <ele>361.332001</ele>
        <time>2011-10-02T09:50:16Z</time>
      </trkpt>
      <trkpt lat="47.59156" lon="6.81675">
        <ele>360.781677</ele>
        <time>2011-10-02T09:50:18Z</time>
      </trkpt>
      <trkpt lat="47.59134" lon="6.81704">
        <ele>359.448761</ele>
        <time>2011-10-02T09:50:25Z</time>
      </trkpt>
      <trkpt lat="47.59119" lon="6.81726">
        <ele>359.385437</ele>
        <time>2011-10-02T09:50:31Z</time>
      </trkpt>
      <trkpt lat="47.59102" lon="6.81755">
        <ele>359.923065</ele>
        <time>2011-10-02T09:50:39Z</time>
      </trkpt>
      <trkpt lat="47.59093" lon="6.81785">
        <ele>360.567841</ele>
        <time>2011-10-02T09:50:46Z</time>
      </trkpt>
      <trkpt lat="47.59094" lon="6.81816">
        <ele>361.432983</ele>
        <time>2011-10-02T09:50:52Z</time>
      </trkpt>
      <trkpt lat="47.59094" lon="6.81856">
        <ele>362.980469</ele>
        <time>2011-10-02T09:51:00Z</time>
      </trkpt>
      <trkpt lat="47.59091" lon="6.81876">
        <ele>364.020477</ele>
        <time>2011-10-02T09:51:05Z</time>
      </trkpt>
      <trkpt lat="47.59083" lon="6.81893">
        <ele>365.294769</ele>
        <time>2011-10-02T09:51:11Z</time>
      </trkpt>
      <trkpt lat="47.59074" lon="6.81914">
        <ele>366.99054</ele>
        <time>2011-10-02T09:51:18Z</time>
      </trkpt>
      <trkpt lat="47.59064" lon="6.81935">
        <ele>369.001251</ele>
        <time>2011-10-02T09:51:26Z</time>
      </trkpt>
      <trkpt lat="47.59054" lon="6.81956">
        <ele>371.492493</ele>
        <time>2011-10-02T09:51:35Z</time>
      </trkpt>
      <trkpt lat="47.59045" lon="6.81966">
        <ele>373.024994</ele>
        <time>2011-10-02T09:51:41Z</time>
      </trkpt>
      <trkpt lat="47.59036" lon="6.81976">
        <ele>374.631256</ele>
        <time>2011-10-02T09:51:48Z</time>
      </trkpt>
      <trkpt lat="47.59026" lon="6.8198">
        <ele>376.283569</ele>
        <time>2011-10-02T09:51:55Z</time>
      </trkpt>
      <trkpt lat="47.59018" lon="6.81979">
        <ele>377.26651</ele>
        <time>2011-10-02T09:52:01Z</time>
      </trkpt>
      <trkpt lat="47.59015" lon="6.81979">
        <ele>377.648102</ele>
        <time>2011-10-02T09:52:03Z</time>
      </trkpt>
      <trkpt lat="47.59008" lon="6.81974">
        <ele>378.195618</ele>
        <time>2011-10-02T09:52:07Z</time>
      </trkpt>
      <trkpt lat="47.58997" lon="6.8197">
        <ele>379.398621</ele>
        <time>2011-10-02T09:52:14Z</time>
      </trkpt>
      <trkpt lat="47.58993" lon="6.81969">
        <ele>379.776611</ele>
        <time>2011-10-02T09:52:16Z</time>
      </trkpt>
      <trkpt lat="47.58987" lon="6.81966">
        <ele>380.404541</ele>
        <time>2011-10-02T09:52:22Z</time>
      </trkpt>
      <trkpt lat="47.58979" lon="6.81958">
        <ele>381.313171</ele>
        <time>2011-10-02T09:52:28Z</time>
      </trkpt>
      <trkpt lat="47.58973" lon="6.81951">
        <ele>382.070496</ele>
        <time>2011-10-02T09:52:33Z</time>
      </trkpt>
      <trkpt lat="47.58964" lon="6.81944">
        <ele>383.081238</ele>
        <time>2011-10-02T09:52:39Z</time>
      </trkpt>
      <trkpt lat="47.58952" lon="6.81936">
        <ele>384.618103</ele>
        <time>2011-10-02T09:52:46Z</time>
      </trkpt>
      <trkpt lat="47.58939" lon="6.81926">
        <ele>386.342072</ele>
        <time>2011-10-02T09:52:54Z</time>
      </trkpt>
      <trkpt lat="47.58926" lon="6.81918">
        <ele>388.301422</ele>
        <time>2011-10-02T09:53:01Z</time>
      </trkpt>
      <trkpt lat="47.58916" lon="6.81912">
        <ele>389.743378</ele>
        <time>2011-10-02T09:53:07Z</time>
      </trkpt>
      <trkpt lat="47.58903" lon="6.81901">
        <ele>391.352386</ele>
        <time>2011-10-02T09:53:16Z</time>
      </trkpt>
      <trkpt lat="47.58893" lon="6.81891">
        <ele>392.663757</ele>
        <time>2011-10-02T09:53:23Z</time>
      </trkpt>
      <trkpt lat="47.58879" lon="6.81879">
        <ele>394.6875</ele>
        <time>2011-10-02T09:53:30Z</time>
      </trkpt>
      <trkpt lat="47.5887" lon="6.81869">
        <ele>395.922516</ele>
        <time>2011-10-02T09:53:36Z</time>
      </trkpt>
      <trkpt lat="47.58861" lon="6.81859">
        <ele>396.92749</ele>
        <time>2011-10-02T09:53:41Z</time>
      </trkpt>
      <trkpt lat="47.5885" lon="6.81847">
        <ele>398.172516</ele>
        <time>2011-10-02T09:53:48Z</time>
      </trkpt>
      <trkpt lat="47.58841" lon="6.81836">
        <ele>399.032501</ele>
        <time>2011-10-02T09:53:54Z</time>
      </trkpt>
      <trkpt lat="47.58834" lon="6.81826">
        <ele>399.419983</ele>
        <time>2011-10-02T09:53:58Z</time>
      </trkpt>
      <trkpt lat="47.58819" lon="6.81806">
        <ele>400.576263</ele>
        <time>2011-10-02T09:54:05Z</time>
      </trkpt>
      <trkpt lat="47.58812" lon="6.81792">
        <ele>400.778992</ele>
        <time>2011-10-02T09:54:09Z</time>
      </trkpt>
      <trkpt lat="47.58807" lon="6.81786">
        <ele>401.280457</ele>
        <time>2011-10-02T09:54:12Z</time>
      </trkpt>
      <trkpt lat="47.58794" lon="6.81787">
        <ele>403.832855</ele>
        <time>2011-10-02T09:54:17Z</time>
      </trkpt>
      <trkpt lat="47.58786" lon="6.81801">
        <ele>406.821625</ele>
        <time>2011-10-02T09:54:24Z</time>
      </trkpt>
      <trkpt lat="47.58786" lon="6.81806">
        <ele>407.048676</ele>
        <time>2011-10-02T09:54:26Z</time>
      </trkpt>
      <trkpt lat="47.58794" lon="6.81819">
        <ele>406.898376</ele>
        <time>2011-10-02T09:54:34Z</time>
      </trkpt>
      <trkpt lat="47.58797" lon="6.81826">
        <ele>406.815308</ele>
        <time>2011-10-02T09:54:38Z</time>
      </trkpt>
      <trkpt lat="47.58799" lon="6.8184">
        <ele>407.753693</ele>
        <time>2011-10-02T09:54:43Z</time>
      </trkpt>
      <trkpt lat="47.58799" lon="6.81849">
        <ele>408.347321</ele>
        <time>2011-10-02T09:54:46Z</time>
      </trkpt>
      <trkpt lat="47.58801" lon="6.81866">
        <ele>409.490631</ele>
        <time>2011-10-02T09:54:51Z</time>
      </trkpt>
      <trkpt lat="47.58797" lon="6.81892">
        <ele>411.960999</ele>
        <time>2011-10-02T09:54:59Z</time>
      </trkpt>
      <trkpt lat="47.58794" lon="6.81917">
        <ele>413.37262</ele>
        <time>2011-10-02T09:55:06Z</time>
      </trkpt>
      <trkpt lat="47.58792" lon="6.81937">
        <ele>413.794586</ele>
        <time>2011-10-02T09:55:12Z</time>
      </trkpt>
      <trkpt lat="47.58791" lon="6.8195">
        <ele>414.008301</ele>
        <time>2011-10-02T09:55:16Z</time>
      </trkpt>
      <trkpt lat="47.58792" lon="6.81969">
        <ele>414.457031</ele>
        <time>2011-10-02T09:55:22Z</time>
      </trkpt>
      <trkpt lat="47.58794" lon="6.81982">
        <ele>414.772797</ele>
        <time>2011-10-02T09:55:26Z</time>
      </trkpt>
      <trkpt lat="47.58797" lon="6.82007">
        <ele>415.203918</ele>
        <time>2011-10-02T09:55:32Z</time>
      </trkpt>
      <trkpt lat="47.588" lon="6.82046">
        <ele>415.729767</ele>
        <time>2011-10-02T09:55:41Z</time>
      </trkpt>
      <trkpt lat="47.58797" lon="6.82074">
        <ele>416.108032</ele>
        <time>2011-10-02T09:55:45Z</time>
      </trkpt>
      <trkpt lat="47.5879" lon="6.82111">
        <ele>416.634918</ele>
        <time>2011-10-02T09:55:51Z</time>
      </trkpt>
      <trkpt lat="47.58794" lon="6.82128">
        <ele>417.361755</ele>
        <time>2011-10-02T09:55:56Z</time>
      </trkpt>
      <trkpt lat="47.588" lon="6.82131">
        <ele>417.678253</ele>
        <time>2011-10-02T09:56:03Z</time>
      </trkpt>
      <trkpt lat="47.58805" lon="6.8213">
        <ele>417.851013</ele>
        <time>2011-10-02T09:56:14Z</time>
      </trkpt>
      <trkpt lat="47.58814" lon="6.82133">
        <ele>418.497681</ele>
        <time>2011-10-02T09:56:26Z</time>
      </trkpt>
      <trkpt lat="47.58815" lon="6.82135">
        <ele>418.571198</ele>
        <time>2011-10-02T09:56:33Z</time>
      </trkpt>
      <trkpt lat="47.58813" lon="6.82138">
        <ele>418.541809</ele>
        <time>2011-10-02T09:56:44Z</time>
      </trkpt>
      <trkpt lat="47.5882" lon="6.8214">
        <ele>418.987091</ele>
        <time>2011-10-02T09:56:52Z</time>
      </trkpt>
      <trkpt lat="47.58822" lon="6.82142">
        <ele>419.137054</ele>
        <time>2011-10-02T09:57:00Z</time>
      </trkpt>
      <trkpt lat="47.5882" lon="6.8214">
        <ele>418.970581</ele>
        <time>2011-10-02T09:57:13Z</time>
      </trkpt>
      <trkpt lat="47.58821" lon="6.8214">
        <ele>419.065796</ele>
        <time>2011-10-02T09:57:27Z</time>
      </trkpt>
      <trkpt lat="47.58821" lon="6.82142">
        <ele>419.111725</ele>
        <time>2011-10-02T09:57:40Z</time>
      </trkpt>
      <trkpt lat="47.58817" lon="6.82143">
        <ele>418.902527</ele>
        <time>2011-10-02T09:57:51Z</time>
      </trkpt>
      <trkpt lat="47.58815" lon="6.82142">
        <ele>418.783234</ele>
        <time>2011-10-02T09:58:01Z</time>
      </trkpt>
      <trkpt lat="47.58815" lon="6.82142">
        <ele>418.750031</ele>
        <time>2011-10-02T09:58:12Z</time>
      </trkpt>
      <trkpt lat="47.58814" lon="6.82142">
        <ele>418.73407</ele>
        <time>2011-10-02T09:58:22Z</time>
      </trkpt>
      <trkpt lat="47.58812" lon="6.82141">
        <ele>418.578705</ele>
        <time>2011-10-02T09:58:38Z</time>
      </trkpt>
      <trkpt lat="47.58809" lon="6.82139">
        <ele>418.363953</ele>
        <time>2011-10-02T09:58:45Z</time>
      </trkpt>
      <trkpt lat="47.58797" lon="6.82131">
        <ele>417.597504</ele>
        <time>2011-10-02T09:58:51Z</time>
      </trkpt>
      <trkpt lat="47.58789" lon="6.82122">
        <ele>416.989258</ele>
        <time>2011-10-02T09:58:54Z</time>
      </trkpt>
      <trkpt lat="47.58776" lon="6.82096">
        <ele>415.602051</ele>
        <time>2011-10-02T09:58:58Z</time>
      </trkpt>
      <trkpt lat="47.5875" lon="6.82051">
        <ele>413.148071</ele>
        <time>2011-10-02T09:59:04Z</time>
      </trkpt>
      <trkpt lat="47.58724" lon="6.82024">
        <ele>410.993927</ele>
        <time>2011-10-02T09:59:08Z</time>
      </trkpt>
      <trkpt lat="47.58682" lon="6.82">
        <ele>409.090515</ele>
        <time>2011-10-02T09:59:13Z</time>
      </trkpt>
      <trkpt lat="47.58638" lon="6.81977">
        <ele>406.436157</ele>
        <time>2011-10-02T09:59:18Z</time>
      </trkpt>
      <trkpt lat="47.58606" lon="6.81961">
        <ele>404.867706</ele>
        <time>2011-10-02T09:59:22Z</time>
      </trkpt>
      <trkpt lat="47.58588" lon="6.81947">
        <ele>404.191437</ele>
        <time>2011-10-02T09:59:25Z</time>
      </trkpt>
      <trkpt lat="47.58561" lon="6.8193">
        <ele>403.799988</ele>
        <time>2011-10-02T09:59:30Z</time>
      </trkpt>
      <trkpt lat="47.58544" lon="6.81923">
        <ele>403.286377</ele>
        <time>2011-10-02T09:59:34Z</time>
      </trkpt>
      <trkpt lat="47.58521" lon="6.81916">
        <ele>402.635559</ele>
        <time>2011-10-02T09:59:39Z</time>
      </trkpt>
      <trkpt lat="47.58505" lon="6.81918">
        <ele>402.482971</ele>
        <time>2011-10-02T09:59:43Z</time>
      </trkpt>
      <trkpt lat="47.585" lon="6.81918">
        <ele>402.417664</ele>
        <time>2011-10-02T09:59:44Z</time>
      </trkpt>
      <trkpt lat="47.58471" lon="6.81923">
        <ele>401.888763</ele>
        <time>2011-10-02T09:59:48Z</time>
      </trkpt>
      <trkpt lat="47.58442" lon="6.81924">
        <ele>400.977448</ele>
        <time>2011-10-02T09:59:51Z</time>
      </trkpt>
      <trkpt lat="47.58405" lon="6.81919">
        <ele>398.825012</ele>
        <time>2011-10-02T09:59:55Z</time>
      </trkpt>
      <trkpt lat="47.58377" lon="6.81912">
        <ele>397.924988</ele>
        <time>2011-10-02T09:59:58Z</time>
      </trkpt>
      <trkpt lat="47.5836" lon="6.81906">
        <ele>397.302368</ele>
        <time>2011-10-02T10:00:02Z</time>
      </trkpt>
      <trkpt lat="47.58351" lon="6.81906">
        <ele>397.150482</ele>
        <time>2011-10-02T10:00:07Z</time>
      </trkpt>
      <trkpt lat="47.58349" lon="6.81906">
        <ele>397.152435</ele>
        <time>2011-10-02T10:00:11Z</time>
      </trkpt>
      <trkpt lat="47.58336" lon="6.81903">
        <ele>396.775116</ele>
        <time>2011-10-02T10:00:16Z</time>
      </trkpt>
      <trkpt lat="47.58319" lon="6.81897">
        <ele>396.030609</ele>
        <time>2011-10-02T10:00:20Z</time>
      </trkpt>
      <trkpt lat="47.58308" lon="6.81895">
        <ele>395.610687</ele>
        <time>2011-10-02T10:00:22Z</time>
      </trkpt>
      <trkpt lat="47.58297" lon="6.8189">
        <ele>394.981506</ele>
        <time>2011-10-02T10:00:24Z</time>
      </trkpt>
      <trkpt lat="47.58269" lon="6.8188">
        <ele>393.380005</ele>
        <time>2011-10-02T10:00:28Z</time>
      </trkpt>
      <trkpt lat="47.5822" lon="6.81859">
        <ele>391.522614</ele>
        <time>2011-10-02T10:00:34Z</time>
      </trkpt>
      <trkpt lat="47.58178" lon="6.81842">
        <ele>391.449677</ele>
        <time>2011-10-02T10:00:39Z</time>
      </trkpt>
      <trkpt lat="47.58149" lon="6.8183">
        <ele>390.846283</ele>
        <time>2011-10-02T10:00:43Z</time>
      </trkpt>
      <trkpt lat="47.58102" lon="6.81814">
        <ele>389.154419</ele>
        <time>2011-10-02T10:00:49Z</time>
      </trkpt>
      <trkpt lat="47.58067" lon="6.81802">
        <ele>386.630768</ele>
        <time>2011-10-02T10:00:54Z</time>
      </trkpt>
      <trkpt lat="47.5803" lon="6.81795">
        <ele>384.57959</ele>
        <time>2011-10-02T10:00:59Z</time>
      </trkpt>
      <trkpt lat="47.58014" lon="6.81794">
        <ele>383.968506</ele>
        <time>2011-10-02T10:01:01Z</time>
      </trkpt>
      <trkpt lat="47.57969" lon="6.81795">
        <ele>381.625</ele>
        <time>2011-10-02T10:01:07Z</time>
      </trkpt>
      <trkpt lat="47.57953" lon="6.81797">
        <ele>380.932037</ele>
        <time>2011-10-02T10:01:09Z</time>
      </trkpt>
      <trkpt lat="47.57928" lon="6.81803">
        <ele>380.362701</ele>
        <time>2011-10-02T10:01:12Z</time>
      </trkpt>
      <trkpt lat="47.57884" lon="6.81828">
        <ele>379.019989</ele>
        <time>2011-10-02T10:01:17Z</time>
      </trkpt>
      <trkpt lat="47.5786" lon="6.81841">
        <ele>378.567291</ele>
        <time>2011-10-02T10:01:20Z</time>
      </trkpt>
      <trkpt lat="47.57828" lon="6.81847">
        <ele>378.508728</ele>
        <time>2011-10-02T10:01:25Z</time>
      </trkpt>
      <trkpt lat="47.57813" lon="6.81848">
        <ele>378.140015</ele>
        <time>2011-10-02T10:01:29Z</time>
      </trkpt>
      <trkpt lat="47.57798" lon="6.81848">
        <ele>377.554993</ele>
        <time>2011-10-02T10:01:34Z</time>
      </trkpt>
      <trkpt lat="47.57776" lon="6.81846">
        <ele>376.518463</ele>
        <time>2011-10-02T10:01:38Z</time>
      </trkpt>
      <trkpt lat="47.5775" lon="6.81847">
        <ele>374.746338</ele>
        <time>2011-10-02T10:01:42Z</time>
      </trkpt>
      <trkpt lat="47.57744" lon="6.81851">
        <ele>374.469818</ele>
        <time>2011-10-02T10:01:43Z</time>
      </trkpt>
      <trkpt lat="47.57718" lon="6.81865">
        <ele>373.583557</ele>
        <time>2011-10-02T10:01:48Z</time>
      </trkpt>
      <trkpt lat="47.57696" lon="6.81877">
        <ele>372.657288</ele>
        <time>2011-10-02T10:01:53Z</time>
      </trkpt>
      <trkpt lat="47.57688" lon="6.81881">
        <ele>372.273743</ele>
        <time>2011-10-02T10:01:55Z</time>
      </trkpt>
      <trkpt lat="47.57671" lon="6.81894">
        <ele>372.070923</ele>
        <time>2011-10-02T10:02:00Z</time>
      </trkpt>
      <trkpt lat="47.57656" lon="6.81906">
        <ele>371.795685</ele>
        <time>2011-10-02T10:02:05Z</time>
      </trkpt>
      <trkpt lat="47.57647" lon="6.8192">
        <ele>371.802338</ele>
        <time>2011-10-02T10:02:10Z</time>
      </trkpt>
      <trkpt lat="47.57631" lon="6.81949">
        <ele>371.662567</ele>
        <time>2011-10-02T10:02:15Z</time>
      </trkpt>
      <trkpt lat="47.57614" lon="6.81967">
        <ele>371.086456</ele>
        <time>2011-10-02T10:02:19Z</time>
      </trkpt>
      <trkpt lat="47.57597" lon="6.81986">
        <ele>370.74884</ele>
        <time>2011-10-02T10:02:24Z</time>
      </trkpt>
      <trkpt lat="47.57576" lon="6.82004">
        <ele>370.147247</ele>
        <time>2011-10-02T10:02:30Z</time>
      </trkpt>
      <trkpt lat="47.57556" lon="6.82016">
        <ele>369.81485</ele>
        <time>2011-10-02T10:02:35Z</time>
      </trkpt>
      <trkpt lat="47.5754" lon="6.82026">
        <ele>369.928925</ele>
        <time>2011-10-02T10:02:39Z</time>
      </trkpt>
      <trkpt lat="47.57526" lon="6.82038">
        <ele>370.235321</ele>
        <time>2011-10-02T10:02:43Z</time>
      </trkpt>
      <trkpt lat="47.57505" lon="6.82052">
        <ele>369.437073</ele>
        <time>2011-10-02T10:02:49Z</time>
      </trkpt>
      <trkpt lat="47.57491" lon="6.82063">
        <ele>368.812744</ele>
        <time>2011-10-02T10:02:54Z</time>
      </trkpt>
      <trkpt lat="47.57478" lon="6.82073">
        <ele>368.904633</ele>
        <time>2011-10-02T10:02:59Z</time>
      </trkpt>
      <trkpt lat="47.57461" lon="6.82086">
        <ele>368.738617</ele>
        <time>2011-10-02T10:03:05Z</time>
      </trkpt>
      <trkpt lat="47.57449" lon="6.82096">
        <ele>368.609955</ele>
        <time>2011-10-02T10:03:10Z</time>
      </trkpt>
      <trkpt lat="47.57435" lon="6.82107">
        <ele>368.622009</ele>
        <time>2011-10-02T10:03:15Z</time>
      </trkpt>
      <trkpt lat="47.5743" lon="6.82109">
        <ele>368.539154</ele>
        <time>2011-10-02T10:03:16Z</time>
      </trkpt>
      <trkpt lat="47.5741" lon="6.82106">
        <ele>367.678284</ele>
        <time>2011-10-02T10:03:20Z</time>
      </trkpt>
      <trkpt lat="47.57393" lon="6.82092">
        <ele>366.98407</ele>
        <time>2011-10-02T10:03:25Z</time>
      </trkpt>
      <trkpt lat="47.57391" lon="6.82087">
        <ele>366.840942</ele>
        <time>2011-10-02T10:03:30Z</time>
      </trkpt>
      <trkpt lat="47.57388" lon="6.8208">
        <ele>366.641327</ele>
        <time>2011-10-02T10:03:37Z</time>
      </trkpt>
      <trkpt lat="47.57373" lon="6.82076">
        <ele>366.470093</ele>
        <time>2011-10-02T10:03:42Z</time>
      </trkpt>
      <trkpt lat="47.57365" lon="6.82075">
        <ele>366.391998</ele>
        <time>2011-10-02T10:03:44Z</time>
      </trkpt>
      <trkpt lat="47.57346" lon="6.82075">
        <ele>366.163818</ele>
        <time>2011-10-02T10:03:49Z</time>
      </trkpt>
      <trkpt lat="47.57329" lon="6.82076">
        <ele>365.987335</ele>
        <time>2011-10-02T10:03:53Z</time>
      </trkpt>
      <trkpt lat="47.57319" lon="6.82074">
        <ele>365.844177</ele>
        <time>2011-10-02T10:03:55Z</time>
      </trkpt>
      <trkpt lat="47.573" lon="6.82071">
        <ele>365.223022</ele>
        <time>2011-10-02T10:04:00Z</time>
      </trkpt>
      <trkpt lat="47.57296" lon="6.82073">
        <ele>365.149872</ele>
        <time>2011-10-02T10:04:04Z</time>
      </trkpt>
      <trkpt lat="47.57294" lon="6.82071">
        <ele>365.056763</ele>
        <time>2011-10-02T10:04:35Z</time>
      </trkpt>
      <trkpt lat="47.57296" lon="6.82079">
        <ele>365.302734</ele>
        <time>2011-10-02T10:05:42Z</time>
      </trkpt>
      <trkpt lat="47.57299" lon="6.82087">
        <ele>365.565002</ele>
        <time>2011-10-02T10:06:19Z</time>
      </trkpt>
      <trkpt lat="47.57301" lon="6.82085">
        <ele>365.600098</ele>
        <time>2011-10-02T10:06:32Z</time>
      </trkpt>
      <trkpt lat="47.57299" lon="6.82085">
        <ele>365.529846</ele>
        <time>2011-10-02T10:06:45Z</time>
      </trkpt>
      <trkpt lat="47.57296" lon="6.82088">
        <ele>365.495972</ele>
        <time>2011-10-02T10:06:56Z</time>
      </trkpt>
      <trkpt lat="47.57293" lon="6.82093">
        <ele>365.539948</ele>
        <time>2011-10-02T10:07:03Z</time>
      </trkpt>
      <trkpt lat="47.57283" lon="6.82106">
        <ele>365.410248</ele>
        <time>2011-10-02T10:07:09Z</time>
      </trkpt>
      <trkpt lat="47.57269" lon="6.82125">
        <ele>366.122589</ele>
        <time>2011-10-02T10:07:14Z</time>
      </trkpt>
      <trkpt lat="47.57253" lon="6.82146">
        <ele>366.882935</ele>
        <time>2011-10-02T10:07:19Z</time>
      </trkpt>
      <trkpt lat="47.57232" lon="6.82172">
        <ele>366.638184</ele>
        <time>2011-10-02T10:07:25Z</time>
      </trkpt>
      <trkpt lat="47.57229" lon="6.82176">
        <ele>366.503815</ele>
        <time>2011-10-02T10:07:26Z</time>
      </trkpt>
      <trkpt lat="47.57211" lon="6.82214">
        <ele>365.986237</ele>
        <time>2011-10-02T10:07:32Z</time>
      </trkpt>
      <trkpt lat="47.57199" lon="6.82237">
        <ele>365.005005</ele>
        <time>2011-10-02T10:07:36Z</time>
      </trkpt>
      <trkpt lat="47.57189" lon="6.82252">
        <ele>363.840332</ele>
        <time>2011-10-02T10:07:39Z</time>
      </trkpt>
      <trkpt lat="47.57183" lon="6.82263">
        <ele>363.264435</ele>
        <time>2011-10-02T10:07:41Z</time>
      </trkpt>
      <trkpt lat="47.57175" lon="6.82279">
        <ele>362.677612</ele>
        <time>2011-10-02T10:07:44Z</time>
      </trkpt>
      <trkpt lat="47.57168" lon="6.82295">
        <ele>362.79837</ele>
        <time>2011-10-02T10:07:47Z</time>
      </trkpt>
      <trkpt lat="47.57156" lon="6.82335">
        <ele>363.598206</ele>
        <time>2011-10-02T10:07:53Z</time>
      </trkpt>
      <trkpt lat="47.57153" lon="6.82342">
        <ele>363.622498</ele>
        <time>2011-10-02T10:07:54Z</time>
      </trkpt>
      <trkpt lat="47.57139" lon="6.8237">
        <ele>363.235199</ele>
        <time>2011-10-02T10:07:58Z</time>
      </trkpt>
      <trkpt lat="47.5713" lon="6.82412">
        <ele>363.229431</ele>
        <time>2011-10-02T10:08:02Z</time>
      </trkpt>
      <trkpt lat="47.57123" lon="6.82426">
        <ele>362.931427</ele>
        <time>2011-10-02T10:08:04Z</time>
      </trkpt>
      <trkpt lat="47.57096" lon="6.82446">
        <ele>365.190094</ele>
        <time>2011-10-02T10:08:09Z</time>
      </trkpt>
      <trkpt lat="47.57079" lon="6.82455">
        <ele>366.864227</ele>
        <time>2011-10-02T10:08:12Z</time>
      </trkpt>
      <trkpt lat="47.5704" lon="6.82473">
        <ele>369.131592</ele>
        <time>2011-10-02T10:08:18Z</time>
      </trkpt>
      <trkpt lat="47.57028" lon="6.82476">
        <ele>369.474609</ele>
        <time>2011-10-02T10:08:20Z</time>
      </trkpt>
      <trkpt lat="47.57005" lon="6.82485">
        <ele>369.480804</ele>
        <time>2011-10-02T10:08:24Z</time>
      </trkpt>
      <trkpt lat="47.56993" lon="6.82489">
        <ele>369.072815</ele>
        <time>2011-10-02T10:08:26Z</time>
      </trkpt>
      <trkpt lat="47.56973" lon="6.82497">
        <ele>367.865784</ele>
        <time>2011-10-02T10:08:30Z</time>
      </trkpt>
      <trkpt lat="47.56943" lon="6.82523">
        <ele>368.65274</ele>
        <time>2011-10-02T10:08:36Z</time>
      </trkpt>
      <trkpt lat="47.56933" lon="6.82531">
        <ele>369.010986</ele>
        <time>2011-10-02T10:08:38Z</time>
      </trkpt>
      <trkpt lat="47.5691" lon="6.82546">
        <ele>368.009857</ele>
        <time>2011-10-02T10:08:42Z</time>
      </trkpt>
      <trkpt lat="47.56885" lon="6.82559">
        <ele>366.565735</ele>
        <time>2011-10-02T10:08:46Z</time>
      </trkpt>
      <trkpt lat="47.5685" lon="6.82574">
        <ele>364.905029</ele>
        <time>2011-10-02T10:08:52Z</time>
      </trkpt>
      <trkpt lat="47.56839" lon="6.8258">
        <ele>365.598602</ele>
        <time>2011-10-02T10:08:54Z</time>
      </trkpt>
      <trkpt lat="47.56822" lon="6.82589">
        <ele>366.154724</ele>
        <time>2011-10-02T10:08:57Z</time>
      </trkpt>
      <trkpt lat="47.56793" lon="6.82602">
        <ele>365.845978</ele>
        <time>2011-10-02T10:09:02Z</time>
      </trkpt>
      <trkpt lat="47.5678" lon="6.82606">
        <ele>364.87915</ele>
        <time>2011-10-02T10:09:04Z</time>
      </trkpt>
      <trkpt lat="47.5676" lon="6.82611">
        <ele>363.442657</ele>
        <time>2011-10-02T10:09:07Z</time>
      </trkpt>
      <trkpt lat="47.56718" lon="6.82626">
        <ele>361.858734</ele>
        <time>2011-10-02T10:09:14Z</time>
      </trkpt>
      <trkpt lat="47.56692" lon="6.8264">
        <ele>362.236115</ele>
        <time>2011-10-02T10:09:19Z</time>
      </trkpt>
      <trkpt lat="47.56677" lon="6.8265">
        <ele>362.345245</ele>
        <time>2011-10-02T10:09:22Z</time>
      </trkpt>
      <trkpt lat="47.56643" lon="6.82683">
        <ele>361.870361</ele>
        <time>2011-10-02T10:09:30Z</time>
      </trkpt>
      <trkpt lat="47.56626" lon="6.82698">
        <ele>361.885254</ele>
        <time>2011-10-02T10:09:35Z</time>
      </trkpt>
      <trkpt lat="47.56616" lon="6.82707">
        <ele>362.248993</ele>
        <time>2011-10-02T10:09:38Z</time>
      </trkpt>
      <trkpt lat="47.56587" lon="6.82731">
        <ele>361.849518</ele>
        <time>2011-10-02T10:09:46Z</time>
      </trkpt>
      <trkpt lat="47.56571" lon="6.82752">
        <ele>361.661255</ele>
        <time>2011-10-02T10:09:52Z</time>
      </trkpt>
      <trkpt lat="47.56557" lon="6.82768">
        <ele>362.123749</ele>
        <time>2011-10-02T10:09:57Z</time>
      </trkpt>
      <trkpt lat="47.56543" lon="6.82786">
        <ele>362.335266</ele>
        <time>2011-10-02T10:10:02Z</time>
      </trkpt>
      <trkpt lat="47.56536" lon="6.82794">
        <ele>362.082184</ele>
        <time>2011-10-02T10:10:04Z</time>
      </trkpt>
      <trkpt lat="47.56524" lon="6.82821">
        <ele>361.368988</ele>
        <time>2011-10-02T10:10:09Z</time>
      </trkpt>
      <trkpt lat="47.56514" lon="6.82849">
        <ele>360.507904</ele>
        <time>2011-10-02T10:10:14Z</time>
      </trkpt>
      <trkpt lat="47.56511" lon="6.82889">
        <ele>360.947327</ele>
        <time>2011-10-02T10:10:20Z</time>
      </trkpt>
      <trkpt lat="47.5651" lon="6.82902">
        <ele>361.121033</ele>
        <time>2011-10-02T10:10:22Z</time>
      </trkpt>
      <trkpt lat="47.56503" lon="6.82935">
        <ele>363.303741</ele>
        <time>2011-10-02T10:10:28Z</time>
      </trkpt>
      <trkpt lat="47.56507" lon="6.82951">
        <ele>364.390015</ele>
        <time>2011-10-02T10:10:32Z</time>
      </trkpt>
      <trkpt lat="47.56511" lon="6.82984">
        <ele>366.615692</ele>
        <time>2011-10-02T10:10:39Z</time>
      </trkpt>
      <trkpt lat="47.56519" lon="6.83024">
        <ele>368.595001</ele>
        <time>2011-10-02T10:10:47Z</time>
      </trkpt>
      <trkpt lat="47.56528" lon="6.83064">
        <ele>369.921234</ele>
        <time>2011-10-02T10:10:55Z</time>
      </trkpt>
      <trkpt lat="47.56533" lon="6.83083">
        <ele>370.434998</ele>
        <time>2011-10-02T10:10:59Z</time>
      </trkpt>
      <trkpt lat="47.56547" lon="6.83132">
        <ele>371.855011</ele>
        <time>2011-10-02T10:11:09Z</time>
      </trkpt>
      <trkpt lat="47.5656" lon="6.83177">
        <ele>373.470642</ele>
        <time>2011-10-02T10:11:18Z</time>
      </trkpt>
      <trkpt lat="47.56577" lon="6.83228">
        <ele>375.170013</ele>
        <time>2011-10-02T10:11:28Z</time>
      </trkpt>
      <trkpt lat="47.56597" lon="6.83285">
        <ele>376.493469</ele>
        <time>2011-10-02T10:11:39Z</time>
      </trkpt>
      <trkpt lat="47.56613" lon="6.8333">
        <ele>377.158478</ele>
        <time>2011-10-02T10:11:48Z</time>
      </trkpt>
      <trkpt lat="47.56625" lon="6.83343">
        <ele>376.871735</ele>
        <time>2011-10-02T10:11:53Z</time>
      </trkpt>
      <trkpt lat="47.56641" lon="6.83347">
        <ele>376.118988</ele>
        <time>2011-10-02T10:11:57Z</time>
      </trkpt>
      <trkpt lat="47.56678" lon="6.83358">
        <ele>375.220795</ele>
        <time>2011-10-02T10:12:03Z</time>
      </trkpt>
      <trkpt lat="47.56707" lon="6.83364">
        <ele>375.279999</ele>
        <time>2011-10-02T10:12:08Z</time>
      </trkpt>
      <trkpt lat="47.56747" lon="6.83371">
        <ele>376.118347</ele>
        <time>2011-10-02T10:12:16Z</time>
      </trkpt>
      <trkpt lat="47.56795" lon="6.83377">
        <ele>377.328369</ele>
        <time>2011-10-02T10:12:25Z</time>
      </trkpt>
      <trkpt lat="47.5683" lon="6.83382">
        <ele>378.26001</ele>
        <time>2011-10-02T10:12:33Z</time>
      </trkpt>
      <trkpt lat="47.5684" lon="6.83394">
        <ele>378.880005</ele>
        <time>2011-10-02T10:12:37Z</time>
      </trkpt>
      <trkpt lat="47.5684" lon="6.8342">
        <ele>379.831238</ele>
        <time>2011-10-02T10:12:42Z</time>
      </trkpt>
      <trkpt lat="47.56839" lon="6.83459">
        <ele>381.588745</ele>
        <time>2011-10-02T10:12:49Z</time>
      </trkpt>
      <trkpt lat="47.56839" lon="6.83503">
        <ele>384.165009</ele>
        <time>2011-10-02T10:12:57Z</time>
      </trkpt>
      <trkpt lat="47.56839" lon="6.83547">
        <ele>386.754669</ele>
        <time>2011-10-02T10:13:05Z</time>
      </trkpt>
      <trkpt lat="47.56837" lon="6.83605">
        <ele>389.724487</ele>
        <time>2011-10-02T10:13:16Z</time>
      </trkpt>
      <trkpt lat="47.56832" lon="6.83637">
        <ele>390.81723</ele>
        <time>2011-10-02T10:13:23Z</time>
      </trkpt>
      <trkpt lat="47.56817" lon="6.83654">
        <ele>391.404449</ele>
        <time>2011-10-02T10:13:29Z</time>
      </trkpt>
      <trkpt lat="47.56797" lon="6.83671">
        <ele>391.940002</ele>
        <time>2011-10-02T10:13:36Z</time>
      </trkpt>
      <trkpt lat="47.56772" lon="6.8369">
        <ele>392.027496</ele>
        <time>2011-10-02T10:13:45Z</time>
      </trkpt>
      <trkpt lat="47.56738" lon="6.83715">
        <ele>392.152496</ele>
        <time>2011-10-02T10:13:57Z</time>
      </trkpt>
      <trkpt lat="47.56725" lon="6.83725">
        <ele>392.19751</ele>
        <time>2011-10-02T10:14:03Z</time>
      </trkpt>
      <trkpt lat="47.56725" lon="6.83725">
        <ele>392.202515</ele>
        <time>2011-10-02T10:14:07Z</time>
      </trkpt>
      <trkpt lat="47.5672" lon="6.83731">
        <ele>392.375</ele>
        <time>2011-10-02T10:15:54Z</time>
      </trkpt>
      <trkpt lat="47.56704" lon="6.83746">
        <ele>392.873047</ele>
        <time>2011-10-02T10:16:00Z</time>
      </trkpt>
      <trkpt lat="47.56683" lon="6.83763">
        <ele>393.415863</ele>
        <time>2011-10-02T10:16:07Z</time>
      </trkpt>
      <trkpt lat="47.56649" lon="6.83791">
        <ele>393.260406</ele>
        <time>2011-10-02T10:16:17Z</time>
      </trkpt>
      <trkpt lat="47.56633" lon="6.83804">
        <ele>392.613922</ele>
        <time>2011-10-02T10:16:21Z</time>
      </trkpt>
      <trkpt lat="47.56608" lon="6.83809">
        <ele>391.356049</ele>
        <time>2011-10-02T10:16:26Z</time>
      </trkpt>
      <trkpt lat="47.56597" lon="6.83805">
        <ele>390.794891</ele>
        <time>2011-10-02T10:16:28Z</time>
      </trkpt>
      <trkpt lat="47.56557" lon="6.83778">
        <ele>388.706238</ele>
        <time>2011-10-02T10:16:35Z</time>
      </trkpt>
      <trkpt lat="47.56545" lon="6.8377">
        <ele>387.753754</ele>
        <time>2011-10-02T10:16:37Z</time>
      </trkpt>
      <trkpt lat="47.56523" lon="6.83768">
        <ele>386.339294</ele>
        <time>2011-10-02T10:16:41Z</time>
      </trkpt>
      <trkpt lat="47.56514" lon="6.83779">
        <ele>385.792725</ele>
        <time>2011-10-02T10:16:43Z</time>
      </trkpt>
      <trkpt lat="47.56487" lon="6.83836">
        <ele>382.34668</ele>
        <time>2011-10-02T10:16:50Z</time>
      </trkpt>
      <trkpt lat="47.56469" lon="6.83882">
        <ele>377.753387</ele>
        <time>2011-10-02T10:16:54Z</time>
      </trkpt>
      <trkpt lat="47.56464" lon="6.83894">
        <ele>376.488495</ele>
        <time>2011-10-02T10:16:55Z</time>
      </trkpt>
      <trkpt lat="47.56428" lon="6.83946">
        <ele>371.124908</ele>
        <time>2011-10-02T10:17:00Z</time>
      </trkpt>
      <trkpt lat="47.56405" lon="6.83984">
        <ele>368.738403</ele>
        <time>2011-10-02T10:17:04Z</time>
      </trkpt>
      <trkpt lat="47.56388" lon="6.83986">
        <ele>367.645935</ele>
        <time>2011-10-02T10:17:07Z</time>
      </trkpt>
      <trkpt lat="47.5634" lon="6.83966">
        <ele>365.828674</ele>
        <time>2011-10-02T10:17:15Z</time>
      </trkpt>
      <trkpt lat="47.56335" lon="6.83964">
        <ele>366.010345</ele>
        <time>2011-10-02T10:17:16Z</time>
      </trkpt>
      <trkpt lat="47.56315" lon="6.8397">
        <ele>365.743683</ele>
        <time>2011-10-02T10:17:20Z</time>
      </trkpt>
      <trkpt lat="47.56312" lon="6.83976">
        <ele>365.335754</ele>
        <time>2011-10-02T10:17:21Z</time>
      </trkpt>
      <trkpt lat="47.56283" lon="6.84027">
        <ele>361.111389</ele>
        <time>2011-10-02T10:17:29Z</time>
      </trkpt>
      <trkpt lat="47.56264" lon="6.84077">
        <ele>359.390045</ele>
        <time>2011-10-02T10:17:35Z</time>
      </trkpt>
      <trkpt lat="47.5625" lon="6.84114">
        <ele>358.625214</ele>
        <time>2011-10-02T10:17:39Z</time>
      </trkpt>
      <trkpt lat="47.56241" lon="6.84167">
        <ele>357.82309</ele>
        <time>2011-10-02T10:17:44Z</time>
      </trkpt>
      <trkpt lat="47.56233" lon="6.84231">
        <ele>355.747864</ele>
        <time>2011-10-02T10:17:50Z</time>
      </trkpt>
      <trkpt lat="47.56221" lon="6.84261">
        <ele>355.005066</ele>
        <time>2011-10-02T10:17:54Z</time>
      </trkpt>
      <trkpt lat="47.56197" lon="6.84306">
        <ele>354.464874</ele>
        <time>2011-10-02T10:18:01Z</time>
      </trkpt>
      <trkpt lat="47.56184" lon="6.8434">
        <ele>354.759308</ele>
        <time>2011-10-02T10:18:06Z</time>
      </trkpt>
      <trkpt lat="47.56172" lon="6.84368">
        <ele>354.545929</ele>
        <time>2011-10-02T10:18:10Z</time>
      </trkpt>
      <trkpt lat="47.56143" lon="6.84419">
        <ele>351.373047</ele>
        <time>2011-10-02T10:18:18Z</time>
      </trkpt>
      <trkpt lat="47.56119" lon="6.84462">
        <ele>351.011597</ele>
        <time>2011-10-02T10:18:25Z</time>
      </trkpt>
      <trkpt lat="47.56111" lon="6.84472">
        <ele>350.091858</ele>
        <time>2011-10-02T10:18:27Z</time>
      </trkpt>
      <trkpt lat="47.56092" lon="6.84495">
        <ele>349.649658</ele>
        <time>2011-10-02T10:18:31Z</time>
      </trkpt>
      <trkpt lat="47.56082" lon="6.84508">
        <ele>349.694397</ele>
        <time>2011-10-02T10:18:33Z</time>
      </trkpt>
      <trkpt lat="47.5607" lon="6.84517">
        <ele>349.295959</ele>
        <time>2011-10-02T10:18:35Z</time>
      </trkpt>
      <trkpt lat="47.56036" lon="6.84524">
        <ele>347.924988</ele>
        <time>2011-10-02T10:18:40Z</time>
      </trkpt>
      <trkpt lat="47.56017" lon="6.84536">
        <ele>347.411591</ele>
        <time>2011-10-02T10:18:45Z</time>
      </trkpt>
      <trkpt lat="47.56019" lon="6.8455">
        <ele>348.055908</ele>
        <time>2011-10-02T10:18:47Z</time>
      </trkpt>
      <trkpt lat="47.56033" lon="6.84586">
        <ele>350.744354</ele>
        <time>2011-10-02T10:18:54Z</time>
      </trkpt>
      <trkpt lat="47.56047" lon="6.84593">
        <ele>352.175568</ele>
        <time>2011-10-02T10:18:59Z</time>
      </trkpt>
      <trkpt lat="47.56065" lon="6.84599">
        <ele>353.12442</ele>
        <time>2011-10-02T10:19:04Z</time>
      </trkpt>
      <trkpt lat="47.56078" lon="6.84604">
        <ele>353.658234</ele>
        <time>2011-10-02T10:19:08Z</time>
      </trkpt>
      <trkpt lat="47.56098" lon="6.84612">
        <ele>354.460083</ele>
        <time>2011-10-02T10:19:13Z</time>
      </trkpt>
      <trkpt lat="47.56129" lon="6.84612">
        <ele>355.697357</ele>
        <time>2011-10-02T10:19:21Z</time>
      </trkpt>
      <trkpt lat="47.56156" lon="6.84627">
        <ele>357.580566</ele>
        <time>2011-10-02T10:19:29Z</time>
      </trkpt>
      <trkpt lat="47.56179" lon="6.84651">
        <ele>359.421295</ele>
        <time>2011-10-02T10:19:38Z</time>
      </trkpt>
      <trkpt lat="47.56203" lon="6.84678">
        <ele>360.901245</ele>
        <time>2011-10-02T10:19:48Z</time>
      </trkpt>
      <trkpt lat="47.56223" lon="6.84699">
        <ele>361.886017</ele>
        <time>2011-10-02T10:19:57Z</time>
      </trkpt>
      <trkpt lat="47.56244" lon="6.84721">
        <ele>362.880005</ele>
        <time>2011-10-02T10:20:07Z</time>
      </trkpt>
      <trkpt lat="47.56269" lon="6.84742">
        <ele>364.021606</ele>
        <time>2011-10-02T10:20:17Z</time>
      </trkpt>
      <trkpt lat="47.56291" lon="6.8476">
        <ele>364.889618</ele>
        <time>2011-10-02T10:20:25Z</time>
      </trkpt>
      <trkpt lat="47.56318" lon="6.84784">
        <ele>365.419983</ele>
        <time>2011-10-02T10:20:35Z</time>
      </trkpt>
      <trkpt lat="47.56345" lon="6.84808">
        <ele>366.022491</ele>
        <time>2011-10-02T10:20:45Z</time>
      </trkpt>
      <trkpt lat="47.56374" lon="6.84833">
        <ele>367.091034</ele>
        <time>2011-10-02T10:20:56Z</time>
      </trkpt>
      <trkpt lat="47.56395" lon="6.84854">
        <ele>367.668121</ele>
        <time>2011-10-02T10:21:04Z</time>
      </trkpt>
      <trkpt lat="47.56427" lon="6.84886">
        <ele>367.894989</ele>
        <time>2011-10-02T10:21:16Z</time>
      </trkpt>
      <trkpt lat="47.56447" lon="6.84905">
        <ele>367.763733</ele>
        <time>2011-10-02T10:21:23Z</time>
      </trkpt>
      <trkpt lat="47.56454" lon="6.84917">
        <ele>366.992065</ele>
        <time>2011-10-02T10:21:28Z</time>
      </trkpt>
      <trkpt lat="47.56454" lon="6.8493">
        <ele>366.08606</ele>
        <time>2011-10-02T10:21:33Z</time>
      </trkpt>
      <trkpt lat="47.56454" lon="6.84935">
        <ele>365.72934</ele>
        <time>2011-10-02T10:21:35Z</time>
      </trkpt>
      <trkpt lat="47.56452" lon="6.84957">
        <ele>364.276001</ele>
        <time>2011-10-02T10:21:43Z</time>
      </trkpt>
      <trkpt lat="47.56447" lon="6.84972">
        <ele>363.459991</ele>
        <time>2011-10-02T10:21:48Z</time>
      </trkpt>
      <trkpt lat="47.56443" lon="6.84989">
        <ele>362.524994</ele>
        <time>2011-10-02T10:21:53Z</time>
      </trkpt>
      <trkpt lat="47.5644" lon="6.85003">
        <ele>361.834991</ele>
        <time>2011-10-02T10:21:57Z</time>
      </trkpt>
      <trkpt lat="47.56445" lon="6.85009">
        <ele>361.269989</ele>
        <time>2011-10-02T10:22:01Z</time>
      </trkpt>
      <trkpt lat="47.56451" lon="6.85019">
        <ele>360.375</ele>
        <time>2011-10-02T10:22:07Z</time>
      </trkpt>
      <trkpt lat="47.56454" lon="6.8502">
        <ele>360.160004</ele>
        <time>2011-10-02T10:22:09Z</time>
      </trkpt>
      <trkpt lat="47.56463" lon="6.85027">
        <ele>359.424988</ele>
        <time>2011-10-02T10:22:16Z</time>
      </trkpt>
      <trkpt lat="47.56464" lon="6.85027">
        <ele>359.394989</ele>
        <time>2011-10-02T10:22:22Z</time>
      </trkpt>
      <trkpt lat="47.56464" lon="6.85026">
        <ele>359.445007</ele>
        <time>2011-10-02T10:22:31Z</time>
      </trkpt>
      <trkpt lat="47.56473" lon="6.85027">
        <ele>359.014984</ele>
        <time>2011-10-02T10:22:35Z</time>
      </trkpt>
      <trkpt lat="47.56492" lon="6.85036">
        <ele>357.932526</ele>
        <time>2011-10-02T10:22:39Z</time>
      </trkpt>
      <trkpt lat="47.56517" lon="6.85056">
        <ele>356.683411</ele>
        <time>2011-10-02T10:22:43Z</time>
      </trkpt>
      <trkpt lat="47.56536" lon="6.85091">
        <ele>355.467712</ele>
        <time>2011-10-02T10:22:47Z</time>
      </trkpt>
      <trkpt lat="47.56538" lon="6.85102">
        <ele>355.168854</ele>
        <time>2011-10-02T10:22:48Z</time>
      </trkpt>
      <trkpt lat="47.56541" lon="6.85122">
        <ele>353.604675</ele>
        <time>2011-10-02T10:22:50Z</time>
      </trkpt>
      <trkpt lat="47.56536" lon="6.85149">
        <ele>350.810516</ele>
        <time>2011-10-02T10:22:54Z</time>
      </trkpt>
      <trkpt lat="47.56522" lon="6.85155">
        <ele>350.744629</ele>
        <time>2011-10-02T10:22:57Z</time>
      </trkpt>
      <trkpt lat="47.5651" lon="6.85178">
        <ele>349.314697</ele>
        <time>2011-10-02T10:23:02Z</time>
      </trkpt>
      <trkpt lat="47.56508" lon="6.85193">
        <ele>345.950623</ele>
        <time>2011-10-02T10:23:04Z</time>
      </trkpt>
      <trkpt lat="47.56501" lon="6.85225">
        <ele>340.235962</ele>
        <time>2011-10-02T10:23:08Z</time>
      </trkpt>
      <trkpt lat="47.56483" lon="6.85255">
        <ele>338.837036</ele>
        <time>2011-10-02T10:23:14Z</time>
      </trkpt>
      <trkpt lat="47.56461" lon="6.85283">
        <ele>336.899384</ele>
        <time>2011-10-02T10:23:19Z</time>
      </trkpt>
      <trkpt lat="47.56433" lon="6.85314">
        <ele>334.326263</ele>
        <time>2011-10-02T10:23:23Z</time>
      </trkpt>
      <trkpt lat="47.56386" lon="6.85363">
        <ele>333</ele>
        <time>2011-10-02T10:23:28Z</time>
      </trkpt>
      <trkpt lat="47.56334" lon="6.8542">
        <ele>333.158417</ele>
        <time>2011-10-02T10:23:33Z</time>
      </trkpt>
      <trkpt lat="47.5631" lon="6.85452">
        <ele>333</ele>
        <time>2011-10-02T10:23:36Z</time>
      </trkpt>
      <trkpt lat="47.56304" lon="6.85482">
        <ele>333</ele>
        <time>2011-10-02T10:23:39Z</time>
      </trkpt>
      <trkpt lat="47.56312" lon="6.85499">
        <ele>332.848755</ele>
        <time>2011-10-02T10:23:41Z</time>
      </trkpt>
      <trkpt lat="47.56356" lon="6.85565">
        <ele>332.054779</ele>
        <time>2011-10-02T10:23:50Z</time>
      </trkpt>
      <trkpt lat="47.56391" lon="6.85621">
        <ele>332.939545</ele>
        <time>2011-10-02T10:23:58Z</time>
      </trkpt>
      <trkpt lat="47.56422" lon="6.85669">
        <ele>333</ele>
        <time>2011-10-02T10:24:05Z</time>
      </trkpt>
      <trkpt lat="47.56431" lon="6.85702">
        <ele>333</ele>
        <time>2011-10-02T10:24:09Z</time>
      </trkpt>
      <trkpt lat="47.56424" lon="6.85726">
        <ele>333</ele>
        <time>2011-10-02T10:24:12Z</time>
      </trkpt>
      <trkpt lat="47.56416" lon="6.85749">
        <ele>333</ele>
        <time>2011-10-02T10:24:15Z</time>
      </trkpt>
      <trkpt lat="47.56407" lon="6.85766">
        <ele>333</ele>
        <time>2011-10-02T10:24:18Z</time>
      </trkpt>
      <trkpt lat="47.56399" lon="6.85788">
        <ele>333</ele>
        <time>2011-10-02T10:24:25Z</time>
      </trkpt>
      <trkpt lat="47.56398" lon="6.8579">
        <ele>333</ele>
        <time>2011-10-02T10:24:30Z</time>
      </trkpt>
      <trkpt lat="47.56398" lon="6.8579">
        <ele>333</ele>
        <time>2011-10-02T10:24:42Z</time>
      </trkpt>
      <trkpt lat="47.56393" lon="6.85804">
        <ele>333</ele>
        <time>2011-10-02T10:24:47Z</time>
      </trkpt>
      <trkpt lat="47.56382" lon="6.8583">
        <ele>332.962494</ele>
        <time>2011-10-02T10:24:52Z</time>
      </trkpt>
      <trkpt lat="47.56348" lon="6.85872">
        <ele>332.203003</ele>
        <time>2011-10-02T10:25:00Z</time>
      </trkpt>
      <trkpt lat="47.56314" lon="6.85912">
        <ele>332</ele>
        <time>2011-10-02T10:25:08Z</time>
      </trkpt>
      <trkpt lat="47.56272" lon="6.8596">
        <ele>332</ele>
        <time>2011-10-02T10:25:17Z</time>
      </trkpt>
      <trkpt lat="47.56236" lon="6.86001">
        <ele>332</ele>
        <time>2011-10-02T10:25:25Z</time>
      </trkpt>
      <trkpt lat="47.56193" lon="6.86049">
        <ele>332</ele>
        <time>2011-10-02T10:25:34Z</time>
      </trkpt>
      <trkpt lat="47.56152" lon="6.86087">
        <ele>332</ele>
        <time>2011-10-02T10:25:42Z</time>
      </trkpt>
      <trkpt lat="47.56107" lon="6.86111">
        <ele>332</ele>
        <time>2011-10-02T10:25:50Z</time>
      </trkpt>
      <trkpt lat="47.56043" lon="6.86144">
        <ele>332</ele>
        <time>2011-10-02T10:26:01Z</time>
      </trkpt>
      <trkpt lat="47.55989" lon="6.8617">
        <ele>332</ele>
        <time>2011-10-02T10:26:10Z</time>
      </trkpt>
      <trkpt lat="47.55918" lon="6.86206">
        <ele>332</ele>
        <time>2011-10-02T10:26:22Z</time>
      </trkpt>
      <trkpt lat="47.55873" lon="6.8623">
        <ele>332</ele>
        <time>2011-10-02T10:26:30Z</time>
      </trkpt>
      <trkpt lat="47.55852" lon="6.86242">
        <ele>332</ele>
        <time>2011-10-02T10:26:34Z</time>
      </trkpt>
      <trkpt lat="47.55832" lon="6.86271">
        <ele>332</ele>
        <time>2011-10-02T10:26:39Z</time>
      </trkpt>
      <trkpt lat="47.55826" lon="6.86302">
        <ele>332</ele>
        <time>2011-10-02T10:26:43Z</time>
      </trkpt>
      <trkpt lat="47.55827" lon="6.8631">
        <ele>332</ele>
        <time>2011-10-02T10:26:44Z</time>
      </trkpt>
      <trkpt lat="47.55833" lon="6.86368">
        <ele>332</ele>
        <time>2011-10-02T10:26:51Z</time>
      </trkpt>
      <trkpt lat="47.55842" lon="6.8644">
        <ele>332</ele>
        <time>2011-10-02T10:26:59Z</time>
      </trkpt>
      <trkpt lat="47.55848" lon="6.8649">
        <ele>332.642487</ele>
        <time>2011-10-02T10:27:04Z</time>
      </trkpt>
      <trkpt lat="47.55842" lon="6.86567">
        <ele>334.75473</ele>
        <time>2011-10-02T10:27:11Z</time>
      </trkpt>
      <trkpt lat="47.55839" lon="6.86591">
        <ele>335.943512</ele>
        <time>2011-10-02T10:27:13Z</time>
      </trkpt>
      <trkpt lat="47.55825" lon="6.86636">
        <ele>338.691071</ele>
        <time>2011-10-02T10:27:17Z</time>
      </trkpt>
      <trkpt lat="47.5582" lon="6.86645">
        <ele>339.048309</ele>
        <time>2011-10-02T10:27:18Z</time>
      </trkpt>
      <trkpt lat="47.55779" lon="6.86704">
        <ele>340.224152</ele>
        <time>2011-10-02T10:27:26Z</time>
      </trkpt>
      <trkpt lat="47.55747" lon="6.86739">
        <ele>340.870514</ele>
        <time>2011-10-02T10:27:33Z</time>
      </trkpt>
      <trkpt lat="47.55718" lon="6.86763">
        <ele>340.616241</ele>
        <time>2011-10-02T10:27:40Z</time>
      </trkpt>
      <trkpt lat="47.55701" lon="6.86773">
        <ele>340.257507</ele>
        <time>2011-10-02T10:27:44Z</time>
      </trkpt>
      <trkpt lat="47.55697" lon="6.86789">
        <ele>341.886993</ele>
        <time>2011-10-02T10:27:48Z</time>
      </trkpt>
      <trkpt lat="47.55706" lon="6.86796">
        <ele>343.333435</ele>
        <time>2011-10-02T10:27:52Z</time>
      </trkpt>
      <trkpt lat="47.55728" lon="6.86799">
        <ele>345.188904</ele>
        <time>2011-10-02T10:28:01Z</time>
      </trkpt>
      <trkpt lat="47.55749" lon="6.86802">
        <ele>346.329681</ele>
        <time>2011-10-02T10:28:09Z</time>
      </trkpt>
      <trkpt lat="47.55763" lon="6.86806">
        <ele>346.748291</ele>
        <time>2011-10-02T10:28:14Z</time>
      </trkpt>
      <trkpt lat="47.55776" lon="6.8681">
        <ele>347.2117</ele>
        <time>2011-10-02T10:28:20Z</time>
      </trkpt>
      <trkpt lat="47.55778" lon="6.86811">
        <ele>347.26355</ele>
        <time>2011-10-02T10:28:21Z</time>
      </trkpt>
      <trkpt lat="47.55784" lon="6.8681">
        <ele>347.225311</ele>
        <time>2011-10-02T10:28:25Z</time>
      </trkpt>
      <trkpt lat="47.55793" lon="6.86815">
        <ele>347.600677</ele>
        <time>2011-10-02T10:28:30Z</time>
      </trkpt>
      <trkpt lat="47.55817" lon="6.86824">
        <ele>348.118378</ele>
        <time>2011-10-02T10:28:37Z</time>
      </trkpt>
      <trkpt lat="47.55833" lon="6.8683">
        <ele>348.29184</ele>
        <time>2011-10-02T10:28:42Z</time>
      </trkpt>
      <trkpt lat="47.55838" lon="6.86846">
        <ele>349</ele>
        <time>2011-10-02T10:28:46Z</time>
      </trkpt>
      <trkpt lat="47.55838" lon="6.86869">
        <ele>350.457123</ele>
        <time>2011-10-02T10:28:52Z</time>
      </trkpt>
      <trkpt lat="47.55842" lon="6.86902">
        <ele>352.704071</ele>
        <time>2011-10-02T10:29:00Z</time>
      </trkpt>
      <trkpt lat="47.55848" lon="6.86936">
        <ele>354.871124</ele>
        <time>2011-10-02T10:29:08Z</time>
      </trkpt>
      <trkpt lat="47.55856" lon="6.86957">
        <ele>356.017639</ele>
        <time>2011-10-02T10:29:14Z</time>
      </trkpt>
      <trkpt lat="47.55863" lon="6.86972">
        <ele>356.637939</ele>
        <time>2011-10-02T10:29:18Z</time>
      </trkpt>
      <trkpt lat="47.55868" lon="6.86996">
        <ele>357.779999</ele>
        <time>2011-10-02T10:29:24Z</time>
      </trkpt>
      <trkpt lat="47.55871" lon="6.87017">
        <ele>358.97998</ele>
        <time>2011-10-02T10:29:29Z</time>
      </trkpt>
      <trkpt lat="47.55872" lon="6.87041">
        <ele>360.345001</ele>
        <time>2011-10-02T10:29:35Z</time>
      </trkpt>
      <trkpt lat="47.55875" lon="6.87064">
        <ele>361.855011</ele>
        <time>2011-10-02T10:29:41Z</time>
      </trkpt>
      <trkpt lat="47.55875" lon="6.87091">
        <ele>363.910004</ele>
        <time>2011-10-02T10:29:48Z</time>
      </trkpt>
      <trkpt lat="47.55878" lon="6.87117">
        <ele>365.757965</ele>
        <time>2011-10-02T10:29:55Z</time>
      </trkpt>
      <trkpt lat="47.55878" lon="6.87128">
        <ele>366.47995</ele>
        <time>2011-10-02T10:29:58Z</time>
      </trkpt>
      <trkpt lat="47.55879" lon="6.8715">
        <ele>367.942566</ele>
        <time>2011-10-02T10:30:05Z</time>
      </trkpt>
      <trkpt lat="47.55878" lon="6.87173">
        <ele>369.490906</ele>
        <time>2011-10-02T10:30:12Z</time>
      </trkpt>
      <trkpt lat="47.55879" lon="6.87195">
        <ele>370.91626</ele>
        <time>2011-10-02T10:30:18Z</time>
      </trkpt>
      <trkpt lat="47.55879" lon="6.87214">
        <ele>372.1716</ele>
        <time>2011-10-02T10:30:23Z</time>
      </trkpt>
      <trkpt lat="47.55879" lon="6.87242">
        <ele>374.055756</ele>
        <time>2011-10-02T10:30:31Z</time>
      </trkpt>
      <trkpt lat="47.55881" lon="6.87273">
        <ele>376.133148</ele>
        <time>2011-10-02T10:30:40Z</time>
      </trkpt>
      <trkpt lat="47.55885" lon="6.87303">
        <ele>378.436554</ele>
        <time>2011-10-02T10:30:49Z</time>
      </trkpt>
      <trkpt lat="47.55892" lon="6.87344">
        <ele>381.267975</ele>
        <time>2011-10-02T10:31:01Z</time>
      </trkpt>
      <trkpt lat="47.559" lon="6.87374">
        <ele>383.645508</ele>
        <time>2011-10-02T10:31:10Z</time>
      </trkpt>
      <trkpt lat="47.55906" lon="6.87394">
        <ele>385.339905</ele>
        <time>2011-10-02T10:31:17Z</time>
      </trkpt>
      <trkpt lat="47.55911" lon="6.87414">
        <ele>387.077332</ele>
        <time>2011-10-02T10:31:24Z</time>
      </trkpt>
      <trkpt lat="47.55917" lon="6.87438">
        <ele>389.206299</ele>
        <time>2011-10-02T10:31:32Z</time>
      </trkpt>
      <trkpt lat="47.55924" lon="6.87464">
        <ele>391.438263</ele>
        <time>2011-10-02T10:31:41Z</time>
      </trkpt>
      <trkpt lat="47.55933" lon="6.87475">
        <ele>392.930298</ele>
        <time>2011-10-02T10:31:47Z</time>
      </trkpt>
      <trkpt lat="47.55942" lon="6.87485">
        <ele>394.08194</ele>
        <time>2011-10-02T10:31:53Z</time>
      </trkpt>
      <trkpt lat="47.55948" lon="6.87496">
        <ele>395.101929</ele>
        <time>2011-10-02T10:31:58Z</time>
      </trkpt>
      <trkpt lat="47.55947" lon="6.87521">
        <ele>396.738739</ele>
        <time>2011-10-02T10:32:05Z</time>
      </trkpt>
      <trkpt lat="47.55948" lon="6.87535">
        <ele>397.391632</ele>
        <time>2011-10-02T10:32:10Z</time>
      </trkpt>
      <trkpt lat="47.55949" lon="6.87547">
        <ele>397.918579</ele>
        <time>2011-10-02T10:32:14Z</time>
      </trkpt>
      <trkpt lat="47.55956" lon="6.87559">
        <ele>398.879089</ele>
        <time>2011-10-02T10:32:19Z</time>
      </trkpt>
      <trkpt lat="47.55959" lon="6.87585">
        <ele>400.158386</ele>
        <time>2011-10-02T10:32:27Z</time>
      </trkpt>
      <trkpt lat="47.55959" lon="6.87605">
        <ele>401.117493</ele>
        <time>2011-10-02T10:32:34Z</time>
      </trkpt>
      <trkpt lat="47.55958" lon="6.87627">
        <ele>402.038208</ele>
        <time>2011-10-02T10:32:41Z</time>
      </trkpt>
      <trkpt lat="47.55959" lon="6.87652">
        <ele>403.178497</ele>
        <time>2011-10-02T10:32:49Z</time>
      </trkpt>
      <trkpt lat="47.5596" lon="6.87673">
        <ele>403.904999</ele>
        <time>2011-10-02T10:32:56Z</time>
      </trkpt>
      <trkpt lat="47.55964" lon="6.87693">
        <ele>404.690002</ele>
        <time>2011-10-02T10:33:03Z</time>
      </trkpt>
      <trkpt lat="47.55966" lon="6.87708">
        <ele>405.257507</ele>
        <time>2011-10-02T10:33:08Z</time>
      </trkpt>
      <trkpt lat="47.55969" lon="6.87731">
        <ele>406.48999</ele>
        <time>2011-10-02T10:33:15Z</time>
      </trkpt>
      <trkpt lat="47.55972" lon="6.87752">
        <ele>408.18689</ele>
        <time>2011-10-02T10:33:22Z</time>
      </trkpt>
      <trkpt lat="47.55973" lon="6.87769">
        <ele>409.463959</ele>
        <time>2011-10-02T10:33:28Z</time>
      </trkpt>
      <trkpt lat="47.55974" lon="6.87789">
        <ele>410.969269</ele>
        <time>2011-10-02T10:33:35Z</time>
      </trkpt>
      <trkpt lat="47.55974" lon="6.87794">
        <ele>411.322876</ele>
        <time>2011-10-02T10:33:37Z</time>
      </trkpt>
      <trkpt lat="47.55976" lon="6.87807">
        <ele>412.120483</ele>
        <time>2011-10-02T10:33:41Z</time>
      </trkpt>
      <trkpt lat="47.55978" lon="6.87836">
        <ele>413.932892</ele>
        <time>2011-10-02T10:33:49Z</time>
      </trkpt>
      <trkpt lat="47.55978" lon="6.87851">
        <ele>414.891602</ele>
        <time>2011-10-02T10:33:54Z</time>
      </trkpt>
      <trkpt lat="47.55978" lon="6.87875">
        <ele>416.488953</ele>
        <time>2011-10-02T10:34:01Z</time>
      </trkpt>
      <trkpt lat="47.55984" lon="6.87895">
        <ele>417.92688</ele>
        <time>2011-10-02T10:34:07Z</time>
      </trkpt>
      <trkpt lat="47.55991" lon="6.87915">
        <ele>419.524536</ele>
        <time>2011-10-02T10:34:13Z</time>
      </trkpt>
      <trkpt lat="47.55996" lon="6.87932">
        <ele>420.376801</ele>
        <time>2011-10-02T10:34:19Z</time>
      </trkpt>
      <trkpt lat="47.55996" lon="6.87952">
        <ele>420.334503</ele>
        <time>2011-10-02T10:34:24Z</time>
      </trkpt>
      <trkpt lat="47.56001" lon="6.87977">
        <ele>420.596527</ele>
        <time>2011-10-02T10:34:30Z</time>
      </trkpt>
      <trkpt lat="47.56008" lon="6.87996">
        <ele>420.886078</ele>
        <time>2011-10-02T10:34:35Z</time>
      </trkpt>
      <trkpt lat="47.56009" lon="6.87999">
        <ele>420.848511</ele>
        <time>2011-10-02T10:34:36Z</time>
      </trkpt>
      <trkpt lat="47.56016" lon="6.88017">
        <ele>420.630188</ele>
        <time>2011-10-02T10:34:41Z</time>
      </trkpt>
      <trkpt lat="47.5603" lon="6.88046">
        <ele>420.85968</ele>
        <time>2011-10-02T10:34:48Z</time>
      </trkpt>
      <trkpt lat="47.56046" lon="6.88074">
        <ele>421.391113</ele>
        <time>2011-10-02T10:34:55Z</time>
      </trkpt>
      <trkpt lat="47.56053" lon="6.88102">
        <ele>421.144989</ele>
        <time>2011-10-02T10:35:01Z</time>
      </trkpt>
      <trkpt lat="47.56053" lon="6.88139">
        <ele>420.444427</ele>
        <time>2011-10-02T10:35:07Z</time>
      </trkpt>
      <trkpt lat="47.56045" lon="6.88159">
        <ele>419.040161</ele>
        <time>2011-10-02T10:35:11Z</time>
      </trkpt>
      <trkpt lat="47.56029" lon="6.88181">
        <ele>416.684753</ele>
        <time>2011-10-02T10:35:16Z</time>
      </trkpt>
      <trkpt lat="47.56015" lon="6.88201">
        <ele>414.369019</ele>
        <time>2011-10-02T10:35:21Z</time>
      </trkpt>
      <trkpt lat="47.56007" lon="6.88216">
        <ele>412.526001</ele>
        <time>2011-10-02T10:35:24Z</time>
      </trkpt>
      <trkpt lat="47.55988" lon="6.88245">
        <ele>408.00174</ele>
        <time>2011-10-02T10:35:29Z</time>
      </trkpt>
      <trkpt lat="47.55973" lon="6.88264">
        <ele>404.172211</ele>
        <time>2011-10-02T10:35:33Z</time>
      </trkpt>
      <trkpt lat="47.55969" lon="6.88267">
        <ele>403.4263</ele>
        <time>2011-10-02T10:35:34Z</time>
      </trkpt>
      <trkpt lat="47.55958" lon="6.8828">
        <ele>401.365662</ele>
        <time>2011-10-02T10:35:38Z</time>
      </trkpt>
      <trkpt lat="47.5594" lon="6.88293">
        <ele>399.204803</ele>
        <time>2011-10-02T10:35:42Z</time>
      </trkpt>
      <trkpt lat="47.55934" lon="6.88295">
        <ele>398.775421</ele>
        <time>2011-10-02T10:35:43Z</time>
      </trkpt>
      <trkpt lat="47.55899" lon="6.88306">
        <ele>396.247314</ele>
        <time>2011-10-02T10:35:49Z</time>
      </trkpt>
      <trkpt lat="47.55873" lon="6.8831">
        <ele>393.591644</ele>
        <time>2011-10-02T10:35:53Z</time>
      </trkpt>
      <trkpt lat="47.55863" lon="6.88313">
        <ele>392.461487</ele>
        <time>2011-10-02T10:35:55Z</time>
      </trkpt>
      <trkpt lat="47.5584" lon="6.88322">
        <ele>390.438171</ele>
        <time>2011-10-02T10:35:59Z</time>
      </trkpt>
      <trkpt lat="47.55813" lon="6.88323">
        <ele>387.471375</ele>
        <time>2011-10-02T10:36:03Z</time>
      </trkpt>
      <trkpt lat="47.55782" lon="6.88323">
        <ele>385.425995</ele>
        <time>2011-10-02T10:36:08Z</time>
      </trkpt>
      <trkpt lat="47.55754" lon="6.88327">
        <ele>383.002289</ele>
        <time>2011-10-02T10:36:13Z</time>
      </trkpt>
      <trkpt lat="47.55732" lon="6.8833">
        <ele>380.411835</ele>
        <time>2011-10-02T10:36:17Z</time>
      </trkpt>
      <trkpt lat="47.55704" lon="6.88331">
        <ele>377.996399</ele>
        <time>2011-10-02T10:36:23Z</time>
      </trkpt>
      <trkpt lat="47.55701" lon="6.88332">
        <ele>377.808777</ele>
        <time>2011-10-02T10:36:24Z</time>
      </trkpt>
      <trkpt lat="47.55698" lon="6.88345">
        <ele>378.105072</ele>
        <time>2011-10-02T10:36:29Z</time>
      </trkpt>
      <trkpt lat="47.55711" lon="6.88356">
        <ele>379.61499</ele>
        <time>2011-10-02T10:36:34Z</time>
      </trkpt>
      <trkpt lat="47.55735" lon="6.88376">
        <ele>383.381744</ele>
        <time>2011-10-02T10:36:42Z</time>
      </trkpt>
      <trkpt lat="47.55747" lon="6.88387">
        <ele>385.720245</ele>
        <time>2011-10-02T10:36:46Z</time>
      </trkpt>
      <trkpt lat="47.55753" lon="6.884">
        <ele>387.277588</ele>
        <time>2011-10-02T10:36:50Z</time>
      </trkpt>
      <trkpt lat="47.55756" lon="6.88426">
        <ele>389.012238</ele>
        <time>2011-10-02T10:36:56Z</time>
      </trkpt>
      <trkpt lat="47.5576" lon="6.88444">
        <ele>390.338074</ele>
        <time>2011-10-02T10:37:00Z</time>
      </trkpt>
      <trkpt lat="47.55771" lon="6.88473">
        <ele>391.720001</ele>
        <time>2011-10-02T10:37:07Z</time>
      </trkpt>
      <trkpt lat="47.55775" lon="6.88496">
        <ele>392.200012</ele>
        <time>2011-10-02T10:37:13Z</time>
      </trkpt>
      <trkpt lat="47.55779" lon="6.88508">
        <ele>392.462097</ele>
        <time>2011-10-02T10:37:18Z</time>
      </trkpt>
      <trkpt lat="47.55782" lon="6.88515">
        <ele>392.601746</ele>
        <time>2011-10-02T10:37:26Z</time>
      </trkpt>
      <trkpt lat="47.55784" lon="6.88539">
        <ele>392.32605</ele>
        <time>2011-10-02T10:37:32Z</time>
      </trkpt>
      <trkpt lat="47.55787" lon="6.88563">
        <ele>392.070587</ele>
        <time>2011-10-02T10:37:38Z</time>
      </trkpt>
      <trkpt lat="47.55791" lon="6.88593">
        <ele>392.507202</ele>
        <time>2011-10-02T10:37:45Z</time>
      </trkpt>
      <trkpt lat="47.55787" lon="6.88613">
        <ele>392.830811</ele>
        <time>2011-10-02T10:37:50Z</time>
      </trkpt>
      <trkpt lat="47.55784" lon="6.88628">
        <ele>393.155914</ele>
        <time>2011-10-02T10:37:54Z</time>
      </trkpt>
      <trkpt lat="47.5579" lon="6.88654">
        <ele>394.140015</ele>
        <time>2011-10-02T10:38:02Z</time>
      </trkpt>
      <trkpt lat="47.55796" lon="6.88674">
        <ele>395.220001</ele>
        <time>2011-10-02T10:38:09Z</time>
      </trkpt>
      <trkpt lat="47.55802" lon="6.88698">
        <ele>396.659119</ele>
        <time>2011-10-02T10:38:16Z</time>
      </trkpt>
      <trkpt lat="47.55811" lon="6.88736">
        <ele>399.961395</ele>
        <time>2011-10-02T10:38:26Z</time>
      </trkpt>
      <trkpt lat="47.5582" lon="6.88774">
        <ele>402.987671</ele>
        <time>2011-10-02T10:38:36Z</time>
      </trkpt>
      <trkpt lat="47.5583" lon="6.88806">
        <ele>404.850006</ele>
        <time>2011-10-02T10:38:45Z</time>
      </trkpt>
      <trkpt lat="47.55833" lon="6.88827">
        <ele>406.11499</ele>
        <time>2011-10-02T10:38:51Z</time>
      </trkpt>
      <trkpt lat="47.55838" lon="6.88851">
        <ele>407.137604</ele>
        <time>2011-10-02T10:38:58Z</time>
      </trkpt>
      <trkpt lat="47.55845" lon="6.88882">
        <ele>407.486572</ele>
        <time>2011-10-02T10:39:07Z</time>
      </trkpt>
      <trkpt lat="47.55844" lon="6.88903">
        <ele>407.747009</ele>
        <time>2011-10-02T10:39:13Z</time>
      </trkpt>
      <trkpt lat="47.55839" lon="6.88934">
        <ele>408.609833</ele>
        <time>2011-10-02T10:39:22Z</time>
      </trkpt>
      <trkpt lat="47.55832" lon="6.88973">
        <ele>409.970001</ele>
        <time>2011-10-02T10:39:33Z</time>
      </trkpt>
      <trkpt lat="47.55828" lon="6.89007">
        <ele>411.075806</ele>
        <time>2011-10-02T10:39:42Z</time>
      </trkpt>
      <trkpt lat="47.55822" lon="6.89035">
        <ele>412.208801</ele>
        <time>2011-10-02T10:39:50Z</time>
      </trkpt>
      <trkpt lat="47.55815" lon="6.8907">
        <ele>413.10376</ele>
        <time>2011-10-02T10:40:00Z</time>
      </trkpt>
      <trkpt lat="47.5581" lon="6.89103">
        <ele>413.758759</ele>
        <time>2011-10-02T10:40:09Z</time>
      </trkpt>
      <trkpt lat="47.55805" lon="6.89126">
        <ele>413.705566</ele>
        <time>2011-10-02T10:40:15Z</time>
      </trkpt>
      <trkpt lat="47.55803" lon="6.89154">
        <ele>413.320679</ele>
        <time>2011-10-02T10:40:22Z</time>
      </trkpt>
      <trkpt lat="47.55798" lon="6.8919">
        <ele>412.549988</ele>
        <time>2011-10-02T10:40:30Z</time>
      </trkpt>
      <trkpt lat="47.55789" lon="6.8922">
        <ele>411.852509</ele>
        <time>2011-10-02T10:40:36Z</time>
      </trkpt>
      <trkpt lat="47.5578" lon="6.89276">
        <ele>409.836212</ele>
        <time>2011-10-02T10:40:43Z</time>
      </trkpt>
      <trkpt lat="47.55779" lon="6.89317">
        <ele>407.79184</ele>
        <time>2011-10-02T10:40:48Z</time>
      </trkpt>
      <trkpt lat="47.5578" lon="6.89337">
        <ele>406.745941</ele>
        <time>2011-10-02T10:40:51Z</time>
      </trkpt>
      <trkpt lat="47.55791" lon="6.89366">
        <ele>405.522736</ele>
        <time>2011-10-02T10:40:56Z</time>
      </trkpt>
      <trkpt lat="47.55796" lon="6.89369">
        <ele>405.546417</ele>
        <time>2011-10-02T10:41:00Z</time>
      </trkpt>
      <trkpt lat="47.55796" lon="6.89369">
        <ele>405.535858</ele>
        <time>2011-10-02T10:41:06Z</time>
      </trkpt>
      <trkpt lat="47.55794" lon="6.89368">
        <ele>405.527527</ele>
        <time>2011-10-02T10:41:24Z</time>
      </trkpt>
      <trkpt lat="47.55794" lon="6.89365">
        <ele>405.574188</ele>
        <time>2011-10-02T10:42:29Z</time>
      </trkpt>
      <trkpt lat="47.55794" lon="6.89367">
        <ele>405.544403</ele>
        <time>2011-10-02T10:43:23Z</time>
      </trkpt>
      <trkpt lat="47.5579" lon="6.89374">
        <ele>405.332886</ele>
        <time>2011-10-02T10:50:54Z</time>
      </trkpt>
      <trkpt lat="47.5579" lon="6.89373">
        <ele>405.343201</ele>
        <time>2011-10-02T10:51:37Z</time>
      </trkpt>
      <trkpt lat="47.55792" lon="6.89368">
        <ele>405.479187</ele>
        <time>2011-10-02T10:54:01Z</time>
      </trkpt>
      <trkpt lat="47.55792" lon="6.89369">
        <ele>405.464081</ele>
        <time>2011-10-02T10:54:07Z</time>
      </trkpt>
      <trkpt lat="47.55799" lon="6.89374">
        <ele>405.568665</ele>
        <time>2011-10-02T10:54:12Z</time>
      </trkpt>
      <trkpt lat="47.55803" lon="6.89371">
        <ele>405.6651</ele>
        <time>2011-10-02T10:54:15Z</time>
      </trkpt>
      <trkpt lat="47.55803" lon="6.89371">
        <ele>405.674744</ele>
        <time>2011-10-02T10:54:18Z</time>
      </trkpt>
      <trkpt lat="47.5581" lon="6.89363">
        <ele>405.69281</ele>
        <time>2011-10-02T10:54:22Z</time>
      </trkpt>
      <trkpt lat="47.55827" lon="6.89328">
        <ele>403.735901</ele>
        <time>2011-10-02T10:54:28Z</time>
      </trkpt>
      <trkpt lat="47.55841" lon="6.89305">
        <ele>401.529175</ele>
        <time>2011-10-02T10:54:31Z</time>
      </trkpt>
      <trkpt lat="47.55852" lon="6.89292">
        <ele>401.434021</ele>
        <time>2011-10-02T10:54:33Z</time>
      </trkpt>
      <trkpt lat="47.55866" lon="6.893">
        <ele>399.046234</ele>
        <time>2011-10-02T10:54:37Z</time>
      </trkpt>
      <trkpt lat="47.55871" lon="6.89304">
        <ele>398.143738</ele>
        <time>2011-10-02T10:54:38Z</time>
      </trkpt>
      <trkpt lat="47.5588" lon="6.89314">
        <ele>396.511719</ele>
        <time>2011-10-02T10:54:40Z</time>
      </trkpt>
      <trkpt lat="47.55909" lon="6.89333">
        <ele>394.697144</ele>
        <time>2011-10-02T10:54:45Z</time>
      </trkpt>
      <trkpt lat="47.5593" lon="6.89338">
        <ele>393.731537</ele>
        <time>2011-10-02T10:54:49Z</time>
      </trkpt>
      <trkpt lat="47.55953" lon="6.89337">
        <ele>392.227264</ele>
        <time>2011-10-02T10:54:53Z</time>
      </trkpt>
      <trkpt lat="47.55987" lon="6.8934">
        <ele>388.721619</ele>
        <time>2011-10-02T10:54:58Z</time>
      </trkpt>
      <trkpt lat="47.55995" lon="6.89344">
        <ele>388.006409</ele>
        <time>2011-10-02T10:55:01Z</time>
      </trkpt>
      <trkpt lat="47.56002" lon="6.89349">
        <ele>387.627869</ele>
        <time>2011-10-02T10:55:04Z</time>
      </trkpt>
      <trkpt lat="47.56018" lon="6.89352">
        <ele>386.089691</ele>
        <time>2011-10-02T10:55:09Z</time>
      </trkpt>
      <trkpt lat="47.56033" lon="6.89348">
        <ele>384.124146</ele>
        <time>2011-10-02T10:55:12Z</time>
      </trkpt>
      <trkpt lat="47.56058" lon="6.8932">
        <ele>381.376953</ele>
        <time>2011-10-02T10:55:18Z</time>
      </trkpt>
      <trkpt lat="47.56065" lon="6.89311">
        <ele>381.082214</ele>
        <time>2011-10-02T10:55:20Z</time>
      </trkpt>
      <trkpt lat="47.56075" lon="6.89296">
        <ele>380.834808</ele>
        <time>2011-10-02T10:55:23Z</time>
      </trkpt>
      <trkpt lat="47.56088" lon="6.89301">
        <ele>380.488129</ele>
        <time>2011-10-02T10:55:27Z</time>
      </trkpt>
      <trkpt lat="47.5609" lon="6.89307">
        <ele>380.34375</ele>
        <time>2011-10-02T10:55:28Z</time>
      </trkpt>
      <trkpt lat="47.56103" lon="6.89347">
        <ele>379.602509</ele>
        <time>2011-10-02T10:55:34Z</time>
      </trkpt>
      <trkpt lat="47.56123" lon="6.89394">
        <ele>379.334991</ele>
        <time>2011-10-02T10:55:41Z</time>
      </trkpt>
      <trkpt lat="47.56139" lon="6.89439">
        <ele>379.087006</ele>
        <time>2011-10-02T10:55:47Z</time>
      </trkpt>
      <trkpt lat="47.56158" lon="6.89498">
        <ele>379.228027</ele>
        <time>2011-10-02T10:55:54Z</time>
      </trkpt>
      <trkpt lat="47.56181" lon="6.89559">
        <ele>379.131805</ele>
        <time>2011-10-02T10:56:02Z</time>
      </trkpt>
      <trkpt lat="47.56197" lon="6.89601">
        <ele>379.027802</ele>
        <time>2011-10-02T10:56:08Z</time>
      </trkpt>
      <trkpt lat="47.56225" lon="6.89677">
        <ele>378.411926</ele>
        <time>2011-10-02T10:56:18Z</time>
      </trkpt>
      <trkpt lat="47.56245" lon="6.89736">
        <ele>377.551483</ele>
        <time>2011-10-02T10:56:25Z</time>
      </trkpt>
      <trkpt lat="47.56274" lon="6.89812">
        <ele>376.47876</ele>
        <time>2011-10-02T10:56:34Z</time>
      </trkpt>
      <trkpt lat="47.56289" lon="6.89876">
        <ele>376.216248</ele>
        <time>2011-10-02T10:56:41Z</time>
      </trkpt>
      <trkpt lat="47.56301" lon="6.8988">
        <ele>375.115723</ele>
        <time>2011-10-02T10:56:44Z</time>
      </trkpt>
      <trkpt lat="47.56306" lon="6.89877">
        <ele>374.535675</ele>
        <time>2011-10-02T10:56:45Z</time>
      </trkpt>
      <trkpt lat="47.56348" lon="6.89859">
        <ele>370.331909</ele>
        <time>2011-10-02T10:56:51Z</time>
      </trkpt>
      <trkpt lat="47.56417" lon="6.89829">
        <ele>368.512207</ele>
        <time>2011-10-02T10:56:59Z</time>
      </trkpt>
      <trkpt lat="47.56462" lon="6.89809">
        <ele>370.542389</ele>
        <time>2011-10-02T10:57:05Z</time>
      </trkpt>
      <trkpt lat="47.56507" lon="6.89791">
        <ele>370.067871</ele>
        <time>2011-10-02T10:57:12Z</time>
      </trkpt>
      <trkpt lat="47.56561" lon="6.89766">
        <ele>369.242645</ele>
        <time>2011-10-02T10:57:20Z</time>
      </trkpt>
      <trkpt lat="47.56599" lon="6.89751">
        <ele>369.869263</ele>
        <time>2011-10-02T10:57:26Z</time>
      </trkpt>
      <trkpt lat="47.56605" lon="6.89749">
        <ele>370.032684</ele>
        <time>2011-10-02T10:57:27Z</time>
      </trkpt>
      <trkpt lat="47.56646" lon="6.8973">
        <ele>372.492493</ele>
        <time>2011-10-02T10:57:35Z</time>
      </trkpt>
      <trkpt lat="47.5666" lon="6.89724">
        <ele>373.422485</ele>
        <time>2011-10-02T10:57:38Z</time>
      </trkpt>
      <trkpt lat="47.56687" lon="6.89712">
        <ele>375.213501</ele>
        <time>2011-10-02T10:57:44Z</time>
      </trkpt>
      <trkpt lat="47.56696" lon="6.89709">
        <ele>375.608704</ele>
        <time>2011-10-02T10:57:46Z</time>
      </trkpt>
      <trkpt lat="47.5671" lon="6.897">
        <ele>376.179993</ele>
        <time>2011-10-02T10:57:49Z</time>
      </trkpt>
      <trkpt lat="47.56735" lon="6.89674">
        <ele>377.26001</ele>
        <time>2011-10-02T10:57:56Z</time>
      </trkpt>
      <trkpt lat="47.56746" lon="6.89665">
        <ele>377.75</ele>
        <time>2011-10-02T10:57:59Z</time>
      </trkpt>
      <trkpt lat="47.56769" lon="6.89651">
        <ele>378.255005</ele>
        <time>2011-10-02T10:58:05Z</time>
      </trkpt>
      <trkpt lat="47.56787" lon="6.89639">
        <ele>378.247498</ele>
        <time>2011-10-02T10:58:10Z</time>
      </trkpt>
      <trkpt lat="47.56804" lon="6.89625">
        <ele>378.022491</ele>
        <time>2011-10-02T10:58:15Z</time>
      </trkpt>
      <trkpt lat="47.56807" lon="6.89622">
        <ele>377.940002</ele>
        <time>2011-10-02T10:58:16Z</time>
      </trkpt>
      <trkpt lat="47.56819" lon="6.89625">
        <ele>377.987488</ele>
        <time>2011-10-02T10:58:20Z</time>
      </trkpt>
      <trkpt lat="47.56822" lon="6.89628">
        <ele>378.079987</ele>
        <time>2011-10-02T10:58:21Z</time>
      </trkpt>
      <trkpt lat="47.56836" lon="6.89654">
        <ele>378.807495</ele>
        <time>2011-10-02T10:58:27Z</time>
      </trkpt>
      <trkpt lat="47.56848" lon="6.89679">
        <ele>379.527496</ele>
        <time>2011-10-02T10:58:32Z</time>
      </trkpt>
      <trkpt lat="47.56861" lon="6.89703">
        <ele>380.230011</ele>
        <time>2011-10-02T10:58:37Z</time>
      </trkpt>
      <trkpt lat="47.56874" lon="6.8972">
        <ele>380.712494</ele>
        <time>2011-10-02T10:58:41Z</time>
      </trkpt>
      <trkpt lat="47.56887" lon="6.89748">
        <ele>381.195007</ele>
        <time>2011-10-02T10:58:47Z</time>
      </trkpt>
      <trkpt lat="47.56905" lon="6.8979">
        <ele>381.348755</ele>
        <time>2011-10-02T10:58:53Z</time>
      </trkpt>
      <trkpt lat="47.56931" lon="6.89847">
        <ele>381.686249</ele>
        <time>2011-10-02T10:59:02Z</time>
      </trkpt>
      <trkpt lat="47.56951" lon="6.89895">
        <ele>382</ele>
        <time>2011-10-02T10:59:10Z</time>
      </trkpt>
      <trkpt lat="47.56973" lon="6.89946">
        <ele>381.757751</ele>
        <time>2011-10-02T10:59:18Z</time>
      </trkpt>
      <trkpt lat="47.57001" lon="6.90009">
        <ele>380.956451</ele>
        <time>2011-10-02T10:59:28Z</time>
      </trkpt>
      <trkpt lat="47.57023" lon="6.90064">
        <ele>380.819641</ele>
        <time>2011-10-02T10:59:36Z</time>
      </trkpt>
      <trkpt lat="47.57045" lon="6.90108">
        <ele>381.212708</ele>
        <time>2011-10-02T10:59:43Z</time>
      </trkpt>
      <trkpt lat="47.57051" lon="6.90119">
        <ele>381.485992</ele>
        <time>2011-10-02T10:59:45Z</time>
      </trkpt>
      <trkpt lat="47.57057" lon="6.90143">
        <ele>381.574341</ele>
        <time>2011-10-02T10:59:49Z</time>
      </trkpt>
      <trkpt lat="47.57057" lon="6.90172">
        <ele>380.852509</ele>
        <time>2011-10-02T10:59:53Z</time>
      </trkpt>
      <trkpt lat="47.57062" lon="6.90215">
        <ele>379.914642</ele>
        <time>2011-10-02T10:59:58Z</time>
      </trkpt>
      <trkpt lat="47.5707" lon="6.9027">
        <ele>377.837402</ele>
        <time>2011-10-02T11:00:05Z</time>
      </trkpt>
      <trkpt lat="47.57079" lon="6.90299">
        <ele>377.381653</ele>
        <time>2011-10-02T11:00:09Z</time>
      </trkpt>
      <trkpt lat="47.57094" lon="6.9035">
        <ele>376.46814</ele>
        <time>2011-10-02T11:00:16Z</time>
      </trkpt>
      <trkpt lat="47.57104" lon="6.9038">
        <ele>376.107208</ele>
        <time>2011-10-02T11:00:21Z</time>
      </trkpt>
      <trkpt lat="47.5712" lon="6.9042">
        <ele>376.089996</ele>
        <time>2011-10-02T11:00:27Z</time>
      </trkpt>
      <trkpt lat="47.57132" lon="6.90436">
        <ele>376.167755</ele>
        <time>2011-10-02T11:00:31Z</time>
      </trkpt>
      <trkpt lat="47.57141" lon="6.9043">
        <ele>376.976196</ele>
        <time>2011-10-02T11:00:34Z</time>
      </trkpt>
      <trkpt lat="47.57147" lon="6.90423">
        <ele>377.705688</ele>
        <time>2011-10-02T11:00:36Z</time>
      </trkpt>
      <trkpt lat="47.57174" lon="6.90383">
        <ele>380.130005</ele>
        <time>2011-10-02T11:00:44Z</time>
      </trkpt>
      <trkpt lat="47.57191" lon="6.90355">
        <ele>380.705017</ele>
        <time>2011-10-02T11:00:49Z</time>
      </trkpt>
      <trkpt lat="47.57204" lon="6.90335">
        <ele>381.035004</ele>
        <time>2011-10-02T11:00:54Z</time>
      </trkpt>
      <trkpt lat="47.5722" lon="6.90313">
        <ele>381.404999</ele>
        <time>2011-10-02T11:01:00Z</time>
      </trkpt>
      <trkpt lat="47.5724" lon="6.9029">
        <ele>379.903961</ele>
        <time>2011-10-02T11:01:07Z</time>
      </trkpt>
      <trkpt lat="47.57261" lon="6.9027">
        <ele>378.36615</ele>
        <time>2011-10-02T11:01:14Z</time>
      </trkpt>
      <trkpt lat="47.57288" lon="6.90251">
        <ele>377.480072</ele>
        <time>2011-10-02T11:01:22Z</time>
      </trkpt>
      <trkpt lat="47.57324" lon="6.9023">
        <ele>377.269623</ele>
        <time>2011-10-02T11:01:32Z</time>
      </trkpt>
      <trkpt lat="47.5735" lon="6.90215">
        <ele>378.420105</ele>
        <time>2011-10-02T11:01:39Z</time>
      </trkpt>
      <trkpt lat="47.57385" lon="6.90197">
        <ele>380.881042</ele>
        <time>2011-10-02T11:01:48Z</time>
      </trkpt>
      <trkpt lat="47.57417" lon="6.90179">
        <ele>383.198761</ele>
        <time>2011-10-02T11:01:56Z</time>
      </trkpt>
      <trkpt lat="47.57449" lon="6.90162">
        <ele>385.086456</ele>
        <time>2011-10-02T11:02:04Z</time>
      </trkpt>
      <trkpt lat="47.57483" lon="6.90143">
        <ele>385.477509</ele>
        <time>2011-10-02T11:02:12Z</time>
      </trkpt>
      <trkpt lat="47.57526" lon="6.90119">
        <ele>383.314789</ele>
        <time>2011-10-02T11:02:21Z</time>
      </trkpt>
      <trkpt lat="47.57564" lon="6.90098">
        <ele>381.561249</ele>
        <time>2011-10-02T11:02:28Z</time>
      </trkpt>
      <trkpt lat="47.57609" lon="6.90075">
        <ele>380.018738</ele>
        <time>2011-10-02T11:02:35Z</time>
      </trkpt>
      <trkpt lat="47.57646" lon="6.90056">
        <ele>378.611511</ele>
        <time>2011-10-02T11:02:40Z</time>
      </trkpt>
      <trkpt lat="47.57704" lon="6.90021">
        <ele>375.30304</ele>
        <time>2011-10-02T11:02:47Z</time>
      </trkpt>
      <trkpt lat="47.57753" lon="6.89995">
        <ele>373.862488</ele>
        <time>2011-10-02T11:02:53Z</time>
      </trkpt>
      <trkpt lat="47.5777" lon="6.89987">
        <ele>373.736267</ele>
        <time>2011-10-02T11:02:56Z</time>
      </trkpt>
      <trkpt lat="47.57785" lon="6.89961">
        <ele>374.394989</ele>
        <time>2011-10-02T11:03:00Z</time>
      </trkpt>
      <trkpt lat="47.57788" lon="6.89943">
        <ele>374.964996</ele>
        <time>2011-10-02T11:03:02Z</time>
      </trkpt>
      <trkpt lat="47.57787" lon="6.89896">
        <ele>377.036255</ele>
        <time>2011-10-02T11:03:07Z</time>
      </trkpt>
      <trkpt lat="47.57788" lon="6.89878">
        <ele>377.86499</ele>
        <time>2011-10-02T11:03:09Z</time>
      </trkpt>
      <trkpt lat="47.57802" lon="6.89855">
        <ele>378.318756</ele>
        <time>2011-10-02T11:03:13Z</time>
      </trkpt>
      <trkpt lat="47.57821" lon="6.89846">
        <ele>378.477509</ele>
        <time>2011-10-02T11:03:17Z</time>
      </trkpt>
      <trkpt lat="47.57826" lon="6.89842">
        <ele>378.548737</ele>
        <time>2011-10-02T11:03:18Z</time>
      </trkpt>
      <trkpt lat="47.57858" lon="6.89797">
        <ele>379.660004</ele>
        <time>2011-10-02T11:03:26Z</time>
      </trkpt>
      <trkpt lat="47.57869" lon="6.89779">
        <ele>379.899994</ele>
        <time>2011-10-02T11:03:29Z</time>
      </trkpt>
      <trkpt lat="47.5789" lon="6.89768">
        <ele>380</ele>
        <time>2011-10-02T11:03:33Z</time>
      </trkpt>
      <trkpt lat="47.57895" lon="6.89767">
        <ele>380</ele>
        <time>2011-10-02T11:03:34Z</time>
      </trkpt>
      <trkpt lat="47.57912" lon="6.89778">
        <ele>380</ele>
        <time>2011-10-02T11:03:38Z</time>
      </trkpt>
      <trkpt lat="47.57942" lon="6.89835">
        <ele>380</ele>
        <time>2011-10-02T11:03:47Z</time>
      </trkpt>
      <trkpt lat="47.57961" lon="6.89879">
        <ele>380</ele>
        <time>2011-10-02T11:03:54Z</time>
      </trkpt>
      <trkpt lat="47.57975" lon="6.89902">
        <ele>380.059448</ele>
        <time>2011-10-02T11:03:58Z</time>
      </trkpt>
      <trkpt lat="47.57994" lon="6.89919">
        <ele>380.310089</ele>
        <time>2011-10-02T11:04:02Z</time>
      </trkpt>
      <trkpt lat="47.58004" lon="6.89924">
        <ele>380.474701</ele>
        <time>2011-10-02T11:04:04Z</time>
      </trkpt>
      <trkpt lat="47.58035" lon="6.89921">
        <ele>380.816742</ele>
        <time>2011-10-02T11:04:09Z</time>
      </trkpt>
      <trkpt lat="47.58042" lon="6.89918">
        <ele>380.894409</ele>
        <time>2011-10-02T11:04:10Z</time>
      </trkpt>
      <trkpt lat="47.58087" lon="6.89886">
        <ele>380.785004</ele>
        <time>2011-10-02T11:04:16Z</time>
      </trkpt>
      <trkpt lat="47.58135" lon="6.89838">
        <ele>381.687408</ele>
        <time>2011-10-02T11:04:22Z</time>
      </trkpt>
      <trkpt lat="47.58202" lon="6.89775">
        <ele>381.876617</ele>
        <time>2011-10-02T11:04:30Z</time>
      </trkpt>
      <trkpt lat="47.58257" lon="6.8974">
        <ele>377.538849</ele>
        <time>2011-10-02T11:04:36Z</time>
      </trkpt>
      <trkpt lat="47.58265" lon="6.89736">
        <ele>376.304718</ele>
        <time>2011-10-02T11:04:37Z</time>
      </trkpt>
      <trkpt lat="47.58299" lon="6.89729">
        <ele>372.560486</ele>
        <time>2011-10-02T11:04:41Z</time>
      </trkpt>
      <trkpt lat="47.58314" lon="6.89718">
        <ele>370.730011</ele>
        <time>2011-10-02T11:04:43Z</time>
      </trkpt>
      <trkpt lat="47.58371" lon="6.89682">
        <ele>368.625854</ele>
        <time>2011-10-02T11:04:51Z</time>
      </trkpt>
      <trkpt lat="47.58391" lon="6.89671">
        <ele>368.639191</ele>
        <time>2011-10-02T11:04:54Z</time>
      </trkpt>
      <trkpt lat="47.58413" lon="6.89674">
        <ele>369.08432</ele>
        <time>2011-10-02T11:04:58Z</time>
      </trkpt>
      <trkpt lat="47.58419" lon="6.89687">
        <ele>369.401367</ele>
        <time>2011-10-02T11:05:00Z</time>
      </trkpt>
      <trkpt lat="47.58429" lon="6.8974">
        <ele>370.290009</ele>
        <time>2011-10-02T11:05:08Z</time>
      </trkpt>
      <trkpt lat="47.58437" lon="6.8977">
        <ele>370.494995</ele>
        <time>2011-10-02T11:05:14Z</time>
      </trkpt>
      <trkpt lat="47.58447" lon="6.89797">
        <ele>370.730011</ele>
        <time>2011-10-02T11:05:20Z</time>
      </trkpt>
      <trkpt lat="47.58453" lon="6.89822">
        <ele>371.270172</ele>
        <time>2011-10-02T11:05:26Z</time>
      </trkpt>
      <trkpt lat="47.58457" lon="6.89837">
        <ele>371.562836</ele>
        <time>2011-10-02T11:05:31Z</time>
      </trkpt>
      <trkpt lat="47.58465" lon="6.89836">
        <ele>371.777802</ele>
        <time>2011-10-02T11:05:36Z</time>
      </trkpt>
      <trkpt lat="47.58472" lon="6.89831">
        <ele>371.963043</ele>
        <time>2011-10-02T11:05:40Z</time>
      </trkpt>
      <trkpt lat="47.58477" lon="6.89829">
        <ele>372.106598</ele>
        <time>2011-10-02T11:05:42Z</time>
      </trkpt>
      <trkpt lat="47.58489" lon="6.89818">
        <ele>372.454407</ele>
        <time>2011-10-02T11:05:48Z</time>
      </trkpt>
      <trkpt lat="47.58499" lon="6.89814">
        <ele>372.80838</ele>
        <time>2011-10-02T11:05:54Z</time>
      </trkpt>
      <trkpt lat="47.58502" lon="6.89814">
        <ele>372.963379</ele>
        <time>2011-10-02T11:06:00Z</time>
      </trkpt>
      <trkpt lat="47.58505" lon="6.89815">
        <ele>373.066406</ele>
        <time>2011-10-02T11:06:06Z</time>
      </trkpt>
      <trkpt lat="47.58509" lon="6.89818">
        <ele>373.221558</ele>
        <time>2011-10-02T11:06:13Z</time>
      </trkpt>
      <trkpt lat="47.5851" lon="6.89816">
        <ele>373.26239</ele>
        <time>2011-10-02T11:06:21Z</time>
      </trkpt>
      <trkpt lat="47.58511" lon="6.89819">
        <ele>373.270813</ele>
        <time>2011-10-02T11:06:41Z</time>
      </trkpt>
      <trkpt lat="47.58511" lon="6.89819">
        <ele>373.26181</ele>
        <time>2011-10-02T11:06:51Z</time>
      </trkpt>
      <trkpt lat="47.58508" lon="6.8982">
        <ele>373.175079</ele>
        <time>2011-10-02T11:07:01Z</time>
      </trkpt>
      <trkpt lat="47.58507" lon="6.8982">
        <ele>373.144165</ele>
        <time>2011-10-02T11:07:02Z</time>
      </trkpt>
      <trkpt lat="47.58505" lon="6.89819">
        <ele>373.061096</ele>
        <time>2011-10-02T11:07:06Z</time>
      </trkpt>
      <trkpt lat="47.58501" lon="6.89819">
        <ele>372.921143</ele>
        <time>2011-10-02T11:07:12Z</time>
      </trkpt>
      <trkpt lat="47.58501" lon="6.89816">
        <ele>372.936951</ele>
        <time>2011-10-02T11:07:28Z</time>
      </trkpt>
      <trkpt lat="47.58501" lon="6.89809">
        <ele>372.904114</ele>
        <time>2011-10-02T11:07:35Z</time>
      </trkpt>
      <trkpt lat="47.58501" lon="6.89804">
        <ele>372.890472</ele>
        <time>2011-10-02T11:07:42Z</time>
      </trkpt>
      <trkpt lat="47.58498" lon="6.89803">
        <ele>372.770416</ele>
        <time>2011-10-02T11:07:46Z</time>
      </trkpt>
      <trkpt lat="47.58494" lon="6.89804">
        <ele>372.555054</ele>
        <time>2011-10-02T11:07:52Z</time>
      </trkpt>
      <trkpt lat="47.58483" lon="6.89803">
        <ele>372.108429</ele>
        <time>2011-10-02T11:08:00Z</time>
      </trkpt>
      <trkpt lat="47.58479" lon="6.89811">
        <ele>372.022156</ele>
        <time>2011-10-02T11:08:06Z</time>
      </trkpt>
      <trkpt lat="47.58479" lon="6.89813">
        <ele>372.003998</ele>
        <time>2011-10-02T11:08:07Z</time>
      </trkpt>
      <trkpt lat="47.58474" lon="6.89815">
        <ele>371.838928</ele>
        <time>2011-10-02T11:08:14Z</time>
      </trkpt>
      <trkpt lat="47.58474" lon="6.89815">
        <ele>371.835724</ele>
        <time>2011-10-02T11:08:19Z</time>
      </trkpt>
      <trkpt lat="47.5847" lon="6.89819">
        <ele>371.7435</ele>
        <time>2011-10-02T11:08:45Z</time>
      </trkpt>
      <trkpt lat="47.58462" lon="6.89826">
        <ele>371.562256</ele>
        <time>2011-10-02T11:08:53Z</time>
      </trkpt>
      <trkpt lat="47.58458" lon="6.89827">
        <ele>371.435089</ele>
        <time>2011-10-02T11:08:57Z</time>
      </trkpt>
      <trkpt lat="47.58451" lon="6.89829">
        <ele>371.383118</ele>
        <time>2011-10-02T11:09:04Z</time>
      </trkpt>
      <trkpt lat="47.58449" lon="6.89826">
        <ele>371.30542</ele>
        <time>2011-10-02T11:09:10Z</time>
      </trkpt>
      <trkpt lat="47.58448" lon="6.89824">
        <ele>371.264954</ele>
        <time>2011-10-02T11:09:18Z</time>
      </trkpt>
      <trkpt lat="47.58448" lon="6.89823">
        <ele>371.235901</ele>
        <time>2011-10-02T11:09:38Z</time>
      </trkpt>
      <trkpt lat="47.5845" lon="6.89822">
        <ele>371.237732</ele>
        <time>2011-10-02T11:11:34Z</time>
      </trkpt>
      <trkpt lat="47.5845" lon="6.89824">
        <ele>371.26709</ele>
        <time>2011-10-02T11:12:46Z</time>
      </trkpt>
      <trkpt lat="47.5845" lon="6.89823">
        <ele>371.25412</ele>
        <time>2011-10-02T11:13:07Z</time>
      </trkpt>
      <trkpt lat="47.58451" lon="6.89822">
        <ele>371.250702</ele>
        <time>2011-10-02T11:14:34Z</time>
      </trkpt>
      <trkpt lat="47.58451" lon="6.89822">
        <ele>371.255737</ele>
        <time>2011-10-02T11:14:40Z</time>
      </trkpt>
      <trkpt lat="47.58454" lon="6.89823">
        <ele>371.302887</ele>
        <time>2011-10-02T11:16:11Z</time>
      </trkpt>
      <trkpt lat="47.58454" lon="6.89823">
        <ele>371.302399</ele>
        <time>2011-10-02T11:16:44Z</time>
      </trkpt>
      <trkpt lat="47.58455" lon="6.89822">
        <ele>371.304504</ele>
        <time>2011-10-02T11:17:32Z</time>
      </trkpt>
      <trkpt lat="47.58453" lon="6.89825">
        <ele>371.321808</ele>
        <time>2011-10-02T11:17:37Z</time>
      </trkpt>
      <trkpt lat="47.58451" lon="6.89827">
        <ele>371.333038</ele>
        <time>2011-10-02T11:18:05Z</time>
      </trkpt>
      <trkpt lat="47.58451" lon="6.89827">
        <ele>371.337311</ele>
        <time>2011-10-02T11:18:14Z</time>
      </trkpt>
      <trkpt lat="47.5845" lon="6.89827">
        <ele>371.322906</ele>
        <time>2011-10-02T11:19:05Z</time>
      </trkpt>
      <trkpt lat="47.5845" lon="6.89827">
        <ele>371.320038</ele>
        <time>2011-10-02T11:19:31Z</time>
      </trkpt>
      <trkpt lat="47.58449" lon="6.89827">
        <ele>371.309875</ele>
        <time>2011-10-02T11:20:12Z</time>
      </trkpt>
      <trkpt lat="47.58449" lon="6.89827">
        <ele>371.326172</ele>
        <time>2011-10-02T11:21:11Z</time>
      </trkpt>
      <trkpt lat="47.58449" lon="6.89827">
        <ele>371.323334</ele>
        <time>2011-10-02T11:21:29Z</time>
      </trkpt>
      <trkpt lat="47.58448" lon="6.89828">
        <ele>371.326721</ele>
        <time>2011-10-02T11:21:41Z</time>
      </trkpt>
      <trkpt lat="47.58449" lon="6.89828">
        <ele>371.329315</ele>
        <time>2011-10-02T11:22:20Z</time>
      </trkpt>
      <trkpt lat="47.58448" lon="6.89828">
        <ele>371.313751</ele>
        <time>2011-10-02T11:24:26Z</time>
      </trkpt>
      <trkpt lat="47.58448" lon="6.89828">
        <ele>371.326935</ele>
        <time>2011-10-02T11:24:36Z</time>
      </trkpt>
      <trkpt lat="47.58448" lon="6.89828">
        <ele>371.319366</ele>
        <time>2011-10-02T11:24:55Z</time>
      </trkpt>
      <trkpt lat="47.58448" lon="6.89828">
        <ele>371.322632</ele>
        <time>2011-10-02T11:24:56Z</time>
      </trkpt>
      <trkpt lat="47.5844" lon="6.89834">
        <ele>371.365814</ele>
        <time>2011-10-02T11:25:02Z</time>
      </trkpt>
      <trkpt lat="47.58432" lon="6.89827">
        <ele>371.137695</ele>
        <time>2011-10-02T11:25:05Z</time>
      </trkpt>
      <trkpt lat="47.58422" lon="6.89814">
        <ele>370.671082</ele>
        <time>2011-10-02T11:25:11Z</time>
      </trkpt>
      <trkpt lat="47.58421" lon="6.89814">
        <ele>370.661438</ele>
        <time>2011-10-02T11:25:18Z</time>
      </trkpt>
      <trkpt lat="47.58421" lon="6.89814">
        <ele>370.660034</ele>
        <time>2011-10-02T11:25:52Z</time>
      </trkpt>
      <trkpt lat="47.58422" lon="6.89813">
        <ele>370.644775</ele>
        <time>2011-10-02T11:25:53Z</time>
      </trkpt>
      <trkpt lat="47.58431" lon="6.89814">
        <ele>370.790497</ele>
        <time>2011-10-02T11:25:59Z</time>
      </trkpt>
      <trkpt lat="47.58436" lon="6.89829">
        <ele>371.215607</ele>
        <time>2011-10-02T11:26:05Z</time>
      </trkpt>
      <trkpt lat="47.58439" lon="6.89833">
        <ele>371.34436</ele>
        <time>2011-10-02T11:26:08Z</time>
      </trkpt>
      <trkpt lat="47.58443" lon="6.89837">
        <ele>371.464142</ele>
        <time>2011-10-02T11:26:13Z</time>
      </trkpt>
      <trkpt lat="47.58449" lon="6.8983">
        <ele>371.37262</ele>
        <time>2011-10-02T11:26:19Z</time>
      </trkpt>
      <trkpt lat="47.58446" lon="6.89828">
        <ele>371.308563</ele>
        <time>2011-10-02T11:26:22Z</time>
      </trkpt>
      <trkpt lat="47.58446" lon="6.89828">
        <ele>371.301086</ele>
        <time>2011-10-02T11:26:33Z</time>
      </trkpt>
      <trkpt lat="47.58446" lon="6.89829">
        <ele>371.325439</ele>
        <time>2011-10-02T11:26:52Z</time>
      </trkpt>
      <trkpt lat="47.58446" lon="6.8983">
        <ele>371.348969</ele>
        <time>2011-10-02T11:27:15Z</time>
      </trkpt>
      <trkpt lat="47.58446" lon="6.89831">
        <ele>371.356262</ele>
        <time>2011-10-02T11:27:44Z</time>
      </trkpt>
      <trkpt lat="47.58446" lon="6.89831">
        <ele>371.358826</ele>
        <time>2011-10-02T11:28:04Z</time>
      </trkpt>
      <trkpt lat="47.58446" lon="6.89829">
        <ele>371.313293</ele>
        <time>2011-10-02T11:28:44Z</time>
      </trkpt>
      <trkpt lat="47.58446" lon="6.89829">
        <ele>371.323425</ele>
        <time>2011-10-02T11:29:01Z</time>
      </trkpt>
      <trkpt lat="47.58445" lon="6.89829">
        <ele>371.325317</ele>
        <time>2011-10-02T11:29:23Z</time>
      </trkpt>
      <trkpt lat="47.58445" lon="6.8983">
        <ele>371.324799</ele>
        <time>2011-10-02T11:30:06Z</time>
      </trkpt>
      <trkpt lat="47.58445" lon="6.8983">
        <ele>371.343384</ele>
        <time>2011-10-02T11:30:32Z</time>
      </trkpt>
      <trkpt lat="47.58446" lon="6.89831">
        <ele>371.352661</ele>
        <time>2011-10-02T11:30:53Z</time>
      </trkpt>
      <trkpt lat="47.58446" lon="6.89831">
        <ele>371.355835</ele>
        <time>2011-10-02T11:31:08Z</time>
      </trkpt>
      <trkpt lat="47.58446" lon="6.89831">
        <ele>371.354858</ele>
        <time>2011-10-02T11:31:21Z</time>
      </trkpt>
      <trkpt lat="47.58446" lon="6.89831">
        <ele>371.366852</ele>
        <time>2011-10-02T11:31:42Z</time>
      </trkpt>
      <trkpt lat="47.58447" lon="6.89831">
        <ele>371.360382</ele>
        <time>2011-10-02T11:32:20Z</time>
      </trkpt>
      <trkpt lat="47.58446" lon="6.8983">
        <ele>371.354675</ele>
        <time>2011-10-02T11:32:36Z</time>
      </trkpt>
      <trkpt lat="47.58446" lon="6.89831">
        <ele>371.363098</ele>
        <time>2011-10-02T11:32:54Z</time>
      </trkpt>
      <trkpt lat="47.58446" lon="6.89831">
        <ele>371.364655</ele>
        <time>2011-10-02T11:33:01Z</time>
      </trkpt>
      <trkpt lat="47.58444" lon="6.8984">
        <ele>371.512512</ele>
        <time>2011-10-02T11:33:06Z</time>
      </trkpt>
      <trkpt lat="47.58441" lon="6.89842">
        <ele>371.537598</ele>
        <time>2011-10-02T11:33:08Z</time>
      </trkpt>
      <trkpt lat="47.58441" lon="6.89847">
        <ele>371.640198</ele>
        <time>2011-10-02T11:33:12Z</time>
      </trkpt>
      <trkpt lat="47.58446" lon="6.89847">
        <ele>371.667175</ele>
        <time>2011-10-02T11:33:18Z</time>
      </trkpt>
      <trkpt lat="47.58446" lon="6.89847">
        <ele>371.668304</ele>
        <time>2011-10-02T11:33:29Z</time>
      </trkpt>
      <trkpt lat="47.58446" lon="6.89847">
        <ele>371.665619</ele>
        <time>2011-10-02T11:33:35Z</time>
      </trkpt>
      <trkpt lat="47.58445" lon="6.89847">
        <ele>371.670563</ele>
        <time>2011-10-02T11:33:40Z</time>
      </trkpt>
      <trkpt lat="47.58435" lon="6.89852">
        <ele>371.724365</ele>
        <time>2011-10-02T11:33:45Z</time>
      </trkpt>
      <trkpt lat="47.58418" lon="6.89861">
        <ele>371.949127</ele>
        <time>2011-10-02T11:33:50Z</time>
      </trkpt>
      <trkpt lat="47.58392" lon="6.89873">
        <ele>372.420013</ele>
        <time>2011-10-02T11:33:58Z</time>
      </trkpt>
      <trkpt lat="47.58376" lon="6.89885">
        <ele>372.765015</ele>
        <time>2011-10-02T11:34:03Z</time>
      </trkpt>
      <trkpt lat="47.58358" lon="6.89895">
        <ele>373.373016</ele>
        <time>2011-10-02T11:34:09Z</time>
      </trkpt>
      <trkpt lat="47.58349" lon="6.89884">
        <ele>373.847015</ele>
        <time>2011-10-02T11:34:13Z</time>
      </trkpt>
      <trkpt lat="47.58335" lon="6.8984">
        <ele>374.153595</ele>
        <time>2011-10-02T11:34:23Z</time>
      </trkpt>
      <trkpt lat="47.58321" lon="6.89813">
        <ele>374.637512</ele>
        <time>2011-10-02T11:34:30Z</time>
      </trkpt>
      <trkpt lat="47.58316" lon="6.8982">
        <ele>375.246246</ele>
        <time>2011-10-02T11:34:34Z</time>
      </trkpt>
      <trkpt lat="47.58321" lon="6.89845">
        <ele>374.959991</ele>
        <time>2011-10-02T11:34:39Z</time>
      </trkpt>
      <trkpt lat="47.58323" lon="6.89856">
        <ele>374.963043</ele>
        <time>2011-10-02T11:34:41Z</time>
      </trkpt>
      <trkpt lat="47.58333" lon="6.89897">
        <ele>374.883148</ele>
        <time>2011-10-02T11:34:49Z</time>
      </trkpt>
      <trkpt lat="47.58341" lon="6.89932">
        <ele>374.622498</ele>
        <time>2011-10-02T11:34:56Z</time>
      </trkpt>
      <trkpt lat="47.58347" lon="6.89962">
        <ele>374.576263</ele>
        <time>2011-10-02T11:35:02Z</time>
      </trkpt>
      <trkpt lat="47.58349" lon="6.89967">
        <ele>374.536255</ele>
        <time>2011-10-02T11:35:03Z</time>
      </trkpt>
      <trkpt lat="47.5836" lon="6.90022">
        <ele>374.017365</ele>
        <time>2011-10-02T11:35:12Z</time>
      </trkpt>
      <trkpt lat="47.58364" lon="6.9006">
        <ele>373.609985</ele>
        <time>2011-10-02T11:35:18Z</time>
      </trkpt>
      <trkpt lat="47.58364" lon="6.90066">
        <ele>373.579987</ele>
        <time>2011-10-02T11:35:19Z</time>
      </trkpt>
      <trkpt lat="47.58367" lon="6.90084">
        <ele>373.339996</ele>
        <time>2011-10-02T11:35:22Z</time>
      </trkpt>
      <trkpt lat="47.5837" lon="6.90095">
        <ele>373.130005</ele>
        <time>2011-10-02T11:35:24Z</time>
      </trkpt>
      <trkpt lat="47.5838" lon="6.90121">
        <ele>372.394989</ele>
        <time>2011-10-02T11:35:29Z</time>
      </trkpt>
      <trkpt lat="47.58392" lon="6.9012">
        <ele>371.600006</ele>
        <time>2011-10-02T11:35:34Z</time>
      </trkpt>
      <trkpt lat="47.58405" lon="6.9013">
        <ele>370.804413</ele>
        <time>2011-10-02T11:35:38Z</time>
      </trkpt>
      <trkpt lat="47.58408" lon="6.90135">
        <ele>370.79068</ele>
        <time>2011-10-02T11:35:39Z</time>
      </trkpt>
      <trkpt lat="47.58424" lon="6.90167">
        <ele>370.698608</ele>
        <time>2011-10-02T11:35:45Z</time>
      </trkpt>
      <trkpt lat="47.58447" lon="6.90211">
        <ele>370.184998</ele>
        <time>2011-10-02T11:35:53Z</time>
      </trkpt>
      <trkpt lat="47.58468" lon="6.90251">
        <ele>369.928741</ele>
        <time>2011-10-02T11:36:01Z</time>
      </trkpt>
      <trkpt lat="47.58486" lon="6.90285">
        <ele>369.912415</ele>
        <time>2011-10-02T11:36:08Z</time>
      </trkpt>
      <trkpt lat="47.58507" lon="6.90325">
        <ele>370.324799</ele>
        <time>2011-10-02T11:36:16Z</time>
      </trkpt>
      <trkpt lat="47.58521" lon="6.90351">
        <ele>369.957489</ele>
        <time>2011-10-02T11:36:22Z</time>
      </trkpt>
      <trkpt lat="47.5853" lon="6.9037">
        <ele>369.709991</ele>
        <time>2011-10-02T11:36:26Z</time>
      </trkpt>
      <trkpt lat="47.58541" lon="6.90388">
        <ele>369.424988</ele>
        <time>2011-10-02T11:36:30Z</time>
      </trkpt>
      <trkpt lat="47.58552" lon="6.9041">
        <ele>369.337982</ele>
        <time>2011-10-02T11:36:35Z</time>
      </trkpt>
      <trkpt lat="47.58554" lon="6.90433">
        <ele>369.944305</ele>
        <time>2011-10-02T11:36:40Z</time>
      </trkpt>
      <trkpt lat="47.58566" lon="6.90473">
        <ele>370.131958</ele>
        <time>2011-10-02T11:36:48Z</time>
      </trkpt>
      <trkpt lat="47.58581" lon="6.90526">
        <ele>370.938599</ele>
        <time>2011-10-02T11:36:57Z</time>
      </trkpt>
      <trkpt lat="47.58584" lon="6.90538">
        <ele>371.093262</ele>
        <time>2011-10-02T11:36:59Z</time>
      </trkpt>
      <trkpt lat="47.58602" lon="6.90559">
        <ele>370.068298</ele>
        <time>2011-10-02T11:37:04Z</time>
      </trkpt>
      <trkpt lat="47.58611" lon="6.90559">
        <ele>369.295013</ele>
        <time>2011-10-02T11:37:06Z</time>
      </trkpt>
      <trkpt lat="47.58653" lon="6.90549">
        <ele>365.154999</ele>
        <time>2011-10-02T11:37:15Z</time>
      </trkpt>
      <trkpt lat="47.58685" lon="6.90541">
        <ele>362.952667</ele>
        <time>2011-10-02T11:37:21Z</time>
      </trkpt>
      <trkpt lat="47.5869" lon="6.9054">
        <ele>362.622589</ele>
        <time>2011-10-02T11:37:22Z</time>
      </trkpt>
      <trkpt lat="47.58708" lon="6.90551">
        <ele>361.623749</ele>
        <time>2011-10-02T11:37:26Z</time>
      </trkpt>
      <trkpt lat="47.58711" lon="6.90556">
        <ele>361.51239</ele>
        <time>2011-10-02T11:37:27Z</time>
      </trkpt>
      <trkpt lat="47.58734" lon="6.90615">
        <ele>360.477875</ele>
        <time>2011-10-02T11:37:36Z</time>
      </trkpt>
      <trkpt lat="47.58747" lon="6.90646">
        <ele>359.911255</ele>
        <time>2011-10-02T11:37:40Z</time>
      </trkpt>
      <trkpt lat="47.58776" lon="6.90687">
        <ele>358.42749</ele>
        <time>2011-10-02T11:37:46Z</time>
      </trkpt>
      <trkpt lat="47.58795" lon="6.90707">
        <ele>357.408752</ele>
        <time>2011-10-02T11:37:49Z</time>
      </trkpt>
      <trkpt lat="47.58817" lon="6.90757">
        <ele>356.553741</ele>
        <time>2011-10-02T11:37:54Z</time>
      </trkpt>
      <trkpt lat="47.58833" lon="6.90817">
        <ele>355.561249</ele>
        <time>2011-10-02T11:38:00Z</time>
      </trkpt>
      <trkpt lat="47.58855" lon="6.90906">
        <ele>353.358734</ele>
        <time>2011-10-02T11:38:09Z</time>
      </trkpt>
      <trkpt lat="47.58862" lon="6.90964">
        <ele>352.096252</ele>
        <time>2011-10-02T11:38:14Z</time>
      </trkpt>
      <trkpt lat="47.58874" lon="6.91015">
        <ele>351</ele>
        <time>2011-10-02T11:38:19Z</time>
      </trkpt>
      <trkpt lat="47.58898" lon="6.91092">
        <ele>349.265015</ele>
        <time>2011-10-02T11:38:27Z</time>
      </trkpt>
      <trkpt lat="47.58919" lon="6.91178">
        <ele>349</ele>
        <time>2011-10-02T11:38:34Z</time>
      </trkpt>
      <trkpt lat="47.58942" lon="6.91271">
        <ele>349.019989</ele>
        <time>2011-10-02T11:38:42Z</time>
      </trkpt>
      <trkpt lat="47.58963" lon="6.91361">
        <ele>349.107941</ele>
        <time>2011-10-02T11:38:50Z</time>
      </trkpt>
      <trkpt lat="47.58971" lon="6.91412">
        <ele>349.553741</ele>
        <time>2011-10-02T11:38:55Z</time>
      </trkpt>
      <trkpt lat="47.58986" lon="6.91452">
        <ele>350</ele>
        <time>2011-10-02T11:39:00Z</time>
      </trkpt>
      <trkpt lat="47.58989" lon="6.9146">
        <ele>350</ele>
        <time>2011-10-02T11:39:01Z</time>
      </trkpt>
      <trkpt lat="47.59009" lon="6.91529">
        <ele>349.73999</ele>
        <time>2011-10-02T11:39:09Z</time>
      </trkpt>
      <trkpt lat="47.59019" lon="6.91551">
        <ele>349.421265</ele>
        <time>2011-10-02T11:39:12Z</time>
      </trkpt>
      <trkpt lat="47.5903" lon="6.91571">
        <ele>348.908752</ele>
        <time>2011-10-02T11:39:16Z</time>
      </trkpt>
      <trkpt lat="47.59025" lon="6.91579">
        <ele>348.886261</ele>
        <time>2011-10-02T11:39:20Z</time>
      </trkpt>
      <trkpt lat="47.59013" lon="6.91596">
        <ele>348.763489</ele>
        <time>2011-10-02T11:39:25Z</time>
      </trkpt>
      <trkpt lat="47.5901" lon="6.91601">
        <ele>348.718536</ele>
        <time>2011-10-02T11:39:26Z</time>
      </trkpt>
      <trkpt lat="47.59003" lon="6.91612">
        <ele>348.652374</ele>
        <time>2011-10-02T11:39:28Z</time>
      </trkpt>
      <trkpt lat="47.58976" lon="6.91654">
        <ele>349.065002</ele>
        <time>2011-10-02T11:39:37Z</time>
      </trkpt>
      <trkpt lat="47.58978" lon="6.91673">
        <ele>349.299988</ele>
        <time>2011-10-02T11:39:41Z</time>
      </trkpt>
      <trkpt lat="47.58985" lon="6.91683">
        <ele>349.272491</ele>
        <time>2011-10-02T11:39:44Z</time>
      </trkpt>
      <trkpt lat="47.59005" lon="6.91709">
        <ele>349.173737</ele>
        <time>2011-10-02T11:39:51Z</time>
      </trkpt>
      <trkpt lat="47.59012" lon="6.91739">
        <ele>350.250641</ele>
        <time>2011-10-02T11:39:57Z</time>
      </trkpt>
      <trkpt lat="47.5901" lon="6.91756">
        <ele>351.089691</ele>
        <time>2011-10-02T11:40:00Z</time>
      </trkpt>
      <trkpt lat="47.59006" lon="6.91796">
        <ele>353.350006</ele>
        <time>2011-10-02T11:40:07Z</time>
      </trkpt>
      <trkpt lat="47.59003" lon="6.9182">
        <ele>354.86499</ele>
        <time>2011-10-02T11:40:12Z</time>
      </trkpt>
      <trkpt lat="47.59012" lon="6.91828">
        <ele>354.887177</ele>
        <time>2011-10-02T11:40:17Z</time>
      </trkpt>
      <trkpt lat="47.59027" lon="6.91828">
        <ele>353.832733</ele>
        <time>2011-10-02T11:40:21Z</time>
      </trkpt>
      <trkpt lat="47.59032" lon="6.91826">
        <ele>353.441895</ele>
        <time>2011-10-02T11:40:22Z</time>
      </trkpt>
      <trkpt lat="47.59061" lon="6.91808">
        <ele>351.06604</ele>
        <time>2011-10-02T11:40:28Z</time>
      </trkpt>
      <trkpt lat="47.59105" lon="6.91773">
        <ele>350.040009</ele>
        <time>2011-10-02T11:40:38Z</time>
      </trkpt>
      <trkpt lat="47.59125" lon="6.91754">
        <ele>351.208618</ele>
        <time>2011-10-02T11:40:42Z</time>
      </trkpt>
      <trkpt lat="47.59137" lon="6.91751">
        <ele>352.180328</ele>
        <time>2011-10-02T11:40:44Z</time>
      </trkpt>
      <trkpt lat="47.59174" lon="6.91722">
        <ele>354.608002</ele>
        <time>2011-10-02T11:40:53Z</time>
      </trkpt>
      <trkpt lat="47.59198" lon="6.917">
        <ele>355.82251</ele>
        <time>2011-10-02T11:40:59Z</time>
      </trkpt>
      <trkpt lat="47.59231" lon="6.91677">
        <ele>357.536255</ele>
        <time>2011-10-02T11:41:06Z</time>
      </trkpt>
      <trkpt lat="47.59245" lon="6.91668">
        <ele>358.229065</ele>
        <time>2011-10-02T11:41:09Z</time>
      </trkpt>
      <trkpt lat="47.59283" lon="6.9165">
        <ele>358.974121</ele>
        <time>2011-10-02T11:41:17Z</time>
      </trkpt>
      <trkpt lat="47.59311" lon="6.91632">
        <ele>359.331238</ele>
        <time>2011-10-02T11:41:24Z</time>
      </trkpt>
      <trkpt lat="47.59344" lon="6.91611">
        <ele>358.972504</ele>
        <time>2011-10-02T11:41:32Z</time>
      </trkpt>
      <trkpt lat="47.59352" lon="6.91606">
        <ele>358.481598</ele>
        <time>2011-10-02T11:41:34Z</time>
      </trkpt>
      <trkpt lat="47.59365" lon="6.91596">
        <ele>357.409088</ele>
        <time>2011-10-02T11:41:37Z</time>
      </trkpt>
      <trkpt lat="47.59404" lon="6.91569">
        <ele>355.25174</ele>
        <time>2011-10-02T11:41:44Z</time>
      </trkpt>
      <trkpt lat="47.59441" lon="6.91549">
        <ele>354.684174</ele>
        <time>2011-10-02T11:41:50Z</time>
      </trkpt>
      <trkpt lat="47.59481" lon="6.91529">
        <ele>354.834991</ele>
        <time>2011-10-02T11:41:57Z</time>
      </trkpt>
      <trkpt lat="47.59518" lon="6.91505">
        <ele>353.984985</ele>
        <time>2011-10-02T11:42:04Z</time>
      </trkpt>
      <trkpt lat="47.59534" lon="6.91493">
        <ele>353.184998</ele>
        <time>2011-10-02T11:42:07Z</time>
      </trkpt>
      <trkpt lat="47.59551" lon="6.9147">
        <ele>352.013763</ele>
        <time>2011-10-02T11:42:11Z</time>
      </trkpt>
      <trkpt lat="47.59562" lon="6.91449">
        <ele>351.027496</ele>
        <time>2011-10-02T11:42:14Z</time>
      </trkpt>
      <trkpt lat="47.5957" lon="6.91408">
        <ele>350.334991</ele>
        <time>2011-10-02T11:42:19Z</time>
      </trkpt>
      <trkpt lat="47.5957" lon="6.914">
        <ele>350.464996</ele>
        <time>2011-10-02T11:42:20Z</time>
      </trkpt>
      <trkpt lat="47.59569" lon="6.9136">
        <ele>351.015015</ele>
        <time>2011-10-02T11:42:25Z</time>
      </trkpt>
      <trkpt lat="47.59574" lon="6.91296">
        <ele>352.982513</ele>
        <time>2011-10-02T11:42:34Z</time>
      </trkpt>
      <trkpt lat="47.59579" lon="6.91244">
        <ele>355.294495</ele>
        <time>2011-10-02T11:42:42Z</time>
      </trkpt>
      <trkpt lat="47.59585" lon="6.91197">
        <ele>357.028107</ele>
        <time>2011-10-02T11:42:50Z</time>
      </trkpt>
      <trkpt lat="47.5959" lon="6.91124">
        <ele>359.983734</ele>
        <time>2011-10-02T11:43:03Z</time>
      </trkpt>
      <trkpt lat="47.59595" lon="6.91064">
        <ele>362.274994</ele>
        <time>2011-10-02T11:43:14Z</time>
      </trkpt>
      <trkpt lat="47.59597" lon="6.91019">
        <ele>363.539337</ele>
        <time>2011-10-02T11:43:22Z</time>
      </trkpt>
      <trkpt lat="47.59599" lon="6.90975">
        <ele>364.442139</ele>
        <time>2011-10-02T11:43:29Z</time>
      </trkpt>
      <trkpt lat="47.59598" lon="6.90954">
        <ele>364.579987</ele>
        <time>2011-10-02T11:43:32Z</time>
      </trkpt>
      <trkpt lat="47.59588" lon="6.90903">
        <ele>364.079987</ele>
        <time>2011-10-02T11:43:39Z</time>
      </trkpt>
      <trkpt lat="47.59584" lon="6.90829">
        <ele>362.617493</ele>
        <time>2011-10-02T11:43:48Z</time>
      </trkpt>
      <trkpt lat="47.59584" lon="6.90763">
        <ele>362.303925</ele>
        <time>2011-10-02T11:43:55Z</time>
      </trkpt>
      <trkpt lat="47.59593" lon="6.90691">
        <ele>360.65979</ele>
        <time>2011-10-02T11:44:02Z</time>
      </trkpt>
      <trkpt lat="47.59606" lon="6.90626">
        <ele>358.476257</ele>
        <time>2011-10-02T11:44:08Z</time>
      </trkpt>
      <trkpt lat="47.59617" lon="6.90567">
        <ele>357.55484</ele>
        <time>2011-10-02T11:44:14Z</time>
      </trkpt>
      <trkpt lat="47.59612" lon="6.90535">
        <ele>356.453125</ele>
        <time>2011-10-02T11:44:18Z</time>
      </trkpt>
      <trkpt lat="47.59592" lon="6.90517">
        <ele>354.894989</ele>
        <time>2011-10-02T11:44:22Z</time>
      </trkpt>
      <trkpt lat="47.59559" lon="6.90497">
        <ele>353.137512</ele>
        <time>2011-10-02T11:44:28Z</time>
      </trkpt>
      <trkpt lat="47.59544" lon="6.90473">
        <ele>353.086792</ele>
        <time>2011-10-02T11:44:32Z</time>
      </trkpt>
      <trkpt lat="47.5953" lon="6.90447">
        <ele>353.431488</ele>
        <time>2011-10-02T11:44:36Z</time>
      </trkpt>
      <trkpt lat="47.59526" lon="6.90417">
        <ele>353.765015</ele>
        <time>2011-10-02T11:44:40Z</time>
      </trkpt>
      <trkpt lat="47.59536" lon="6.90348">
        <ele>353.76001</ele>
        <time>2011-10-02T11:44:49Z</time>
      </trkpt>
      <trkpt lat="47.59538" lon="6.9034">
        <ele>353.847504</ele>
        <time>2011-10-02T11:44:50Z</time>
      </trkpt>
      <trkpt lat="47.5955" lon="6.90315">
        <ele>353.994995</ele>
        <time>2011-10-02T11:44:54Z</time>
      </trkpt>
      <trkpt lat="47.59581" lon="6.90259">
        <ele>354</ele>
        <time>2011-10-02T11:45:03Z</time>
      </trkpt>
      <trkpt lat="47.59606" lon="6.90205">
        <ele>354.69577</ele>
        <time>2011-10-02T11:45:11Z</time>
      </trkpt>
      <trkpt lat="47.59613" lon="6.90164">
        <ele>355.970001</ele>
        <time>2011-10-02T11:45:16Z</time>
      </trkpt>
      <trkpt lat="47.59626" lon="6.90135">
        <ele>356.72998</ele>
        <time>2011-10-02T11:45:20Z</time>
      </trkpt>
      <trkpt lat="47.59643" lon="6.90112">
        <ele>357.107513</ele>
        <time>2011-10-02T11:45:24Z</time>
      </trkpt>
      <trkpt lat="47.59658" lon="6.90089">
        <ele>357.519989</ele>
        <time>2011-10-02T11:45:28Z</time>
      </trkpt>
      <trkpt lat="47.59683" lon="6.90055">
        <ele>357.793365</ele>
        <time>2011-10-02T11:45:34Z</time>
      </trkpt>
      <trkpt lat="47.59711" lon="6.89991">
        <ele>358.500305</ele>
        <time>2011-10-02T11:45:43Z</time>
      </trkpt>
      <trkpt lat="47.59734" lon="6.89952">
        <ele>359.555573</ele>
        <time>2011-10-02T11:45:49Z</time>
      </trkpt>
      <trkpt lat="47.59759" lon="6.89913">
        <ele>359.987854</ele>
        <time>2011-10-02T11:45:56Z</time>
      </trkpt>
      <trkpt lat="47.59763" lon="6.89908">
        <ele>360.012787</ele>
        <time>2011-10-02T11:45:57Z</time>
      </trkpt>
      <trkpt lat="47.59769" lon="6.89872">
        <ele>360.371216</ele>
        <time>2011-10-02T11:46:02Z</time>
      </trkpt>
      <trkpt lat="47.5976" lon="6.89844">
        <ele>361.070953</ele>
        <time>2011-10-02T11:46:06Z</time>
      </trkpt>
      <trkpt lat="47.59749" lon="6.89827">
        <ele>361.414154</ele>
        <time>2011-10-02T11:46:09Z</time>
      </trkpt>
      <trkpt lat="47.59733" lon="6.89806">
        <ele>362.079742</ele>
        <time>2011-10-02T11:46:13Z</time>
      </trkpt>
      <trkpt lat="47.59717" lon="6.89766">
        <ele>363.212128</ele>
        <time>2011-10-02T11:46:19Z</time>
      </trkpt>
      <trkpt lat="47.59713" lon="6.89752">
        <ele>363.488251</ele>
        <time>2011-10-02T11:46:21Z</time>
      </trkpt>
      <trkpt lat="47.5971" lon="6.89709">
        <ele>363.903931</ele>
        <time>2011-10-02T11:46:27Z</time>
      </trkpt>
      <trkpt lat="47.59713" lon="6.89704">
        <ele>363.709686</ele>
        <time>2011-10-02T11:46:28Z</time>
      </trkpt>
      <trkpt lat="47.59727" lon="6.89679">
        <ele>362.4375</ele>
        <time>2011-10-02T11:46:32Z</time>
      </trkpt>
      <trkpt lat="47.59751" lon="6.89657">
        <ele>360.482513</ele>
        <time>2011-10-02T11:46:36Z</time>
      </trkpt>
      <trkpt lat="47.59813" lon="6.89618">
        <ele>358.527893</ele>
        <time>2011-10-02T11:46:44Z</time>
      </trkpt>
      <trkpt lat="47.59856" lon="6.896">
        <ele>360.314087</ele>
        <time>2011-10-02T11:46:50Z</time>
      </trkpt>
      <trkpt lat="47.59868" lon="6.89594">
        <ele>360.698639</ele>
        <time>2011-10-02T11:46:52Z</time>
      </trkpt>
      <trkpt lat="47.59911" lon="6.89577">
        <ele>360.199615</ele>
        <time>2011-10-02T11:47:00Z</time>
      </trkpt>
      <trkpt lat="47.59955" lon="6.89544">
        <ele>360.003845</ele>
        <time>2011-10-02T11:47:08Z</time>
      </trkpt>
      <trkpt lat="47.59997" lon="6.89509">
        <ele>361.923737</ele>
        <time>2011-10-02T11:47:16Z</time>
      </trkpt>
      <trkpt lat="47.60033" lon="6.8948">
        <ele>363.572968</ele>
        <time>2011-10-02T11:47:24Z</time>
      </trkpt>
      <trkpt lat="47.60037" lon="6.89477">
        <ele>363.71814</ele>
        <time>2011-10-02T11:47:25Z</time>
      </trkpt>
      <trkpt lat="47.60057" lon="6.8945">
        <ele>364.182465</ele>
        <time>2011-10-02T11:47:31Z</time>
      </trkpt>
      <trkpt lat="47.60059" lon="6.89444">
        <ele>364.270996</ele>
        <time>2011-10-02T11:47:32Z</time>
      </trkpt>
      <trkpt lat="47.60082" lon="6.89388">
        <ele>365.540009</ele>
        <time>2011-10-02T11:47:41Z</time>
      </trkpt>
      <trkpt lat="47.60105" lon="6.89341">
        <ele>367.157501</ele>
        <time>2011-10-02T11:47:49Z</time>
      </trkpt>
      <trkpt lat="47.60129" lon="6.89293">
        <ele>369.160004</ele>
        <time>2011-10-02T11:47:58Z</time>
      </trkpt>
      <trkpt lat="47.60138" lon="6.89271">
        <ele>369.932007</ele>
        <time>2011-10-02T11:48:03Z</time>
      </trkpt>
      <trkpt lat="47.60149" lon="6.89258">
        <ele>370.339691</ele>
        <time>2011-10-02T11:48:07Z</time>
      </trkpt>
      <trkpt lat="47.60174" lon="6.89226">
        <ele>370.920074</ele>
        <time>2011-10-02T11:48:15Z</time>
      </trkpt>
      <trkpt lat="47.60203" lon="6.89187">
        <ele>370.480072</ele>
        <time>2011-10-02T11:48:23Z</time>
      </trkpt>
      <trkpt lat="47.60208" lon="6.89182">
        <ele>370.322174</ele>
        <time>2011-10-02T11:48:24Z</time>
      </trkpt>
      <trkpt lat="47.60249" lon="6.89125">
        <ele>368.279999</ele>
        <time>2011-10-02T11:48:32Z</time>
      </trkpt>
      <trkpt lat="47.6031" lon="6.89041">
        <ele>366.897491</ele>
        <time>2011-10-02T11:48:43Z</time>
      </trkpt>
      <trkpt lat="47.60348" lon="6.88986">
        <ele>366.117493</ele>
        <time>2011-10-02T11:48:50Z</time>
      </trkpt>
      <trkpt lat="47.60397" lon="6.88923">
        <ele>363.763184</ele>
        <time>2011-10-02T11:48:59Z</time>
      </trkpt>
      <trkpt lat="47.6041" lon="6.88904">
        <ele>363.567566</ele>
        <time>2011-10-02T11:49:02Z</time>
      </trkpt>
      <trkpt lat="47.6043" lon="6.88879">
        <ele>364.309998</ele>
        <time>2011-10-02T11:49:07Z</time>
      </trkpt>
      <trkpt lat="47.60449" lon="6.88853">
        <ele>365.205841</ele>
        <time>2011-10-02T11:49:13Z</time>
      </trkpt>
      <trkpt lat="47.60463" lon="6.8884">
        <ele>365.640564</ele>
        <time>2011-10-02T11:49:18Z</time>
      </trkpt>
      <trkpt lat="47.60474" lon="6.88833">
        <ele>366.005676</ele>
        <time>2011-10-02T11:49:22Z</time>
      </trkpt>
      <trkpt lat="47.6048" lon="6.88814">
        <ele>366.406769</ele>
        <time>2011-10-02T11:49:26Z</time>
      </trkpt>
      <trkpt lat="47.60491" lon="6.88784">
        <ele>367.348267</ele>
        <time>2011-10-02T11:49:32Z</time>
      </trkpt>
      <trkpt lat="47.60499" lon="6.88764">
        <ele>367.554993</ele>
        <time>2011-10-02T11:49:36Z</time>
      </trkpt>
      <trkpt lat="47.60516" lon="6.8874">
        <ele>367.514313</ele>
        <time>2011-10-02T11:49:41Z</time>
      </trkpt>
      <trkpt lat="47.60529" lon="6.88717">
        <ele>367.170013</ele>
        <time>2011-10-02T11:49:46Z</time>
      </trkpt>
      <trkpt lat="47.60538" lon="6.8869">
        <ele>367.717499</ele>
        <time>2011-10-02T11:49:51Z</time>
      </trkpt>
      <trkpt lat="47.60539" lon="6.88685">
        <ele>367.817505</ele>
        <time>2011-10-02T11:49:52Z</time>
      </trkpt>
      <trkpt lat="47.60545" lon="6.88672">
        <ele>368.282501</ele>
        <time>2011-10-02T11:49:56Z</time>
      </trkpt>
      <trkpt lat="47.60551" lon="6.88647">
        <ele>368.882507</ele>
        <time>2011-10-02T11:50:02Z</time>
      </trkpt>
      <trkpt lat="47.60559" lon="6.8863">
        <ele>369.838989</ele>
        <time>2011-10-02T11:50:07Z</time>
      </trkpt>
      <trkpt lat="47.60568" lon="6.88605">
        <ele>371.012512</ele>
        <time>2011-10-02T11:50:13Z</time>
      </trkpt>
      <trkpt lat="47.60579" lon="6.88581">
        <ele>372.005005</ele>
        <time>2011-10-02T11:50:19Z</time>
      </trkpt>
      <trkpt lat="47.60593" lon="6.88561">
        <ele>372.304993</ele>
        <time>2011-10-02T11:50:25Z</time>
      </trkpt>
      <trkpt lat="47.60599" lon="6.88544">
        <ele>372.415009</ele>
        <time>2011-10-02T11:50:29Z</time>
      </trkpt>
      <trkpt lat="47.60609" lon="6.88526">
        <ele>372.625</ele>
        <time>2011-10-02T11:50:35Z</time>
      </trkpt>
      <trkpt lat="47.60612" lon="6.88524">
        <ele>372.684998</ele>
        <time>2011-10-02T11:50:36Z</time>
      </trkpt>
      <trkpt lat="47.60626" lon="6.88517">
        <ele>372.940979</ele>
        <time>2011-10-02T11:50:41Z</time>
      </trkpt>
      <trkpt lat="47.60639" lon="6.88512">
        <ele>373.431244</ele>
        <time>2011-10-02T11:50:45Z</time>
      </trkpt>
      <trkpt lat="47.60663" lon="6.88502">
        <ele>374.268738</ele>
        <time>2011-10-02T11:50:51Z</time>
      </trkpt>
      <trkpt lat="47.6068" lon="6.88493">
        <ele>374.795074</ele>
        <time>2011-10-02T11:50:56Z</time>
      </trkpt>
      <trkpt lat="47.60702" lon="6.88482">
        <ele>375.177582</ele>
        <time>2011-10-02T11:51:02Z</time>
      </trkpt>
      <trkpt lat="47.60709" lon="6.88477">
        <ele>375.268738</ele>
        <time>2011-10-02T11:51:04Z</time>
      </trkpt>
      <trkpt lat="47.60729" lon="6.88472">
        <ele>375.744995</ele>
        <time>2011-10-02T11:51:09Z</time>
      </trkpt>
      <trkpt lat="47.60742" lon="6.88465">
        <ele>376.075012</ele>
        <time>2011-10-02T11:51:13Z</time>
      </trkpt>
      <trkpt lat="47.6076" lon="6.88458">
        <ele>376.820007</ele>
        <time>2011-10-02T11:51:19Z</time>
      </trkpt>
      <trkpt lat="47.60785" lon="6.88449">
        <ele>377.920013</ele>
        <time>2011-10-02T11:51:27Z</time>
      </trkpt>
      <trkpt lat="47.60801" lon="6.8844">
        <ele>378.640015</ele>
        <time>2011-10-02T11:51:33Z</time>
      </trkpt>
      <trkpt lat="47.60819" lon="6.88435">
        <ele>379.741577</ele>
        <time>2011-10-02T11:51:39Z</time>
      </trkpt>
      <trkpt lat="47.60832" lon="6.88428">
        <ele>380.784821</ele>
        <time>2011-10-02T11:51:44Z</time>
      </trkpt>
      <trkpt lat="47.60846" lon="6.8842">
        <ele>382.024994</ele>
        <time>2011-10-02T11:51:50Z</time>
      </trkpt>
      <trkpt lat="47.60864" lon="6.88412">
        <ele>383.477051</ele>
        <time>2011-10-02T11:51:57Z</time>
      </trkpt>
      <trkpt lat="47.60878" lon="6.88405">
        <ele>384.5</ele>
        <time>2011-10-02T11:52:03Z</time>
      </trkpt>
      <trkpt lat="47.60898" lon="6.88396">
        <ele>385.744995</ele>
        <time>2011-10-02T11:52:10Z</time>
      </trkpt>
      <trkpt lat="47.60913" lon="6.88389">
        <ele>386.915009</ele>
        <time>2011-10-02T11:52:16Z</time>
      </trkpt>
      <trkpt lat="47.60925" lon="6.88384">
        <ele>387.99176</ele>
        <time>2011-10-02T11:52:22Z</time>
      </trkpt>
      <trkpt lat="47.60937" lon="6.88376">
        <ele>389.234192</ele>
        <time>2011-10-02T11:52:27Z</time>
      </trkpt>
      <trkpt lat="47.6094" lon="6.88374">
        <ele>389.496552</ele>
        <time>2011-10-02T11:52:28Z</time>
      </trkpt>
      <trkpt lat="47.60943" lon="6.88361">
        <ele>390.158478</ele>
        <time>2011-10-02T11:52:32Z</time>
      </trkpt>
      <trkpt lat="47.60942" lon="6.88324">
        <ele>391.549622</ele>
        <time>2011-10-02T11:52:39Z</time>
      </trkpt>
      <trkpt lat="47.6094" lon="6.88267">
        <ele>393.510925</ele>
        <time>2011-10-02T11:52:47Z</time>
      </trkpt>
      <trkpt lat="47.60938" lon="6.88235">
        <ele>393.566132</ele>
        <time>2011-10-02T11:52:51Z</time>
      </trkpt>
      <trkpt lat="47.60933" lon="6.88215">
        <ele>393.290253</ele>
        <time>2011-10-02T11:52:54Z</time>
      </trkpt>
      <trkpt lat="47.60928" lon="6.88162">
        <ele>393.515259</ele>
        <time>2011-10-02T11:53:01Z</time>
      </trkpt>
      <trkpt lat="47.60926" lon="6.88137">
        <ele>393.764038</ele>
        <time>2011-10-02T11:53:04Z</time>
      </trkpt>
      <trkpt lat="47.60933" lon="6.88117">
        <ele>394.949707</ele>
        <time>2011-10-02T11:53:08Z</time>
      </trkpt>
      <trkpt lat="47.60935" lon="6.88116">
        <ele>395.199371</ele>
        <time>2011-10-02T11:53:09Z</time>
      </trkpt>
      <trkpt lat="47.60945" lon="6.8811">
        <ele>396.59964</ele>
        <time>2011-10-02T11:53:15Z</time>
      </trkpt>
      <trkpt lat="47.60956" lon="6.88105">
        <ele>398.05307</ele>
        <time>2011-10-02T11:53:20Z</time>
      </trkpt>
      <trkpt lat="47.60968" lon="6.88101">
        <ele>399.663269</ele>
        <time>2011-10-02T11:53:26Z</time>
      </trkpt>
      <trkpt lat="47.60979" lon="6.88101">
        <ele>401.021912</ele>
        <time>2011-10-02T11:53:32Z</time>
      </trkpt>
      <trkpt lat="47.60994" lon="6.881">
        <ele>402.728485</ele>
        <time>2011-10-02T11:53:41Z</time>
      </trkpt>
      <trkpt lat="47.61005" lon="6.88101">
        <ele>403.894562</ele>
        <time>2011-10-02T11:53:48Z</time>
      </trkpt>
      <trkpt lat="47.61017" lon="6.881">
        <ele>404.493225</ele>
        <time>2011-10-02T11:53:55Z</time>
      </trkpt>
      <trkpt lat="47.61033" lon="6.88098">
        <ele>405.306519</ele>
        <time>2011-10-02T11:54:03Z</time>
      </trkpt>
      <trkpt lat="47.61047" lon="6.88102">
        <ele>405.967285</ele>
        <time>2011-10-02T11:54:09Z</time>
      </trkpt>
      <trkpt lat="47.61056" lon="6.88115">
        <ele>406</ele>
        <time>2011-10-02T11:54:14Z</time>
      </trkpt>
      <trkpt lat="47.61065" lon="6.88144">
        <ele>406</ele>
        <time>2011-10-02T11:54:21Z</time>
      </trkpt>
      <trkpt lat="47.61073" lon="6.88165">
        <ele>406.021179</ele>
        <time>2011-10-02T11:54:26Z</time>
      </trkpt>
      <trkpt lat="47.61082" lon="6.88189">
        <ele>406.283569</ele>
        <time>2011-10-02T11:54:31Z</time>
      </trkpt>
      <trkpt lat="47.61087" lon="6.88219">
        <ele>406.829559</ele>
        <time>2011-10-02T11:54:37Z</time>
      </trkpt>
      <trkpt lat="47.6109" lon="6.88241">
        <ele>406.801849</ele>
        <time>2011-10-02T11:54:41Z</time>
      </trkpt>
      <trkpt lat="47.61094" lon="6.88255">
        <ele>406.640869</ele>
        <time>2011-10-02T11:54:44Z</time>
      </trkpt>
      <trkpt lat="47.61106" lon="6.88259">
        <ele>406.733917</ele>
        <time>2011-10-02T11:54:48Z</time>
      </trkpt>
      <trkpt lat="47.61121" lon="6.88243">
        <ele>406.946442</ele>
        <time>2011-10-02T11:54:53Z</time>
      </trkpt>
      <trkpt lat="47.61133" lon="6.88227">
        <ele>406.947235</ele>
        <time>2011-10-02T11:54:57Z</time>
      </trkpt>
      <trkpt lat="47.61161" lon="6.88205">
        <ele>406.321777</ele>
        <time>2011-10-02T11:55:04Z</time>
      </trkpt>
      <trkpt lat="47.6117" lon="6.88201">
        <ele>406.113953</ele>
        <time>2011-10-02T11:55:06Z</time>
      </trkpt>
      <trkpt lat="47.61187" lon="6.88208">
        <ele>406.345001</ele>
        <time>2011-10-02T11:55:10Z</time>
      </trkpt>
      <trkpt lat="47.61233" lon="6.88223">
        <ele>407.73999</ele>
        <time>2011-10-02T11:55:19Z</time>
      </trkpt>
      <trkpt lat="47.61243" lon="6.88226">
        <ele>408.017487</ele>
        <time>2011-10-02T11:55:21Z</time>
      </trkpt>
      <trkpt lat="47.61276" lon="6.88224">
        <ele>408.757507</ele>
        <time>2011-10-02T11:55:28Z</time>
      </trkpt>
      <trkpt lat="47.61296" lon="6.88219">
        <ele>409.470001</ele>
        <time>2011-10-02T11:55:34Z</time>
      </trkpt>
      <trkpt lat="47.6132" lon="6.88214">
        <ele>410.307495</ele>
        <time>2011-10-02T11:55:39Z</time>
      </trkpt>
      <trkpt lat="47.6133" lon="6.88211">
        <ele>410.632507</ele>
        <time>2011-10-02T11:55:41Z</time>
      </trkpt>
      <trkpt lat="47.61353" lon="6.88193">
        <ele>411.032501</ele>
        <time>2011-10-02T11:55:46Z</time>
      </trkpt>
      <trkpt lat="47.61371" lon="6.8817">
        <ele>410.910767</ele>
        <time>2011-10-02T11:55:51Z</time>
      </trkpt>
      <trkpt lat="47.61404" lon="6.88135">
        <ele>411.284546</ele>
        <time>2011-10-02T11:55:59Z</time>
      </trkpt>
      <trkpt lat="47.61409" lon="6.88131">
        <ele>411.353027</ele>
        <time>2011-10-02T11:56:00Z</time>
      </trkpt>
      <trkpt lat="47.61428" lon="6.88108">
        <ele>411.583618</ele>
        <time>2011-10-02T11:56:05Z</time>
      </trkpt>
      <trkpt lat="47.61449" lon="6.88083">
        <ele>412.056732</ele>
        <time>2011-10-02T11:56:11Z</time>
      </trkpt>
      <trkpt lat="47.6146" lon="6.88058">
        <ele>412.231567</ele>
        <time>2011-10-02T11:56:16Z</time>
      </trkpt>
      <trkpt lat="47.61467" lon="6.88029">
        <ele>412.564636</ele>
        <time>2011-10-02T11:56:21Z</time>
      </trkpt>
      <trkpt lat="47.61479" lon="6.87982">
        <ele>413.479187</ele>
        <time>2011-10-02T11:56:29Z</time>
      </trkpt>
      <trkpt lat="47.61489" lon="6.87953">
        <ele>414.537811</ele>
        <time>2011-10-02T11:56:34Z</time>
      </trkpt>
      <trkpt lat="47.61503" lon="6.87902">
        <ele>416.88916</ele>
        <time>2011-10-02T11:56:43Z</time>
      </trkpt>
      <trkpt lat="47.61512" lon="6.87873">
        <ele>417.976532</ele>
        <time>2011-10-02T11:56:48Z</time>
      </trkpt>
      <trkpt lat="47.61529" lon="6.87849">
        <ele>417.871185</ele>
        <time>2011-10-02T11:56:54Z</time>
      </trkpt>
      <trkpt lat="47.6155" lon="6.87836">
        <ele>417.592316</ele>
        <time>2011-10-02T11:57:00Z</time>
      </trkpt>
      <trkpt lat="47.61562" lon="6.87836">
        <ele>416.806335</ele>
        <time>2011-10-02T11:57:03Z</time>
      </trkpt>
      <trkpt lat="47.61575" lon="6.87848">
        <ele>416.065979</ele>
        <time>2011-10-02T11:57:07Z</time>
      </trkpt>
      <trkpt lat="47.61593" lon="6.87888">
        <ele>416.101013</ele>
        <time>2011-10-02T11:57:16Z</time>
      </trkpt>
      <trkpt lat="47.61604" lon="6.87909">
        <ele>415.751831</ele>
        <time>2011-10-02T11:57:21Z</time>
      </trkpt>
      <trkpt lat="47.61621" lon="6.87937">
        <ele>415.010498</ele>
        <time>2011-10-02T11:57:29Z</time>
      </trkpt>
      <trkpt lat="47.6163" lon="6.87957">
        <ele>414.28009</ele>
        <time>2011-10-02T11:57:35Z</time>
      </trkpt>
      <trkpt lat="47.6163" lon="6.87966">
        <ele>414.289948</ele>
        <time>2011-10-02T11:57:40Z</time>
      </trkpt>
      <trkpt lat="47.6163" lon="6.87967">
        <ele>414.282104</ele>
        <time>2011-10-02T11:57:45Z</time>
      </trkpt>
      <trkpt lat="47.6163" lon="6.87968">
        <ele>414.292236</ele>
        <time>2011-10-02T11:57:55Z</time>
      </trkpt>
      <trkpt lat="47.61631" lon="6.87964">
        <ele>414.167877</ele>
        <time>2011-10-02T11:58:02Z</time>
      </trkpt>
      <trkpt lat="47.61632" lon="6.87956">
        <ele>413.982025</ele>
        <time>2011-10-02T11:58:08Z</time>
      </trkpt>
      <trkpt lat="47.61628" lon="6.87952">
        <ele>414.359009</ele>
        <time>2011-10-02T11:59:16Z</time>
      </trkpt>
      <trkpt lat="47.61628" lon="6.87952">
        <ele>414.365631</ele>
        <time>2011-10-02T11:59:26Z</time>
      </trkpt>
      <trkpt lat="47.61634" lon="6.87952">
        <ele>413.804413</ele>
        <time>2011-10-02T12:02:31Z</time>
      </trkpt>
      <trkpt lat="47.61636" lon="6.87955">
        <ele>413.572723</ele>
        <time>2011-10-02T12:03:26Z</time>
      </trkpt>
      <trkpt lat="47.61637" lon="6.87954">
        <ele>413.414795</ele>
        <time>2011-10-02T12:03:42Z</time>
      </trkpt>
      <trkpt lat="47.61632" lon="6.87952">
        <ele>413.926056</ele>
        <time>2011-10-02T12:04:57Z</time>
      </trkpt>
      <trkpt lat="47.6163" lon="6.87954">
        <ele>414.220825</ele>
        <time>2011-10-02T12:05:22Z</time>
      </trkpt>
      <trkpt lat="47.61624" lon="6.87952">
        <ele>414.773102</ele>
        <time>2011-10-02T12:05:38Z</time>
      </trkpt>
      <trkpt lat="47.61622" lon="6.8795">
        <ele>415.050659</ele>
        <time>2011-10-02T12:05:49Z</time>
      </trkpt>
      <trkpt lat="47.61621" lon="6.87949">
        <ele>415.139252</ele>
        <time>2011-10-02T12:06:00Z</time>
      </trkpt>
      <trkpt lat="47.61622" lon="6.87949">
        <ele>415.015717</ele>
        <time>2011-10-02T12:06:11Z</time>
      </trkpt>
      <trkpt lat="47.61632" lon="6.87947">
        <ele>413.987122</ele>
        <time>2011-10-02T12:06:25Z</time>
      </trkpt>
      <trkpt lat="47.6164" lon="6.8795">
        <ele>413.105133</ele>
        <time>2011-10-02T12:06:47Z</time>
      </trkpt>
      <trkpt lat="47.6163" lon="6.87952">
        <ele>414.167114</ele>
        <time>2011-10-02T12:07:09Z</time>
      </trkpt>
      <trkpt lat="47.61632" lon="6.87953">
        <ele>414.034851</ele>
        <time>2011-10-02T12:07:19Z</time>
      </trkpt>
      <trkpt lat="47.61628" lon="6.87952">
        <ele>414.361847</ele>
        <time>2011-10-02T12:07:24Z</time>
      </trkpt>
      <trkpt lat="47.61625" lon="6.87951">
        <ele>414.76474</ele>
        <time>2011-10-02T12:07:30Z</time>
      </trkpt>
      <trkpt lat="47.61632" lon="6.87958">
        <ele>414.025757</ele>
        <time>2011-10-02T12:09:12Z</time>
      </trkpt>
      <trkpt lat="47.61632" lon="6.87959">
        <ele>413.995422</ele>
        <time>2011-10-02T12:11:56Z</time>
      </trkpt>
      <trkpt lat="47.61635" lon="6.87966">
        <ele>413.772705</ele>
        <time>2011-10-02T12:12:16Z</time>
      </trkpt>
      <trkpt lat="47.61636" lon="6.87968">
        <ele>413.687744</ele>
        <time>2011-10-02T12:12:17Z</time>
      </trkpt>
      <trkpt lat="47.61654" lon="6.87978">
        <ele>411.442688</ele>
        <time>2011-10-02T12:12:22Z</time>
      </trkpt>
      <trkpt lat="47.61678" lon="6.87989">
        <ele>408.596985</ele>
        <time>2011-10-02T12:12:26Z</time>
      </trkpt>
      <trkpt lat="47.62057" lon="6.8752">
        <ele>374.043762</ele>
        <time>2011-10-02T12:14:33Z</time>
      </trkpt>
      <trkpt lat="47.62063" lon="6.87491">
        <ele>373.733734</ele>
        <time>2011-10-02T12:14:36Z</time>
      </trkpt>
      <trkpt lat="47.62066" lon="6.87461">
        <ele>373.352509</ele>
        <time>2011-10-02T12:14:40Z</time>
      </trkpt>
      <trkpt lat="47.62065" lon="6.8743">
        <ele>372.795013</ele>
        <time>2011-10-02T12:14:44Z</time>
      </trkpt>
      <trkpt lat="47.62057" lon="6.87378">
        <ele>371.547485</ele>
        <time>2011-10-02T12:14:51Z</time>
      </trkpt>
      <trkpt lat="47.62045" lon="6.87325">
        <ele>370.563049</ele>
        <time>2011-10-02T12:14:58Z</time>
      </trkpt>
      <trkpt lat="47.62037" lon="6.87256">
        <ele>369.085724</ele>
        <time>2011-10-02T12:15:07Z</time>
      </trkpt>
      <trkpt lat="47.62036" lon="6.87213">
        <ele>367.513763</ele>
        <time>2011-10-02T12:15:12Z</time>
      </trkpt>
      <trkpt lat="47.62032" lon="6.87049">
        <ele>363.953796</ele>
        <time>2011-10-02T12:15:28Z</time>
      </trkpt>
      <trkpt lat="47.62039" lon="6.86997">
        <ele>364.146912</ele>
        <time>2011-10-02T12:15:33Z</time>
      </trkpt>
      <trkpt lat="47.62046" lon="6.86954">
        <ele>364.622406</ele>
        <time>2011-10-02T12:15:39Z</time>
      </trkpt>
      <trkpt lat="47.62052" lon="6.8692">
        <ele>364.818665</ele>
        <time>2011-10-02T12:15:44Z</time>
      </trkpt>
      <trkpt lat="47.62057" lon="6.86886">
        <ele>365.035004</ele>
        <time>2011-10-02T12:15:49Z</time>
      </trkpt>
      <trkpt lat="47.62063" lon="6.86852">
        <ele>365.350006</ele>
        <time>2011-10-02T12:15:54Z</time>
      </trkpt>
      <trkpt lat="47.62072" lon="6.86819">
        <ele>365.875</ele>
        <time>2011-10-02T12:15:59Z</time>
      </trkpt>
      <trkpt lat="47.62077" lon="6.8679">
        <ele>366.130005</ele>
        <time>2011-10-02T12:16:03Z</time>
      </trkpt>
      <trkpt lat="47.62083" lon="6.86747">
        <ele>366.028595</ele>
        <time>2011-10-02T12:16:09Z</time>
      </trkpt>
      <trkpt lat="47.62085" lon="6.86718">
        <ele>365.691132</ele>
        <time>2011-10-02T12:16:13Z</time>
      </trkpt>
      <trkpt lat="47.62104" lon="6.86693">
        <ele>366.199127</ele>
        <time>2011-10-02T12:16:18Z</time>
      </trkpt>
      <trkpt lat="47.62104" lon="6.86689">
        <ele>366.055511</ele>
        <time>2011-10-02T12:16:19Z</time>
      </trkpt>
      <trkpt lat="47.62109" lon="6.86681">
        <ele>366.273193</ele>
        <time>2011-10-02T12:16:21Z</time>
      </trkpt>
      <trkpt lat="47.62101" lon="6.86652">
        <ele>364.663483</ele>
        <time>2011-10-02T12:16:26Z</time>
      </trkpt>
      <trkpt lat="47.62116" lon="6.86624">
        <ele>364.599884</ele>
        <time>2011-10-02T12:16:31Z</time>
      </trkpt>
      <trkpt lat="47.6212" lon="6.86611">
        <ele>364.240723</ele>
        <time>2011-10-02T12:16:34Z</time>
      </trkpt>
      <trkpt lat="47.62115" lon="6.86588">
        <ele>361.986237</ele>
        <time>2011-10-02T12:16:39Z</time>
      </trkpt>
      <trkpt lat="47.62118" lon="6.86582">
        <ele>361.938568</ele>
        <time>2011-10-02T12:16:42Z</time>
      </trkpt>
      <trkpt lat="47.62133" lon="6.86566">
        <ele>361.954102</ele>
        <time>2011-10-02T12:16:47Z</time>
      </trkpt>
      <trkpt lat="47.6215" lon="6.8655">
        <ele>361.727661</ele>
        <time>2011-10-02T12:16:52Z</time>
      </trkpt>
      <trkpt lat="47.62164" lon="6.86538">
        <ele>361.943878</ele>
        <time>2011-10-02T12:16:56Z</time>
      </trkpt>
      <trkpt lat="47.62175" lon="6.86527">
        <ele>362.041504</ele>
        <time>2011-10-02T12:17:01Z</time>
      </trkpt>
      <trkpt lat="47.62182" lon="6.86524">
        <ele>362.7565</ele>
        <time>2011-10-02T12:17:02Z</time>
      </trkpt>
      <trkpt lat="47.62224" lon="6.86505">
        <ele>365.823059</ele>
        <time>2011-10-02T12:17:08Z</time>
      </trkpt>
      <trkpt lat="47.62256" lon="6.86487">
        <ele>365.3125</ele>
        <time>2011-10-02T12:17:14Z</time>
      </trkpt>
      <trkpt lat="47.62283" lon="6.86472">
        <ele>365.414215</ele>
        <time>2011-10-02T12:17:20Z</time>
      </trkpt>
      <trkpt lat="47.62288" lon="6.86469">
        <ele>365.506531</ele>
        <time>2011-10-02T12:17:21Z</time>
      </trkpt>
      <trkpt lat="47.62298" lon="6.86462">
        <ele>366.240387</ele>
        <time>2011-10-02T12:17:23Z</time>
      </trkpt>
      <trkpt lat="47.62309" lon="6.86452">
        <ele>366.169189</ele>
        <time>2011-10-02T12:17:26Z</time>
      </trkpt>
      <trkpt lat="47.62329" lon="6.86443">
        <ele>367.007843</ele>
        <time>2011-10-02T12:17:30Z</time>
      </trkpt>
      <trkpt lat="47.62355" lon="6.86419">
        <ele>363.755493</ele>
        <time>2011-10-02T12:17:36Z</time>
      </trkpt>
      <trkpt lat="47.62393" lon="6.86394">
        <ele>364.098724</ele>
        <time>2011-10-02T12:17:42Z</time>
      </trkpt>
      <trkpt lat="47.62408" lon="6.86372">
        <ele>362.680695</ele>
        <time>2011-10-02T12:17:47Z</time>
      </trkpt>
      <trkpt lat="47.62418" lon="6.86362">
        <ele>361.741577</ele>
        <time>2011-10-02T12:17:51Z</time>
      </trkpt>
      <trkpt lat="47.62431" lon="6.86364">
        <ele>363.821747</ele>
        <time>2011-10-02T12:17:55Z</time>
      </trkpt>
      <trkpt lat="47.62447" lon="6.86365">
        <ele>366.054016</ele>
        <time>2011-10-02T12:17:59Z</time>
      </trkpt>
      <trkpt lat="47.62473" lon="6.86353">
        <ele>364.66864</ele>
        <time>2011-10-02T12:18:06Z</time>
      </trkpt>
      <trkpt lat="47.62492" lon="6.86344">
        <ele>364.78064</ele>
        <time>2011-10-02T12:18:13Z</time>
      </trkpt>
      <trkpt lat="47.62499" lon="6.86341">
        <ele>365.393188</ele>
        <time>2011-10-02T12:18:15Z</time>
      </trkpt>
      <trkpt lat="47.62517" lon="6.86336">
        <ele>366.352264</ele>
        <time>2011-10-02T12:18:19Z</time>
      </trkpt>
      <trkpt lat="47.62525" lon="6.86336">
        <ele>366.0849</ele>
        <time>2011-10-02T12:18:21Z</time>
      </trkpt>
      <trkpt lat="47.62542" lon="6.86329">
        <ele>364.48996</ele>
        <time>2011-10-02T12:18:24Z</time>
      </trkpt>
      <trkpt lat="47.62561" lon="6.8632">
        <ele>362.890259</ele>
        <time>2011-10-02T12:18:27Z</time>
      </trkpt>
      <trkpt lat="47.62588" lon="6.86316">
        <ele>361.241852</ele>
        <time>2011-10-02T12:18:34Z</time>
      </trkpt>
      <trkpt lat="47.62597" lon="6.86317">
        <ele>361.061707</ele>
        <time>2011-10-02T12:18:36Z</time>
      </trkpt>
      <trkpt lat="47.62625" lon="6.8633">
        <ele>360.507141</ele>
        <time>2011-10-02T12:18:43Z</time>
      </trkpt>
      <trkpt lat="47.62649" lon="6.86354">
        <ele>360.395111</ele>
        <time>2011-10-02T12:18:50Z</time>
      </trkpt>
      <trkpt lat="47.62668" lon="6.8638">
        <ele>361.336121</ele>
        <time>2011-10-02T12:18:56Z</time>
      </trkpt>
      <trkpt lat="47.62691" lon="6.86408">
        <ele>364.019012</ele>
        <time>2011-10-02T12:19:03Z</time>
      </trkpt>
      <trkpt lat="47.62706" lon="6.86423">
        <ele>364.517517</ele>
        <time>2011-10-02T12:19:08Z</time>
      </trkpt>
      <trkpt lat="47.62738" lon="6.86442">
        <ele>363.521088</ele>
        <time>2011-10-02T12:19:15Z</time>
      </trkpt>
      <trkpt lat="47.62743" lon="6.86445">
        <ele>364.066498</ele>
        <time>2011-10-02T12:19:16Z</time>
      </trkpt>
      <trkpt lat="47.62782" lon="6.86461">
        <ele>366.050018</ele>
        <time>2011-10-02T12:19:24Z</time>
      </trkpt>
      <trkpt lat="47.62808" lon="6.86471">
        <ele>365.753754</ele>
        <time>2011-10-02T12:19:29Z</time>
      </trkpt>
      <trkpt lat="47.62835" lon="6.86472">
        <ele>364.123413</ele>
        <time>2011-10-02T12:19:35Z</time>
      </trkpt>
      <trkpt lat="47.62841" lon="6.86456">
        <ele>361.068481</ele>
        <time>2011-10-02T12:19:39Z</time>
      </trkpt>
      <trkpt lat="47.62845" lon="6.86447">
        <ele>359.450867</ele>
        <time>2011-10-02T12:19:41Z</time>
      </trkpt>
      <trkpt lat="47.62858" lon="6.8643">
        <ele>358.306244</ele>
        <time>2011-10-02T12:19:47Z</time>
      </trkpt>
      <trkpt lat="47.62859" lon="6.86406">
        <ele>357.196259</ele>
        <time>2011-10-02T12:19:51Z</time>
      </trkpt>
      <trkpt lat="47.6286" lon="6.86378">
        <ele>355.987488</ele>
        <time>2011-10-02T12:19:55Z</time>
      </trkpt>
      <trkpt lat="47.6286" lon="6.86337">
        <ele>355.367493</ele>
        <time>2011-10-02T12:20:02Z</time>
      </trkpt>
      <trkpt lat="47.62861" lon="6.86292">
        <ele>355</ele>
        <time>2011-10-02T12:20:09Z</time>
      </trkpt>
      <trkpt lat="47.62863" lon="6.86276">
        <ele>355</ele>
        <time>2011-10-02T12:20:12Z</time>
      </trkpt>
      <trkpt lat="47.62879" lon="6.86275">
        <ele>355</ele>
        <time>2011-10-02T12:20:16Z</time>
      </trkpt>
      <trkpt lat="47.62923" lon="6.8627">
        <ele>355</ele>
        <time>2011-10-02T12:20:25Z</time>
      </trkpt>
      <trkpt lat="47.62955" lon="6.86266">
        <ele>355</ele>
        <time>2011-10-02T12:20:31Z</time>
      </trkpt>
      <trkpt lat="47.62981" lon="6.86262">
        <ele>355</ele>
        <time>2011-10-02T12:20:36Z</time>
      </trkpt>
      <trkpt lat="47.63029" lon="6.86248">
        <ele>355.12146</ele>
        <time>2011-10-02T12:20:45Z</time>
      </trkpt>
      <trkpt lat="47.63077" lon="6.86234">
        <ele>355</ele>
        <time>2011-10-02T12:20:54Z</time>
      </trkpt>
      <trkpt lat="47.63092" lon="6.86229">
        <ele>355</ele>
        <time>2011-10-02T12:20:57Z</time>
      </trkpt>
      <trkpt lat="47.63116" lon="6.86218">
        <ele>355</ele>
        <time>2011-10-02T12:21:03Z</time>
      </trkpt>
      <trkpt lat="47.63126" lon="6.86213">
        <ele>355</ele>
        <time>2011-10-02T12:21:08Z</time>
      </trkpt>
      <trkpt lat="47.63134" lon="6.86209">
        <ele>355</ele>
        <time>2011-10-02T12:21:11Z</time>
      </trkpt>
      <trkpt lat="47.63161" lon="6.86197">
        <ele>355.093414</ele>
        <time>2011-10-02T12:21:18Z</time>
      </trkpt>
      <trkpt lat="47.63204" lon="6.86172">
        <ele>355</ele>
        <time>2011-10-02T12:21:28Z</time>
      </trkpt>
      <trkpt lat="47.63247" lon="6.86149">
        <ele>355.006165</ele>
        <time>2011-10-02T12:21:38Z</time>
      </trkpt>
      <trkpt lat="47.63277" lon="6.8613">
        <ele>355.276245</ele>
        <time>2011-10-02T12:21:46Z</time>
      </trkpt>
      <trkpt lat="47.63283" lon="6.86145">
        <ele>355.057495</ele>
        <time>2011-10-02T12:21:50Z</time>
      </trkpt>
      <trkpt lat="47.63284" lon="6.8615">
        <ele>355.019012</ele>
        <time>2011-10-02T12:21:51Z</time>
      </trkpt>
      <trkpt lat="47.633" lon="6.86153">
        <ele>355.341949</ele>
        <time>2011-10-02T12:21:55Z</time>
      </trkpt>
      <trkpt lat="47.63335" lon="6.86128">
        <ele>356.070007</ele>
        <time>2011-10-02T12:22:03Z</time>
      </trkpt>
      <trkpt lat="47.63362" lon="6.8611">
        <ele>356.644989</ele>
        <time>2011-10-02T12:22:09Z</time>
      </trkpt>
      <trkpt lat="47.634" lon="6.86094">
        <ele>357.475006</ele>
        <time>2011-10-02T12:22:17Z</time>
      </trkpt>
      <trkpt lat="47.63422" lon="6.86084">
        <ele>357.950012</ele>
        <time>2011-10-02T12:22:23Z</time>
      </trkpt>
      <trkpt lat="47.63448" lon="6.86075">
        <ele>358.360931</ele>
        <time>2011-10-02T12:22:29Z</time>
      </trkpt>
      <trkpt lat="47.63491" lon="6.8606">
        <ele>358.670258</ele>
        <time>2011-10-02T12:22:37Z</time>
      </trkpt>
      <trkpt lat="47.63525" lon="6.86042">
        <ele>359</ele>
        <time>2011-10-02T12:22:44Z</time>
      </trkpt>
      <trkpt lat="47.63543" lon="6.86028">
        <ele>359</ele>
        <time>2011-10-02T12:22:48Z</time>
      </trkpt>
      <trkpt lat="47.63573" lon="6.86002">
        <ele>359.225006</ele>
        <time>2011-10-02T12:22:55Z</time>
      </trkpt>
      <trkpt lat="47.63602" lon="6.85973">
        <ele>359.866821</ele>
        <time>2011-10-02T12:23:02Z</time>
      </trkpt>
      <trkpt lat="47.63616" lon="6.85961">
        <ele>360.154999</ele>
        <time>2011-10-02T12:23:05Z</time>
      </trkpt>
      <trkpt lat="47.63638" lon="6.85956">
        <ele>360.630005</ele>
        <time>2011-10-02T12:23:10Z</time>
      </trkpt>
      <trkpt lat="47.63642" lon="6.85954">
        <ele>360.725006</ele>
        <time>2011-10-02T12:23:11Z</time>
      </trkpt>
      <trkpt lat="47.63657" lon="6.85943">
        <ele>361</ele>
        <time>2011-10-02T12:23:15Z</time>
      </trkpt>
      <trkpt lat="47.63669" lon="6.85946">
        <ele>361</ele>
        <time>2011-10-02T12:23:19Z</time>
      </trkpt>
      <trkpt lat="47.63675" lon="6.85966">
        <ele>361</ele>
        <time>2011-10-02T12:23:23Z</time>
      </trkpt>
      <trkpt lat="47.63686" lon="6.86004">
        <ele>361</ele>
        <time>2011-10-02T12:23:31Z</time>
      </trkpt>
      <trkpt lat="47.63697" lon="6.86016">
        <ele>361.004761</ele>
        <time>2011-10-02T12:23:36Z</time>
      </trkpt>
      <trkpt lat="47.63707" lon="6.86023">
        <ele>361.13739</ele>
        <time>2011-10-02T12:23:39Z</time>
      </trkpt>
      <trkpt lat="47.63708" lon="6.86042">
        <ele>361.22229</ele>
        <time>2011-10-02T12:23:43Z</time>
      </trkpt>
      <trkpt lat="47.63707" lon="6.86057">
        <ele>361.26001</ele>
        <time>2011-10-02T12:23:46Z</time>
      </trkpt>
      <trkpt lat="47.63718" lon="6.86068">
        <ele>361.51001</ele>
        <time>2011-10-02T12:23:50Z</time>
      </trkpt>
      <trkpt lat="47.63722" lon="6.86069">
        <ele>361.589996</ele>
        <time>2011-10-02T12:23:51Z</time>
      </trkpt>
      <trkpt lat="47.63737" lon="6.86096">
        <ele>361.950012</ele>
        <time>2011-10-02T12:23:57Z</time>
      </trkpt>
      <trkpt lat="47.6374" lon="6.86121">
        <ele>362</ele>
        <time>2011-10-02T12:24:01Z</time>
      </trkpt>
      <trkpt lat="47.63745" lon="6.86144">
        <ele>362</ele>
        <time>2011-10-02T12:24:05Z</time>
      </trkpt>
      <trkpt lat="47.63752" lon="6.86151">
        <ele>362</ele>
        <time>2011-10-02T12:24:07Z</time>
      </trkpt>
      <trkpt lat="47.6376" lon="6.86156">
        <ele>362</ele>
        <time>2011-10-02T12:24:09Z</time>
      </trkpt>
      <trkpt lat="47.63772" lon="6.86166">
        <ele>362</ele>
        <time>2011-10-02T12:24:13Z</time>
      </trkpt>
      <trkpt lat="47.63769" lon="6.86177">
        <ele>362</ele>
        <time>2011-10-02T12:24:16Z</time>
      </trkpt>
      <trkpt lat="47.63762" lon="6.86188">
        <ele>362</ele>
        <time>2011-10-02T12:24:21Z</time>
      </trkpt>
      <trkpt lat="47.63761" lon="6.86188">
        <ele>362</ele>
        <time>2011-10-02T12:24:22Z</time>
      </trkpt>
      <trkpt lat="47.63768" lon="6.8619">
        <ele>362</ele>
        <time>2011-10-02T12:24:28Z</time>
      </trkpt>
      <trkpt lat="47.63786" lon="6.86194">
        <ele>361.970642</ele>
        <time>2011-10-02T12:24:33Z</time>
      </trkpt>
      <trkpt lat="47.63815" lon="6.86203">
        <ele>361.972168</ele>
        <time>2011-10-02T12:24:40Z</time>
      </trkpt>
      <trkpt lat="47.63833" lon="6.86208">
        <ele>362.159912</ele>
        <time>2011-10-02T12:24:43Z</time>
      </trkpt>
      <trkpt lat="47.6385" lon="6.86212">
        <ele>362.44104</ele>
        <time>2011-10-02T12:24:48Z</time>
      </trkpt>
      <trkpt lat="47.63868" lon="6.8621">
        <ele>362.785492</ele>
        <time>2011-10-02T12:24:54Z</time>
      </trkpt>
      <trkpt lat="47.63886" lon="6.86214">
        <ele>362.799988</ele>
        <time>2011-10-02T12:25:00Z</time>
      </trkpt>
      <trkpt lat="47.63903" lon="6.86215">
        <ele>362.803741</ele>
        <time>2011-10-02T12:25:07Z</time>
      </trkpt>
      <trkpt lat="47.63916" lon="6.86205">
        <ele>362.94693</ele>
        <time>2011-10-02T12:25:11Z</time>
      </trkpt>
      <trkpt lat="47.63918" lon="6.862">
        <ele>362.937775</ele>
        <time>2011-10-02T12:25:12Z</time>
      </trkpt>
      <trkpt lat="47.63927" lon="6.86156">
        <ele>362.934204</ele>
        <time>2011-10-02T12:25:20Z</time>
      </trkpt>
      <trkpt lat="47.63921" lon="6.86128">
        <ele>363</ele>
        <time>2011-10-02T12:25:25Z</time>
      </trkpt>
      <trkpt lat="47.63907" lon="6.86116">
        <ele>362.924927</ele>
        <time>2011-10-02T12:25:30Z</time>
      </trkpt>
      <trkpt lat="47.63904" lon="6.86102">
        <ele>362.84079</ele>
        <time>2011-10-02T12:25:33Z</time>
      </trkpt>
      <trkpt lat="47.63901" lon="6.86054">
        <ele>362.448456</ele>
        <time>2011-10-02T12:25:41Z</time>
      </trkpt>
      <trkpt lat="47.6391" lon="6.86032">
        <ele>362.32486</ele>
        <time>2011-10-02T12:25:46Z</time>
      </trkpt>
      <trkpt lat="47.63917" lon="6.86009">
        <ele>362.076324</ele>
        <time>2011-10-02T12:25:51Z</time>
      </trkpt>
      <trkpt lat="47.63927" lon="6.85984">
        <ele>361.698761</ele>
        <time>2011-10-02T12:25:56Z</time>
      </trkpt>
      <trkpt lat="47.63934" lon="6.85949">
        <ele>361.168762</ele>
        <time>2011-10-02T12:26:03Z</time>
      </trkpt>
      <trkpt lat="47.63927" lon="6.85917">
        <ele>360.700012</ele>
        <time>2011-10-02T12:26:09Z</time>
      </trkpt>
      <trkpt lat="47.63925" lon="6.85898">
        <ele>360.410004</ele>
        <time>2011-10-02T12:26:14Z</time>
      </trkpt>
      <trkpt lat="47.6392" lon="6.85881">
        <ele>360.160004</ele>
        <time>2011-10-02T12:26:18Z</time>
      </trkpt>
      <trkpt lat="47.63926" lon="6.85866">
        <ele>360</ele>
        <time>2011-10-02T12:26:22Z</time>
      </trkpt>
      <trkpt lat="47.63935" lon="6.85835">
        <ele>360</ele>
        <time>2011-10-02T12:26:30Z</time>
      </trkpt>
      <trkpt lat="47.63936" lon="6.85828">
        <ele>360</ele>
        <time>2011-10-02T12:26:32Z</time>
      </trkpt>
      <trkpt lat="47.63927" lon="6.85822">
        <ele>360</ele>
        <time>2011-10-02T12:26:36Z</time>
      </trkpt>
      <trkpt lat="47.6389" lon="6.85814">
        <ele>360</ele>
        <time>2011-10-02T12:26:45Z</time>
      </trkpt>
      <trkpt lat="47.63876" lon="6.85812">
        <ele>360</ele>
        <time>2011-10-02T12:26:49Z</time>
      </trkpt>
      <trkpt lat="47.63876" lon="6.85799">
        <ele>360.007507</ele>
        <time>2011-10-02T12:26:53Z</time>
      </trkpt>
      <trkpt lat="47.63882" lon="6.85785">
        <ele>360.22876</ele>
        <time>2011-10-02T12:26:57Z</time>
      </trkpt>
      <trkpt lat="47.63881" lon="6.85774">
        <ele>360.38501</ele>
        <time>2011-10-02T12:26:59Z</time>
      </trkpt>
      <trkpt lat="47.63875" lon="6.85758">
        <ele>360.621246</ele>
        <time>2011-10-02T12:27:02Z</time>
      </trkpt>
      <trkpt lat="47.63888" lon="6.85738">
        <ele>360.929993</ele>
        <time>2011-10-02T12:27:08Z</time>
      </trkpt>
      <trkpt lat="47.63909" lon="6.85735">
        <ele>361</ele>
        <time>2011-10-02T12:27:14Z</time>
      </trkpt>
      <trkpt lat="47.63925" lon="6.85737">
        <ele>361</ele>
        <time>2011-10-02T12:27:19Z</time>
      </trkpt>
      <trkpt lat="47.63927" lon="6.8573">
        <ele>361</ele>
        <time>2011-10-02T12:27:23Z</time>
      </trkpt>
      <trkpt lat="47.63927" lon="6.85703">
        <ele>361</ele>
        <time>2011-10-02T12:27:30Z</time>
      </trkpt>
      <trkpt lat="47.63928" lon="6.85659">
        <ele>361.172485</ele>
        <time>2011-10-02T12:27:38Z</time>
      </trkpt>
      <trkpt lat="47.63929" lon="6.85625">
        <ele>361.691254</ele>
        <time>2011-10-02T12:27:45Z</time>
      </trkpt>
      <trkpt lat="47.63928" lon="6.85611">
        <ele>361.888763</ele>
        <time>2011-10-02T12:27:48Z</time>
      </trkpt>
      <trkpt lat="47.63929" lon="6.85606">
        <ele>361.967499</ele>
        <time>2011-10-02T12:27:54Z</time>
      </trkpt>
      <trkpt lat="47.6392" lon="6.85603">
        <ele>361.998749</ele>
        <time>2011-10-02T12:28:03Z</time>
      </trkpt>
      <trkpt lat="47.63922" lon="6.85588">
        <ele>362.084381</ele>
        <time>2011-10-02T12:28:08Z</time>
      </trkpt>
      <trkpt lat="47.63926" lon="6.85567">
        <ele>362.166229</ele>
        <time>2011-10-02T12:28:13Z</time>
      </trkpt>
      <trkpt lat="47.63937" lon="6.85527">
        <ele>362.24585</ele>
        <time>2011-10-02T12:28:21Z</time>
      </trkpt>
      <trkpt lat="47.63949" lon="6.85497">
        <ele>362.540741</ele>
        <time>2011-10-02T12:28:27Z</time>
      </trkpt>
      <trkpt lat="47.63965" lon="6.85484">
        <ele>362.437439</ele>
        <time>2011-10-02T12:28:32Z</time>
      </trkpt>
      <trkpt lat="47.63973" lon="6.85474">
        <ele>362.349274</ele>
        <time>2011-10-02T12:28:35Z</time>
      </trkpt>
      <trkpt lat="47.63976" lon="6.85451">
        <ele>362.440491</ele>
        <time>2011-10-02T12:28:39Z</time>
      </trkpt>
      <trkpt lat="47.63977" lon="6.85422">
        <ele>362.61261</ele>
        <time>2011-10-02T12:28:44Z</time>
      </trkpt>
      <trkpt lat="47.63976" lon="6.85396">
        <ele>362.670013</ele>
        <time>2011-10-02T12:28:49Z</time>
      </trkpt>
      <trkpt lat="47.63977" lon="6.85356">
        <ele>362.644989</ele>
        <time>2011-10-02T12:28:56Z</time>
      </trkpt>
      <trkpt lat="47.63972" lon="6.85315">
        <ele>362.891235</ele>
        <time>2011-10-02T12:29:03Z</time>
      </trkpt>
      <trkpt lat="47.63975" lon="6.85295">
        <ele>363.231262</ele>
        <time>2011-10-02T12:29:07Z</time>
      </trkpt>
      <trkpt lat="47.63974" lon="6.85258">
        <ele>363.748749</ele>
        <time>2011-10-02T12:29:13Z</time>
      </trkpt>
      <trkpt lat="47.63969" lon="6.85234">
        <ele>364.134399</ele>
        <time>2011-10-02T12:29:17Z</time>
      </trkpt>
      <trkpt lat="47.63951" lon="6.85212">
        <ele>364.807495</ele>
        <time>2011-10-02T12:29:22Z</time>
      </trkpt>
      <trkpt lat="47.63945" lon="6.8519">
        <ele>365.828064</ele>
        <time>2011-10-02T12:29:26Z</time>
      </trkpt>
      <trkpt lat="47.63952" lon="6.85167">
        <ele>366.430023</ele>
        <time>2011-10-02T12:29:30Z</time>
      </trkpt>
      <trkpt lat="47.63955" lon="6.85163">
        <ele>366.292511</ele>
        <time>2011-10-02T12:29:31Z</time>
      </trkpt>
      <trkpt lat="47.63962" lon="6.85156">
        <ele>366.287537</ele>
        <time>2011-10-02T12:29:33Z</time>
      </trkpt>
      <trkpt lat="47.63977" lon="6.85147">
        <ele>365.956787</ele>
        <time>2011-10-02T12:29:37Z</time>
      </trkpt>
      <trkpt lat="47.64006" lon="6.85139">
        <ele>365.295349</ele>
        <time>2011-10-02T12:29:45Z</time>
      </trkpt>
      <trkpt lat="47.64008" lon="6.85117">
        <ele>366.417511</ele>
        <time>2011-10-02T12:29:49Z</time>
      </trkpt>
      <trkpt lat="47.64007" lon="6.85111">
        <ele>366.81546</ele>
        <time>2011-10-02T12:29:50Z</time>
      </trkpt>
      <trkpt lat="47.63997" lon="6.85059">
        <ele>369.196747</ele>
        <time>2011-10-02T12:29:59Z</time>
      </trkpt>
      <trkpt lat="47.63992" lon="6.85038">
        <ele>369.293854</ele>
        <time>2011-10-02T12:30:05Z</time>
      </trkpt>
      <trkpt lat="47.63989" lon="6.85016">
        <ele>369.013824</ele>
        <time>2011-10-02T12:30:12Z</time>
      </trkpt>
      <trkpt lat="47.63991" lon="6.85011">
        <ele>368.471436</ele>
        <time>2011-10-02T12:30:15Z</time>
      </trkpt>
      <trkpt lat="47.64001" lon="6.85002">
        <ele>367.304993</ele>
        <time>2011-10-02T12:30:20Z</time>
      </trkpt>
      <trkpt lat="47.64003" lon="6.85001">
        <ele>367.003754</ele>
        <time>2011-10-02T12:30:21Z</time>
      </trkpt>
      <trkpt lat="47.64024" lon="6.84994">
        <ele>366.330231</ele>
        <time>2011-10-02T12:30:26Z</time>
      </trkpt>
      <trkpt lat="47.64065" lon="6.84975">
        <ele>366.049683</ele>
        <time>2011-10-02T12:30:33Z</time>
      </trkpt>
      <trkpt lat="47.64114" lon="6.8495">
        <ele>365.717499</ele>
        <time>2011-10-02T12:30:40Z</time>
      </trkpt>
      <trkpt lat="47.6416" lon="6.84926">
        <ele>365.304413</ele>
        <time>2011-10-02T12:30:47Z</time>
      </trkpt>
      <trkpt lat="47.64208" lon="6.84902">
        <ele>365</ele>
        <time>2011-10-02T12:30:55Z</time>
      </trkpt>
      <trkpt lat="47.64261" lon="6.84874">
        <ele>365.368744</ele>
        <time>2011-10-02T12:31:04Z</time>
      </trkpt>
      <trkpt lat="47.6432" lon="6.84844">
        <ele>365.982422</ele>
        <time>2011-10-02T12:31:14Z</time>
      </trkpt>
      <trkpt lat="47.64343" lon="6.84834">
        <ele>366.465271</ele>
        <time>2011-10-02T12:31:18Z</time>
      </trkpt>
      <trkpt lat="47.6436" lon="6.84825">
        <ele>367.000092</ele>
        <time>2011-10-02T12:31:21Z</time>
      </trkpt>
      <trkpt lat="47.64374" lon="6.84808">
        <ele>367.491333</ele>
        <time>2011-10-02T12:31:24Z</time>
      </trkpt>
      <trkpt lat="47.64381" lon="6.84796">
        <ele>367.706238</ele>
        <time>2011-10-02T12:31:26Z</time>
      </trkpt>
      <trkpt lat="47.64381" lon="6.84768">
        <ele>368.121246</ele>
        <time>2011-10-02T12:31:30Z</time>
      </trkpt>
      <trkpt lat="47.64378" lon="6.84752">
        <ele>368.35376</ele>
        <time>2011-10-02T12:31:32Z</time>
      </trkpt>
      <trkpt lat="47.64371" lon="6.84719">
        <ele>368.847504</ele>
        <time>2011-10-02T12:31:36Z</time>
      </trkpt>
      <trkpt lat="47.64366" lon="6.84704">
        <ele>369</ele>
        <time>2011-10-02T12:31:38Z</time>
      </trkpt>
      <trkpt lat="47.64358" lon="6.84675">
        <ele>369</ele>
        <time>2011-10-02T12:31:42Z</time>
      </trkpt>
      <trkpt lat="47.64354" lon="6.84637">
        <ele>369</ele>
        <time>2011-10-02T12:31:48Z</time>
      </trkpt>
      <trkpt lat="47.64349" lon="6.84605">
        <ele>369</ele>
        <time>2011-10-02T12:31:54Z</time>
      </trkpt>
      <trkpt lat="47.64343" lon="6.84564">
        <ele>369</ele>
        <time>2011-10-02T12:32:01Z</time>
      </trkpt>
      <trkpt lat="47.64344" lon="6.84553">
        <ele>369</ele>
        <time>2011-10-02T12:32:03Z</time>
      </trkpt>
      <trkpt lat="47.64343" lon="6.84548">
        <ele>369</ele>
        <time>2011-10-02T12:32:05Z</time>
      </trkpt>
    </trkseg>
  </trk>
</gpx>